[[{"header":{"parameterUnit":"m.s-1","parameterCategory":1,"la1":31.0,"la2":29.5877,"lo1":-88.7671,"lo2":-86.6584,"dy":0.0162,"dx":0.0185,"nx":115,"ny":88,"refTime":"2024-07-26T12:00:00:Z","depth":0,"parameterNumber":2,"parameterNumberName":"U-component_of_WINDS"},"data":[0.0,0.0,0.0,0.0,0.0,0.0,0.0,0.0,0.0,0.0,0.0,0.0,0.0,0.0,0.0,0.0,0.0,0.0,0.0,0.0,0.0,0.0,0.0,0.0,0.0,0.0,0.0,0.0,0.0,0.0,0.0,0.0,0.0,0.0,0.0,0.0,0.0,0.0,0.0,0.0,0.0,0.0,0.0,0.0,0.0,0.0,0.0,0.0,0.0,0.0,0.0,0.0,0.0,0.0,0.0,0.0,0.0,0.0,0.0,0.0,0.0,0.0,0.0,0.0,0.0,0.0,0.0,0.0,0.0,0.0,0.0,0.0,0.0,0.0,0.0,0.0,0.0,0.0,0.0,0.0,0.0,0.0,0.0,0.0,0.0,0.0,0.0,0.0,0.0,0.0,0.0,0.0,0.0,0.0,0.0,0.0,0.0,0.0,0.0,0.0,0.0,0.0,0.0,0.0,0.0,0.0,0.0,0.0,0.0,0.0,0.0,0.0,0.0,0.0,0.0,0.0,0.0,0.0,0.0,0.0,0.0,0.0,0.0,0.0,0.0,0.0,0.0,0.0,0.0,0.0,0.0,0.0,0.0,0.0,0.0,0.0,0.0,0.0,0.0,0.0,0.0,0.0,0.0,0.0,0.0,0.0,0.0,0.0,0.0,0.0,0.0,0.0,0.0,0.0,0.0,0.0,0.0,0.0,0.0,0.0,0.0,0.0,0.0,0.0,0.0,0.0,0.0,0.0,0.0,0.0,0.0,0.0,0.0,0.0,0.0,0.0,0.0,0.0,0.0,0.0,0.0,0.0,0.0,0.0,0.0,0.0,0.0,0.0,0.0,0.0,0.0,0.0,0.0,0.0,0.0,0.0,0.0,0.0,0.0,0.0,0.0,0.0,0.0,0.0,0.0,0.0,0.0,0.0,0.0,0.0,0.0,0.0,0.0,0.0,0.0,0.0,0.0,0.0,0.0,0.0,0.0,0.0,0.0,0.0,0.0,0.0,0.0,0.0,0.0,0.0,0.0,0.0,0.0,0.0,0.0,0.0,0.0,0.0,0.0,0.0,0.0,0.0,0.0,0.0,0.0,0.0,0.0,0.0,0.0,0.0,0.0,0.0,0.0,0.0,0.0,0.0,0.0,0.0,0.0,0.0,0.0,0.0,0.0,0.0,0.0,0.0,0.0,0.0,0.0,0.0,0.0,0.0,0.0,0.0,0.0,0.0,0.0,0.0,0.0,0.0,0.0,0.0,0.0,0.0,0.0,0.0,0.0,0.0,0.0,0.0,0.0,0.0,0.0,0.0,0.0,0.0,0.0,0.0,0.0,0.0,0.0,0.0,0.0,0.0,0.0,0.0,0.0,0.0,0.0,0.0,0.0,0.0,0.0,0.0,0.0,0.0,0.0,0.0,0.0,0.0,0.0,0.0,0.0,0.0,0.0,0.0,0.0,0.0,0.0,0.0,0.0,0.0,0.0,0.0,0.0,0.0,0.0,0.0,0.0,0.0,0.0,0.0,0.0,0.0,0.0,0.0,0.0,0.0,0.0,0.0,0.0,0.0,0.0,0.0,0.0,0.0,0.0,0.0,0.0,0.0,0.0,0.0,0.0,0.0,0.0,0.0,0.0,0.0,0.0,0.0,0.0,0.0,0.0,0.0,0.0,0.0,0.0,0.0,0.0,0.0,0.0,0.0,0.0,0.0,0.0,0.0,0.0,0.0,0.0,0.0,0.0,0.0,0.0,0.0,0.0,0.0,0.0,0.0,0.0,0.0,0.0,0.0,0.0,0.0,0.0,0.0,0.0,0.0,0.0,0.0,0.0,0.0,0.0,0.0,0.0,0.0,0.0,0.0,0.0,0.0,0.0,0.0,0.0,0.0,0.0,0.0,0.0,0.0,0.0,0.0,0.0,0.0,0.0,0.0,0.0,0.0,0.0,0.0,0.0,0.0,0.0,0.0,0.0,0.0,0.0,0.0,0.0,0.0,0.0,0.0,0.0,0.0,0.0,0.0,0.0,0.0,0.0,0.0,0.0,0.0,0.0,0.0,0.0,0.0,0.0,0.0,0.0,0.0,0.0,0.0,0.0,0.0,0.0,0.0,0.0,0.0,0.0,0.0,0.0,0.0,0.0,0.0,0.0,0.0,0.0,0.0,0.0,0.0,0.0,0.0,0.0,0.0,0.0,0.0,0.0,0.0,0.0,0.0,0.0,0.0,0.0,0.0,0.0,0.0,0.0,0.0,0.0,0.0,0.0,0.0,0.0,0.0,0.0,0.0,0.0,0.0,0.0,0.0,0.0,0.0,0.0,0.0,0.0,0.0,0.0,0.0,0.0,0.0,0.0,0.0,0.0,0.0,0.0,0.0,0.0,0.0,0.0,0.0,0.0,0.0,0.0,0.0,0.0,0.0,0.0,0.0,0.0,0.0,0.0,0.0,0.0,0.0,0.0,0.0,0.0,0.0,0.0,0.0,0.0,0.0,0.0,0.0,0.0,0.0,0.0,0.0,0.0,0.0,0.0,0.0,0.0,0.0,0.0,0.0,0.0,0.0,0.0,0.0,0.0,0.0,0.0,0.0,0.0,0.0,0.0,0.0,0.0,0.0,0.0,0.0,0.0,0.0,0.0,0.0,0.0,0.0,0.0,0.0,0.0,0.0,0.0,0.0,0.0,0.0,0.0,0.0,0.0,0.0,0.0,0.0,0.0,0.0,0.0,0.0,0.0,0.0,0.0,0.0,0.0,0.0,0.0,0.0,0.0,0.0,0.0,0.0,0.0,0.0,0.0,0.0,0.0,0.0,0.0,0.0,0.0,0.0,0.0,0.0,0.0,0.0,0.0,0.0,0.0,0.0,0.0,0.0,0.0,0.0,0.0,0.0,0.0,0.0,0.0,0.0,0.0,0.0,0.0,0.0,0.0,0.0,0.0,0.0,0.0,0.0,0.0,0.0,0.0,0.0,0.0,0.0,0.0,0.0,0.0,0.0,0.0,0.0,0.0,0.0,0.0,0.0,0.0,0.0,0.0,0.0,0.0,0.0,0.0,0.0,0.0,0.0,0.0,0.0,0.0,0.0,0.0,0.0,0.0,0.0,0.0,0.0,0.0,0.0,0.0,0.0,0.0,0.0,0.0,0.0,0.0,0.0,0.0,0.0,0.0,0.0,0.0,0.0,0.0,0.0,0.0,0.0,0.0,0.0,0.0,0.0,0.0,0.0,0.0,0.0,0.0,0.0,0.0,0.0,0.0,0.0,0.0,0.0,0.0,0.0,0.0,0.0,0.0,0.0,0.0,0.0,0.0,0.0,0.0,0.0,0.0,0.0,0.0,0.0,0.0,0.0,0.0,0.0,0.0,0.0,0.0,0.0,0.0,0.0,0.0,0.0,0.0,0.0,0.0,0.0,0.0,0.0,0.0,0.0,0.0,0.0,0.0,0.0,0.0,0.0,0.0,0.0,0.0,0.0,0.0,0.0,0.0,0.0,0.0,0.0,0.0,0.0,0.0,0.0,0.0,0.0,0.0,0.0,0.0,0.0,0.0,0.0,0.0,0.0,0.0,0.0,0.0,0.0,0.0,0.0,0.0,0.0,0.0,0.0,0.0,0.0,0.0,0.0,0.0,0.0,0.0,0.0,0.0,0.0,0.0,0.0,0.0,0.0,0.0,0.0,0.0,0.0,0.0,0.0,0.0,0.0,0.0,0.0,0.0,0.0,0.0,0.0,0.0,0.0,0.0,0.0,0.0,0.0,0.0,0.0,0.0,0.0,0.0,0.0,0.0,0.0,0.0,0.0,0.0,0.0,0.0,0.0,0.0,0.0,0.0,0.0,0.0,0.0,0.0,0.0,0.0,0.0,0.0,0.0,0.0,0.0,0.0,0.0,0.0,0.0,0.0,0.0,0.0,0.0,0.0,0.0,0.0,0.0,0.0,0.0,0.0,0.0,0.0,0.0,0.0,0.0,0.0,0.0,0.0,0.0,0.0,0.0,0.0,0.0,0.0,0.0,0.0,0.0,0.0,0.0,0.0,0.0,0.0,0.0,0.0,0.0,0.0,0.0,0.0,0.0,0.0,0.0,0.0,0.0,0.0,0.0,0.0,0.0,0.0,0.0,0.0,0.0,0.0,0.0,0.0,0.0,0.0,0.0,0.0,0.0,0.0,0.0,0.0,0.0,0.0,0.0,0.0,0.0,0.0,0.0,0.0,0.0,0.0,0.0,0.0,0.0,0.0,0.0,0.0,0.0,0.0,0.0,0.0,0.0,0.0,0.0,0.0,0.0,-0.9503,0.0,0.0,0.0,0.0,0.0,0.0,0.0,0.0,0.0,0.0,0.0,0.0,0.0,0.0,0.0,0.0,0.0,0.0,0.0,0.0,0.0,0.0,0.0,0.0,0.0,0.0,0.0,0.0,0.0,0.0,0.0,0.0,0.0,0.0,0.0,0.0,0.0,0.0,0.0,0.0,0.0,0.0,0.0,0.0,0.0,0.0,0.0,0.0,0.0,0.0,0.0,0.0,0.0,0.0,0.0,0.0,0.0,0.0,0.0,0.0,0.0,0.0,0.0,0.0,0.0,0.0,0.0,0.0,0.0,0.0,0.0,0.0,0.0,0.0,0.0,0.0,0.0,0.0,0.0,0.0,0.0,0.0,0.0,0.0,0.0,0.0,0.0,0.0,0.0,0.0,0.0,0.0,0.0,0.0,0.0,0.0,0.0,0.0,0.0,0.0,0.0,0.0,0.0,0.0,0.0,0.0,0.0,0.0,0.0,0.0,-0.95,-0.95,-0.95,-0.95,-0.95,0.0,0.0,0.0,0.0,0.0,0.0,0.0,0.0,0.0,0.0,0.0,0.0,0.0,0.0,0.0,0.0,0.0,0.0,0.0,0.0,0.0,0.0,0.0,0.0,0.0,0.0,0.0,0.0,0.0,0.0,0.0,0.0,0.0,0.0,0.0,0.0,0.0,0.0,0.0,0.0,0.0,0.0,0.0,0.0,0.0,0.0,0.0,0.0,0.0,0.0,0.0,0.0,0.0,0.0,0.0,0.0,0.0,0.0,0.0,0.0,0.0,0.0,0.0,0.0,0.0,0.0,0.0,0.0,0.0,0.0,0.0,0.0,0.0,0.0,0.0,0.0,0.0,0.0,0.0,0.0,0.0,0.0,0.0,0.0,0.0,0.0,0.0,0.0,0.0,0.0,0.0,0.0,0.0,0.0,0.0,0.0,0.0,0.0,0.0,0.0,0.0,0.0,0.0,0.0,0.0,0.0,0.0,0.0,0.0,0.0,0.0,0.0,-1.0276,-1.0304,-1.0322,0.0,0.0,0.0,0.0,0.0,0.0,0.0,0.0,0.0,0.0,0.0,0.0,0.0,0.0,0.0,0.0,0.0,0.0,0.0,0.0,0.0,0.0,0.0,0.0,0.0,0.0,0.0,0.0,0.0,0.0,0.0,0.0,0.0,0.0,0.0,0.0,0.0,0.0,0.0,0.0,0.0,0.0,0.0,0.0,0.0,0.0,0.0,0.0,0.0,0.0,0.0,0.0,0.0,0.0,0.0,0.0,0.0,0.0,0.0,0.0,0.0,0.0,0.0,0.0,0.0,0.0,0.0,0.0,0.0,0.0,0.0,0.0,0.0,0.0,0.0,0.0,0.0,0.0,0.0,0.0,0.0,0.0,0.0,0.0,0.0,0.0,0.0,0.0,0.0,0.0,0.0,0.0,0.0,0.0,0.0,0.0,0.0,0.0,0.0,0.0,0.0,0.0,0.0,0.0,0.0,0.0,0.0,0.0,0.0,0.0,-1.0367,-1.2353,-1.2615,0.0,-1.2779,0.0,0.0,0.0,0.0,0.0,0.0,0.0,0.0,0.0,0.0,0.0,0.0,0.0,0.0,0.0,0.0,0.0,0.0,0.0,0.0,0.0,0.0,0.0,0.0,0.0,0.0,0.0,0.0,0.0,0.0,0.0,0.0,0.0,0.0,0.0,0.0,0.0,0.0,0.0,0.0,0.0,0.0,0.0,0.0,0.0,0.0,0.0,0.0,0.0,0.0,0.0,0.0,0.0,0.0,0.0,0.0,0.0,0.0,0.0,0.0,0.0,0.0,0.0,0.0,0.0,0.0,0.0,0.0,0.0,0.0,0.0,0.0,0.0,0.0,0.0,0.0,0.0,0.0,0.0,0.0,0.0,0.0,0.0,0.0,0.0,0.0,0.0,0.0,0.0,0.0,0.0,0.0,0.0,0.0,0.0,0.0,0.0,0.0,0.0,0.0,0.0,0.0,0.0,0.0,0.0,0.0,0.0,0.0,0.0,0.0,0.0,-1.2914,-1.2999,-1.298,0.0,0.0,0.0,0.0,0.0,0.0,0.0,0.0,0.0,0.0,0.0,0.0,0.0,0.0,0.0,0.0,0.0,0.0,0.0,0.0,0.0,0.0,0.0,0.0,0.0,0.0,0.0,0.0,0.0,0.0,0.0,0.0,0.0,0.0,0.0,0.0,0.0,0.0,0.0,0.0,0.0,0.0,0.0,0.0,0.0,0.0,0.0,0.0,0.0,0.0,0.0,0.0,0.0,0.0,0.0,0.0,0.0,0.0,0.0,0.0,0.0,0.0,0.0,0.0,0.0,0.0,0.0,0.0,0.0,0.0,0.0,0.0,0.0,0.0,0.0,0.0,0.0,0.0,0.0,0.0,0.0,0.0,0.0,0.0,0.0,0.0,0.0,0.0,0.0,0.0,0.0,0.0,0.0,0.0,0.0,0.0,0.0,0.0,0.0,0.0,0.0,0.0,0.0,0.0,0.0,0.0,0.0,0.0,0.0,0.0,-1.2199,0.0,-1.3914,-1.3999,-1.3611,-1.2805,0.0,0.0,0.0,0.0,0.0,0.0,0.0,0.0,0.0,0.0,0.0,0.0,0.0,0.0,0.0,0.0,0.0,0.0,0.0,0.0,0.0,0.0,0.0,0.0,0.0,0.0,0.0,0.0,0.0,0.0,0.0,0.0,0.0,0.0,0.0,0.0,0.0,0.0,0.0,0.0,0.0,0.0,0.0,0.0,0.0,0.0,0.0,0.0,0.0,0.0,0.0,0.0,0.0,0.0,0.0,0.0,0.0,0.0,0.0,0.0,0.0,0.0,0.0,0.0,0.0,0.0,0.0,0.0,0.0,0.0,0.0,0.0,0.0,0.0,0.0,0.0,0.0,0.0,0.0,0.0,0.0,0.0,0.0,0.0,0.0,0.0,0.0,0.0,0.0,0.0,0.0,0.0,0.0,0.0,0.0,0.0,0.0,0.0,0.0,0.0,0.0,0.0,0.0,0.0,0.0,0.0,0.0,0.0,0.0,-1.3267,-1.3484,-1.597,-1.6292,-1.5357,0.0,0.0,0.0,0.0,0.0,0.0,0.0,0.0,0.0,0.0,0.0,0.0,0.0,0.0,0.0,0.0,0.0,0.0,0.0,0.0,0.0,0.0,0.0,0.0,0.0,0.0,0.0,0.0,0.0,0.0,0.0,0.0,0.0,0.0,0.0,0.0,0.0,0.0,0.0,0.0,0.0,0.0,0.0,0.0,0.0,0.0,0.0,0.0,0.0,0.0,0.0,0.0,0.0,0.0,0.0,0.0,0.0,0.0,0.0,0.0,0.0,0.0,0.0,0.0,0.0,0.0,0.0,0.0,0.0,0.0,0.0,0.0,0.0,0.0,0.0,0.0,0.0,0.0,0.0,0.0,0.0,0.0,0.0,0.0,0.0,0.0,0.0,0.0,0.0,0.0,0.0,0.0,0.0,0.0,0.0,0.0,0.0,0.0,0.0,0.0,0.0,0.0,0.0,0.0,0.0,0.0,0.0,0.0,0.0,-1.1308,-1.212,-1.4334,0.0,-1.5566,-1.4363,0.0,0.0,0.0,0.0,0.0,0.0,0.0,0.0,0.0,0.0,0.0,0.0,0.0,0.0,0.0,0.0,0.0,0.0,0.0,0.0,0.0,0.0,0.0,0.0,0.0,0.0,0.0,0.0,0.0,0.0,0.0,0.0,0.0,0.0,0.0,0.0,0.0,0.0,0.0,0.0,0.0,0.0,0.0,0.0,0.0,0.0,0.0,0.0,0.0,0.0,0.0,0.0,0.0,0.0,0.0,0.0,0.0,0.0,0.0,0.0,0.0,0.0,0.0,0.0,0.0,0.0,0.0,0.0,0.0,0.0,0.0,0.0,0.0,0.0,0.0,0.0,0.0,0.0,0.0,0.0,0.0,0.0,0.0,0.0,0.0,0.0,0.0,0.0,0.0,0.0,0.0,0.0,0.0,0.0,0.0,0.0,0.0,0.0,0.0,0.0,0.0,0.0,0.0,0.0,0.0,0.0,0.0,0.0,0.0,-1.1051,0.0,-1.5741,0.0,-1.5297,-1.3751,0.0,0.0,0.0,0.0,0.0,0.0,0.0,0.0,0.0,0.0,0.0,0.0,0.0,0.0,0.0,0.0,0.0,0.0,0.0,0.0,0.0,0.0,0.0,0.0,0.0,0.0,0.0,0.0,0.0,0.0,0.0,0.0,0.0,0.0,0.0,0.0,0.0,0.0,0.0,0.0,0.0,0.0,0.0,0.0,0.0,0.0,0.0,0.0,0.0,0.0,0.0,0.0,0.0,0.0,0.0,0.0,0.0,0.0,0.0,0.0,0.0,0.0,0.0,0.0,0.0,0.0,0.0,0.0,0.0,0.0,0.0,0.0,0.0,0.0,0.0,0.0,0.0,0.0,0.0,0.0,0.0,0.0,0.0,0.0,0.0,0.0,0.0,0.0,0.0,0.0,0.0,0.0,0.0,0.0,0.0,0.0,0.0,0.0,0.0,0.0,0.0,0.0,0.0,0.0,0.0,0.0,0.0,0.0,0.0,-1.502,-1.7304,-1.7484,-1.5644,-1.567,-1.3763,0.0,0.0,0.0,0.0,0.0,0.0,0.0,0.0,0.0,0.0,0.0,0.0,0.0,0.0,0.0,0.0,0.0,0.0,0.0,0.0,0.0,0.0,0.0,0.0,0.0,0.0,0.0,0.0,0.0,0.0,0.0,0.0,0.0,0.0,0.0,0.0,0.0,0.0,0.0,0.0,0.0,0.0,0.0,0.0,0.0,0.0,0.0,0.0,0.0,0.0,0.0,0.0,0.0,0.0,0.0,0.0,0.0,0.0,0.0,0.0,0.0,0.0,0.0,0.0,0.0,0.0,0.0,0.0,0.0,0.0,0.0,0.0,0.0,0.0,0.0,0.0,0.0,0.0,0.0,0.0,0.0,0.0,0.0,0.0,0.0,0.0,0.0,0.0,0.0,0.0,0.0,0.0,0.0,0.0,0.0,0.0,0.0,0.0,0.0,0.0,0.0,0.0,0.0,0.0,0.0,0.0,0.0,0.0,0.0,-1.3061,-1.5207,-1.6747,-1.7441,-1.4813,-1.3429,0.0,0.0,0.0,0.0,0.0,0.0,0.0,0.0,0.0,0.0,0.0,0.0,0.0,0.0,0.0,0.0,0.0,0.0,0.0,0.0,0.0,0.0,0.0,0.0,0.0,0.0,0.0,0.0,0.0,0.0,0.0,0.0,0.0,0.0,0.0,0.0,0.0,0.0,0.0,0.0,0.0,0.0,0.0,0.0,0.0,0.0,0.0,0.0,0.0,0.0,0.0,0.0,0.0,0.0,0.0,0.0,0.0,0.0,0.0,0.0,0.0,0.0,0.0,0.0,0.0,0.0,0.0,0.0,0.0,0.0,0.0,0.0,0.0,0.0,0.0,0.0,0.0,0.0,0.0,0.0,0.0,0.0,0.0,0.0,0.0,0.0,0.0,0.0,0.0,0.0,0.0,0.0,0.0,0.0,0.0,0.0,0.0,0.0,0.0,0.0,0.0,0.0,0.0,0.0,0.0,0.0,0.0,0.0,0.0,-1.4973,-1.7254,-1.865,-1.8906,-1.607,-1.4316,-1.3818,0.0,0.0,0.0,0.0,0.0,0.0,0.0,0.0,0.0,0.0,0.0,0.0,0.0,0.0,0.0,0.0,0.0,0.0,0.0,0.0,0.0,0.0,0.0,0.0,0.0,0.0,0.0,0.0,0.0,0.0,0.0,0.0,0.0,0.0,0.0,0.0,0.0,0.0,0.0,0.0,0.0,0.0,0.0,0.0,0.0,0.0,0.0,0.0,0.0,0.0,0.0,0.0,0.0,0.0,0.0,0.0,0.0,0.0,0.0,0.0,0.0,0.0,0.0,0.0,0.0,0.0,0.0,0.0,0.0,0.0,0.0,0.0,0.0,0.0,0.0,0.0,0.0,0.0,0.0,0.0,0.0,0.0,0.0,0.0,0.0,0.0,0.0,0.0,0.0,0.0,0.0,0.0,0.0,0.0,0.0,0.0,0.0,0.0,0.0,0.0,0.0,0.0,0.0,0.0,0.0,0.0,0.0,0.0,-1.97,-2.2676,-2.2874,-2.0097,-1.8989,-1.6287,0.0,0.0,0.0,0.0,0.0,0.0,0.0,0.0,0.0,0.0,0.0,0.0,0.0,0.0,0.0,0.0,0.0,0.0,0.0,0.0,0.0,0.0,0.0,0.0,0.0,0.0,0.0,0.0,0.0,0.0,0.0,0.0,0.0,0.0,0.0,0.0,0.0,0.0,0.0,0.0,0.0,0.0,0.0,0.0,0.0,0.0,0.0,0.0,0.0,0.0,0.0,0.0,0.0,0.0,0.0,0.0,0.0,0.0,0.0,0.0,0.0,0.0,0.0,0.0,0.0,0.0,0.0,0.0,0.0,0.0,0.0,0.0,0.0,0.0,0.0,0.0,0.0,0.0,0.0,0.0,0.0,0.0,0.0,0.0,0.0,0.0,0.0,0.0,0.0,0.0,0.0,0.0,0.0,0.0,0.0,0.0,0.0,0.0,0.0,0.0,0.0,0.0,0.0,0.0,0.0,0.0,0.0,0.0,0.0,-2.1267,-2.5177,-2.6352,-2.4447,-2.0607,-1.7652,0.0,0.0,0.0,0.0,0.0,0.0,0.0,0.0,0.0,0.0,0.0,0.0,0.0,0.0,0.0,0.0,0.0,0.0,0.0,0.0,0.0,0.0,0.0,0.0,0.0,0.0,0.0,0.0,0.0,0.0,0.0,0.0,0.0,0.0,0.0,0.0,0.0,0.0,0.0,0.0,0.0,0.0,0.0,0.0,0.0,0.0,0.0,0.0,0.0,0.0,0.0,0.0,0.0,0.0,0.0,0.0,0.0,0.0,0.0,0.0,0.0,0.0,0.0,0.0,0.0,0.0,0.0,0.0,0.0,0.0,0.0,0.0,0.0,0.0,0.0,0.0,0.0,0.0,0.0,0.0,0.0,0.0,0.0,0.0,0.0,0.0,0.0,0.0,0.0,0.0,0.0,0.0,0.0,0.0,0.0,0.0,0.0,0.0,0.0,0.0,0.0,0.0,0.0,0.0,0.0,0.0,0.0,0.0,-2.0619,-2.3457,-2.7271,-2.8936,-2.8313,-2.3456,-1.973,0.0,0.0,0.0,0.0,0.0,0.0,0.0,0.0,0.0,0.0,0.0,0.0,0.0,0.0,0.0,0.0,0.0,0.0,0.0,0.0,0.0,0.0,0.0,0.0,0.0,0.0,0.0,0.0,0.0,0.0,0.0,0.0,0.0,0.0,0.0,0.0,0.0,0.0,0.0,0.0,0.0,0.0,0.0,0.0,0.0,0.0,0.0,0.0,0.0,0.0,0.0,0.0,0.0,0.0,0.0,0.0,0.0,0.0,0.0,0.0,0.0,0.0,0.0,0.0,0.0,0.0,0.0,0.0,0.0,0.0,0.0,0.0,0.0,0.0,0.0,0.0,0.0,0.0,0.0,0.0,0.0,0.0,0.0,0.0,0.0,0.0,0.0,0.0,0.0,0.0,0.0,0.0,0.0,0.0,0.0,0.0,0.0,0.0,0.0,0.0,0.0,0.0,0.0,0.0,0.0,0.0,0.0,0.0,-2.2329,-2.5852,-2.8829,-3.064,-3.1046,-2.6521,-2.2062,0.0,0.0,0.0,0.0,0.0,0.0,0.0,0.0,0.0,0.0,0.0,0.0,0.0,0.0,0.0,0.0,0.0,0.0,0.0,0.0,0.0,0.0,0.0,0.0,0.0,0.0,0.0,0.0,0.0,0.0,0.0,0.0,0.0,0.0,0.0,0.0,0.0,0.0,0.0,0.0,0.0,0.0,0.0,0.0,0.0,0.0,0.0,0.0,0.0,0.0,0.0,0.0,0.0,0.0,0.0,0.0,0.0,0.0,0.0,0.0,0.0,0.0,0.0,0.0,0.0,0.0,0.0,0.0,0.0,0.0,0.0,0.0,0.0,0.0,0.0,0.0,0.0,0.0,0.0,0.0,0.0,0.0,0.0,0.0,0.0,0.0,0.0,0.0,0.0,0.0,0.0,0.0,0.0,0.0,0.0,0.0,0.0,0.0,0.0,0.0,0.0,0.0,0.0,0.0,0.0,0.0,0.0,0.0,-2.3449,-2.6474,-2.8952,-3.0533,-3.1154,-2.6521,-2.2742,0.0,0.0,0.0,0.0,0.0,0.0,0.0,0.0,0.0,0.0,0.0,0.0,0.0,0.0,0.0,0.0,0.0,0.0,0.0,0.0,0.0,0.0,0.0,0.0,0.0,0.0,0.0,0.0,0.0,0.0,0.0,0.0,0.0,0.0,0.0,0.0,0.0,0.0,0.0,0.0,0.0,0.0,0.0,0.0,0.0,0.0,0.0,0.0,-0.8889,0.0,0.0,0.0,0.0,0.0,0.0,0.0,0.0,0.0,0.0,0.0,0.0,0.0,0.0,0.0,0.0,0.0,0.0,0.0,0.0,0.0,0.0,0.0,0.0,0.0,0.0,0.0,0.0,0.0,0.0,0.0,0.0,0.0,0.0,0.0,0.0,0.0,0.0,0.0,0.0,0.0,0.0,0.0,0.0,0.0,0.0,0.0,0.0,0.0,0.0,0.0,0.0,0.0,0.0,0.0,0.0,0.0,0.0,0.0,-2.4362,-2.7559,-2.9314,-3.0484,-3.0929,-2.78,-2.4547,0.0,0.0,0.0,0.0,0.0,0.0,0.0,0.0,0.0,0.0,0.0,0.0,0.0,0.0,0.0,0.0,0.0,0.0,0.0,0.0,0.0,0.0,0.0,0.0,0.0,0.0,0.0,0.0,0.0,0.0,0.0,0.0,0.0,0.0,0.0,0.0,0.0,0.0,0.0,0.0,0.0,0.0,0.0,0.0,0.0,0.0,0.0,0.0,0.0,0.0,0.0,0.0,0.0,0.0,0.0,0.0,0.0,0.0,0.0,0.0,0.0,0.0,0.0,0.0,0.0,0.0,0.0,0.0,0.0,0.0,0.0,0.0,0.0,0.0,0.0,0.0,0.0,0.0,0.0,0.0,0.0,0.0,0.0,0.0,0.0,0.0,0.0,0.0,0.0,0.0,0.0,0.0,0.0,0.0,0.0,0.0,0.0,0.0,0.0,0.0,0.0,0.0,0.0,0.0,0.0,0.0,0.0,-2.1263,-2.4897,-2.871,-2.9632,-3.0315,-3.0839,-2.921,-2.6249,-2.1932,0.0,0.0,0.0,0.0,0.0,0.0,0.0,0.0,0.0,0.0,0.0,0.0,0.0,0.0,0.0,0.0,0.0,0.0,0.0,0.0,0.0,0.0,0.0,0.0,0.0,0.0,0.0,0.0,0.0,0.0,0.0,0.0,0.0,0.0,0.0,0.0,0.0,0.0,-0.8034,-0.928,0.0,0.0,0.0,0.0,0.0,0.0,0.0,0.0,-0.9729,0.0,0.0,0.0,0.0,0.0,0.0,0.0,0.0,0.0,0.0,0.0,0.0,0.0,0.0,0.0,0.0,0.0,0.0,0.0,0.0,0.0,0.0,0.0,0.0,0.0,0.0,0.0,0.0,0.0,0.0,0.0,0.0,0.0,0.0,0.0,0.0,0.0,0.0,0.0,0.0,0.0,0.0,0.0,0.0,0.0,0.0,0.0,0.0,0.0,0.0,0.0,0.0,0.0,0.0,0.0,0.0,-2.1257,-2.1487,-2.4193,-2.9533,-2.9427,-2.9806,-3.0784,-2.896,-2.5922,-2.1813,0.0,0.0,0.0,0.0,0.0,0.0,0.0,0.0,0.0,0.0,0.0,0.0,0.0,0.0,0.0,0.0,0.0,0.0,0.0,0.0,0.0,0.0,0.0,0.0,0.0,0.0,0.0,0.0,0.0,0.0,0.0,0.0,0.0,0.0,0.0,0.0,0.0,0.0,0.0,-1.0529,-1.1221,0.0,0.0,0.0,0.0,0.0,0.0,0.0,0.0,-1.0488,0.0,0.0,0.0,0.0,0.0,0.0,0.0,0.0,0.0,0.0,0.0,0.0,0.0,0.0,0.0,0.0,0.0,0.0,0.0,0.0,0.0,0.0,0.0,0.0,0.0,0.0,0.0,0.0,0.0,0.0,0.0,0.0,0.0,0.0,0.0,0.0,0.0,0.0,0.0,0.0,0.0,0.0,0.0,0.0,0.0,0.0,0.0,0.0,0.0,0.0,0.0,0.0,0.0,0.0,0.0,-2.0433,-2.2898,-2.5858,-2.9351,-2.9562,-2.9826,-3.0312,-2.807,-2.5134,0.0,0.0,0.0,0.0,0.0,0.0,0.0,0.0,0.0,0.0,0.0,0.0,0.0,0.0,0.0,0.0,0.0,0.0,0.0,0.0,0.0,0.0,0.0,0.0,0.0,0.0,0.0,0.0,0.0,0.0,0.0,0.0,0.0,0.0,0.0,0.0,0.0,0.0,0.0,0.0,-1.1812,-1.2536,-1.3272,0.0,0.0,0.0,0.0,0.0,0.0,-1.1845,-1.1065,0.0,0.0,0.0,0.0,0.0,0.0,0.0,0.0,0.0,0.0,0.0,0.0,0.0,0.0,0.0,0.0,0.0,0.0,0.0,0.0,0.0,0.0,0.0,0.0,0.0,0.0,0.0,0.0,0.0,0.0,0.0,0.0,0.0,0.0,0.0,0.0,0.0,0.0,0.0,0.0,0.0,0.0,0.0,0.0,0.0,0.0,0.0,0.0,0.0,0.0,0.0,0.0,0.0,0.0,0.0,-1.9169,-2.3651,-2.6965,-2.8864,-2.9409,-2.9732,-2.9848,-2.7228,-2.4316,0.0,0.0,0.0,0.0,0.0,0.0,0.0,0.0,0.0,0.0,0.0,0.0,0.0,0.0,0.0,0.0,0.0,0.0,0.0,0.0,0.0,0.0,0.0,0.0,0.0,0.0,0.0,0.0,0.0,0.0,0.0,0.0,0.0,0.0,0.0,0.0,0.0,0.0,0.0,0.0,0.0,-1.3975,-1.4331,-1.4575,0.0,0.0,0.0,0.0,-1.3877,-1.3224,0.0,0.0,0.0,0.0,0.0,0.0,0.0,0.0,0.0,0.0,0.0,0.0,0.0,0.0,0.0,0.0,0.0,0.0,0.0,0.0,0.0,0.0,0.0,0.0,0.0,0.0,0.0,0.0,0.0,0.0,0.0,0.0,0.0,0.0,0.0,0.0,0.0,0.0,0.0,0.0,0.0,0.0,0.0,0.0,0.0,0.0,0.0,0.0,0.0,0.0,0.0,0.0,0.0,0.0,0.0,0.0,-1.9038,-2.1898,-2.4985,-2.8182,-2.8472,-2.8935,-2.9826,-2.6937,-2.3826,0.0,0.0,0.0,0.0,0.0,0.0,0.0,0.0,0.0,0.0,0.0,0.0,0.0,0.0,0.0,0.0,0.0,0.0,0.0,0.0,0.0,0.0,0.0,0.0,0.0,0.0,0.0,0.0,0.0,0.0,0.0,0.0,0.0,0.0,0.0,0.0,0.0,0.0,0.0,0.0,0.0,-1.5341,-1.5343,-1.5015,-1.486,0.0,0.0,-1.5778,-1.7024,-1.7146,0.0,0.0,0.0,0.0,0.0,0.0,0.0,0.0,0.0,0.0,0.0,0.0,0.0,0.0,0.0,0.0,0.0,0.0,0.0,0.0,0.0,0.0,0.0,0.0,0.0,0.0,0.0,0.0,0.0,0.0,0.0,0.0,0.0,0.0,0.0,0.0,0.0,0.0,0.0,0.0,0.0,0.0,0.0,0.0,0.0,0.0,0.0,0.0,0.0,0.0,0.0,0.0,0.0,0.0,0.0,-1.6721,-1.9149,-2.3326,-2.6411,-2.8218,-2.8288,-2.8803,-2.9858,-2.5472,-2.218,0.0,0.0,0.0,0.0,0.0,0.0,0.0,0.0,0.0,0.0,0.0,0.0,0.0,0.0,0.0,0.0,0.0,0.0,0.0,0.0,0.0,0.0,0.0,0.0,0.0,0.0,0.0,0.0,0.0,0.0,0.0,0.0,0.0,0.0,0.0,0.0,0.0,0.0,0.0,0.0,0.0,0.0,-1.6523,-1.6898,0.0,0.0,0.0,-1.6935,-1.6853,0.0,0.0,0.0,0.0,0.0,0.0,0.0,0.0,0.0,0.0,0.0,0.0,0.0,0.0,0.0,0.0,0.0,0.0,0.0,0.0,0.0,0.0,0.0,0.0,0.0,0.0,0.0,0.0,0.0,0.0,0.0,0.0,0.0,0.0,0.0,0.0,0.0,0.0,0.0,0.0,0.0,0.0,0.0,0.0,0.0,0.0,0.0,0.0,0.0,0.0,0.0,0.0,0.0,0.0,0.0,0.0,0.0,-1.9159,-2.4522,-2.7565,-2.8085,-2.8094,-2.8543,-2.9368,-2.4934,0.0,0.0,0.0,0.0,0.0,0.0,0.0,0.0,0.0,0.0,0.0,0.0,0.0,0.0,0.0,0.0,0.0,0.0,0.0,0.0,0.0,0.0,0.0,0.0,0.0,0.0,0.0,-0.7899,0.0,0.0,0.0,0.0,0.0,0.0,0.0,0.0,0.0,0.0,0.0,0.0,0.0,0.0,-1.6898,-1.7493,-1.8345,-1.8734,0.0,0.0,-1.7992,-1.736,-1.8265,-1.797,0.0,0.0,0.0,0.0,0.0,0.0,0.0,0.0,0.0,0.0,0.0,0.0,0.0,0.0,0.0,0.0,0.0,0.0,0.0,0.0,0.0,0.0,0.0,0.0,0.0,0.0,0.0,0.0,0.0,0.0,0.0,0.0,0.0,0.0,0.0,0.0,0.0,0.0,0.0,0.0,0.0,0.0,0.0,0.0,0.0,0.0,0.0,0.0,0.0,0.0,0.0,0.0,0.0,0.0,0.0,-1.9232,-2.4214,-2.7074,-2.754,-2.7565,-2.7824,-2.8369,-2.6526,-2.3561,0.0,0.0,0.0,0.0,0.0,0.0,0.0,0.0,0.0,0.0,0.0,0.0,0.0,0.0,0.0,0.0,0.0,0.0,0.0,0.0,0.0,0.0,0.0,0.0,0.0,0.0,0.0,0.0,0.0,0.0,0.0,0.0,0.0,0.0,0.0,0.0,0.0,0.0,0.0,0.0,0.0,-1.7842,-1.8035,-1.8583,-1.9471,0.0,0.0,-1.9128,-2.0308,-2.1362,-2.0782,-1.7014,0.0,0.0,0.0,0.0,0.0,0.0,0.0,0.0,0.0,0.0,0.0,0.0,0.0,0.0,0.0,0.0,0.0,0.0,0.0,0.0,0.0,0.0,0.0,0.0,0.0,0.0,0.0,0.0,0.0,0.0,0.0,0.0,0.0,0.0,0.0,0.0,0.0,0.0,0.0,0.0,0.0,0.0,0.0,0.0,0.0,0.0,0.0,0.0,0.0,0.0,0.0,0.0,0.0,-1.7838,-1.9145,-2.4181,-2.7037,-2.7479,-2.7214,-2.7454,-2.8264,-2.6016,-2.3233,0.0,0.0,0.0,0.0,0.0,0.0,0.0,0.0,0.0,0.0,0.0,0.0,0.0,0.0,0.0,0.0,0.0,0.0,0.0,0.0,0.0,0.0,0.0,0.0,0.0,0.0,0.0,0.0,-0.8435,-0.8184,-0.7681,0.0,0.0,0.0,0.0,0.0,0.0,0.0,0.0,0.0,0.0,-1.8547,-1.9985,-2.0387,0.0,0.0,-2.0747,-2.0271,-2.0047,-2.0522,-1.977,-1.6332,-1.5411,0.0,0.0,0.0,0.0,0.0,0.0,0.0,0.0,0.0,0.0,0.0,0.0,0.0,0.0,0.0,0.0,0.0,0.0,0.0,0.0,0.0,0.0,0.0,0.0,0.0,0.0,0.0,0.0,0.0,0.0,0.0,0.0,0.0,0.0,0.0,0.0,0.0,0.0,0.0,0.0,0.0,0.0,0.0,0.0,0.0,0.0,0.0,0.0,0.0,0.0,0.0,0.0,-1.7838,-1.9101,-2.4167,-2.6933,-2.7291,-2.6959,-2.7126,-2.7775,-2.5932,-2.3577,0.0,0.0,0.0,0.0,0.0,0.0,0.0,0.0,0.0,0.0,0.0,0.0,0.0,0.0,0.0,0.0,0.0,0.0,0.0,0.0,0.0,0.0,0.0,0.0,0.0,0.0,0.0,0.0,-0.8303,-0.7971,-0.7453,0.0,0.0,0.0,0.0,0.0,0.0,0.0,0.0,0.0,0.0,-1.9282,-2.0736,-2.0909,-2.0839,-2.0729,-2.0429,-1.9978,-1.9417,-1.9541,-1.8879,-1.6537,0.0,0.0,0.0,0.0,0.0,0.0,0.0,0.0,0.0,0.0,0.0,0.0,0.0,0.0,0.0,0.0,0.0,0.0,0.0,0.0,0.0,0.0,0.0,0.0,0.0,0.0,0.0,0.0,0.0,0.0,-0.7662,0.0,0.0,0.0,0.0,0.0,0.0,0.0,0.0,0.0,0.0,0.0,0.0,0.0,0.0,0.0,0.0,0.0,0.0,0.0,0.0,0.0,0.0,0.0,-1.9145,-2.4167,-2.6806,-2.6806,-2.6806,-2.6806,-2.6843,-2.6578,-2.5099,-2.218,0.0,0.0,0.0,0.0,0.0,0.0,0.0,0.0,0.0,0.0,0.0,0.0,0.0,0.0,0.0,0.0,0.0,0.0,0.0,0.0,0.0,0.0,0.0,0.0,0.0,0.0,-0.7077,-0.7251,-0.7418,0.0,0.0,0.0,0.0,0.0,0.0,0.0,0.0,0.0,0.0,-1.8573,-2.0081,-1.9715,-1.9548,-1.9543,-1.9543,-1.8545,-1.8054,-1.8919,-1.9037,-1.8819,0.0,0.0,0.0,0.0,0.0,0.0,0.0,0.0,0.0,0.0,0.0,0.0,0.0,0.0,0.0,0.0,0.0,0.0,0.0,0.0,0.0,0.0,0.0,0.0,0.0,0.0,0.0,-1.1809,-1.0878,0.0,0.0,0.0,0.0,0.0,0.0,0.0,0.0,0.0,0.0,0.0,-2.0074,-2.0915,0.0,0.0,0.0,0.0,0.0,0.0,0.0,0.0,0.0,0.0,0.0,0.0,-1.8495,-1.9914,-2.4399,-2.6794,-2.6794,-2.6794,-2.6794,-2.6794,-2.6718,-2.5077,-2.1633,0.0,0.0,0.0,0.0,0.0,0.0,0.0,0.0,0.0,0.0,0.0,0.0,0.0,0.0,0.0,0.0,0.0,0.0,0.0,0.0,0.0,0.0,0.0,0.0,0.0,-0.7655,0.0,0.0,0.0,0.0,0.0,0.0,0.0,0.0,0.0,0.0,0.0,-1.6065,-1.7671,-1.8326,-1.898,-1.992,-2.0003,-2.0397,0.0,0.0,0.0,0.0,0.0,0.0,0.0,0.0,0.0,0.0,0.0,0.0,0.0,0.0,-1.5168,-1.2786,-1.276,-1.3008,-1.2672,0.0,0.0,0.0,0.0,0.0,0.0,0.0,0.0,0.0,0.0,0.0,0.0,0.0,0.0,-1.5681,0.0,-1.4207,0.0,0.0,0.0,0.0,0.0,0.0,0.0,0.0,-2.1452,-2.331,-2.4365,-2.4936,-2.4573,0.0,-2.2243,-1.9566,0.0,0.0,0.0,0.0,0.0,0.0,0.0,0.0,-1.9134,-2.0524,-2.4641,-2.6794,-2.6794,-2.6794,-2.6794,-2.6779,-2.6573,-2.5203,-2.2586,-2.0615,-1.8364,0.0,0.0,0.0,0.0,0.0,0.0,0.0,0.0,0.0,0.0,0.0,0.0,0.0,0.0,0.0,0.0,0.0,0.0,0.0,0.0,0.0,0.0,0.0,-0.7994,0.0,0.0,0.0,0.0,0.0,0.0,0.0,0.0,0.0,-1.4719,-1.6264,-1.7847,-1.9235,-1.9429,-1.9538,-1.9885,0.0,0.0,0.0,0.0,0.0,0.0,0.0,-1.8253,-1.7579,-1.7958,-1.8534,-1.9101,-1.9562,-1.9686,-1.8995,0.0,0.0,-1.5397,-1.5226,-1.549,-1.5127,-1.5064,-1.5029,-1.5015,-1.5131,-1.5336,0.0,0.0,0.0,0.0,0.0,0.0,0.0,0.0,-2.0677,-2.0295,0.0,-1.8536,0.0,0.0,0.0,0.0,0.0,-1.9633,0.0,0.0,-2.742,-2.9305,-2.8738,-2.8116,-2.784,-2.7695,-2.5857,-2.4307,-2.2888,-1.9339,0.0,0.0,0.0,0.0,0.0,0.0,-1.9798,-2.1177,-2.4873,-2.6794,-2.6794,-2.6794,-2.6794,-2.6765,-2.6195,-2.5531,-2.4878,-2.3115,-2.1206,-1.9217,-1.6198,0.0,0.0,0.0,0.0,0.0,0.0,0.0,0.0,0.0,0.0,0.0,0.0,0.0,0.0,0.0,0.0,0.0,0.0,0.0,0.0,-0.8408,0.0,0.0,0.0,0.0,0.0,0.0,0.0,0.0,0.0,0.0,-1.6936,-1.8238,-1.9575,-2.0596,0.0,0.0,0.0,0.0,-1.9916,-1.8151,-1.7665,-1.7615,-1.7688,-1.847,-1.9432,-2.0418,0.0,0.0,-2.1894,-2.1254,-2.0722,-2.0399,-2.1373,-2.1282,-1.8284,-1.741,-1.7051,-1.6748,-1.6694,-1.6618,-1.664,-1.7043,-1.7366,-2.7385,0.0,0.0,0.0,0.0,-2.28,-2.3384,-2.4258,-2.4086,-2.3573,-2.2864,-2.2069,0.0,0.0,0.0,0.0,0.0,0.0,-2.5015,-2.6419,-2.8594,-3.0001,-3.0713,-3.0973,-3.0901,-3.0364,-2.8926,-2.804,-2.7596,-2.5605,-2.1587,-1.5747,0.0,0.0,0.0,0.0,-2.1328,-2.3093,-2.5542,-2.6794,-2.6794,-2.6794,-2.6794,-2.6779,-2.6617,-2.6184,-2.5546,-2.5019,-2.3624,-2.1264,-1.9435,0.0,0.0,0.0,0.0,0.0,0.0,0.0,0.0,0.0,0.0,0.0,0.0,0.0,0.0,0.0,0.0,0.0,0.0,0.0,-0.8879,-0.9238,-0.9554,0.0,0.0,0.0,0.0,0.0,0.0,0.0,0.0,0.0,-2.0089,-1.9599,-1.9361,0.0,0.0,-1.875,-1.8521,-1.9375,-2.0242,-2.0812,0.0,0.0,0.0,-2.1007,-2.0815,-2.1127,-2.2366,-2.3316,-2.3239,-2.3631,-2.3711,-2.302,-2.3221,-2.2891,-2.1313,-2.0678,-2.0254,-1.9783,-1.9322,-1.9093,-1.9093,-1.9202,-1.931,-3.3534,-3.0252,-2.7696,-2.6551,-2.6493,-2.6816,-2.7549,-2.8474,-2.8627,-2.8454,-2.8035,-2.6973,-2.5765,-2.4465,-2.3386,0.0,0.0,0.0,-2.8047,-2.9668,-3.0684,-3.1685,-3.2643,-3.2817,-3.2687,-3.2234,-3.0906,-3.0284,-3.0242,-2.8158,-2.472,-2.004,0.0,0.0,-1.8952,-2.1554,-2.3339,-2.4273,-2.6184,-2.7041,-2.6794,-2.6794,-2.6794,-2.6794,-2.6794,-2.6617,-2.6224,-2.6184,-2.5367,-2.3557,-2.1801,-1.9333,0.0,0.0,0.0,0.0,0.0,0.0,0.0,0.0,0.0,0.0,0.0,-1.021,0.0,0.0,0.0,0.0,-0.978,-1.0157,-1.0684,-1.1224,0.0,0.0,0.0,0.0,0.0,0.0,0.0,-1.7798,-1.9589,-2.1198,-2.2261,-2.1623,-2.1061,-2.1202,-2.0459,-1.9973,-2.0081,0.0,-2.1933,-2.2746,-2.2855,-2.2891,-2.2999,-2.2799,-2.2702,-2.2919,-2.3713,-2.435,-2.4432,-2.4927,-2.5109,-2.4648,-2.4389,-2.4026,-2.314,-2.2616,-2.2038,-2.1314,-2.0926,-2.0696,-2.0685,-2.0685,-2.0641,-3.8539,-3.752,-3.1783,-2.9501,-2.9698,-3.0182,-3.1165,-3.2476,-3.3251,-3.3693,-3.3696,-3.2245,-3.0955,-2.9812,-2.7534,0.0,-2.9203,-2.9798,-3.0942,-3.2576,-3.3202,-3.3767,-3.4254,-3.3657,-3.343,-3.3448,-3.1947,-3.1224,-3.1132,-2.8207,-2.6371,-2.5673,-2.5862,-2.4904,-2.3048,-2.4693,-2.5398,-2.4924,-2.664,-2.7316,-2.6835,-2.6794,-2.6794,-2.6779,-2.6762,-2.6692,-2.6733,-2.6675,-2.637,-2.5701,-2.3449,-2.1017,-1.8506,0.0,0.0,0.0,0.0,0.0,0.0,0.0,0.0,0.0,0.0,0.0,0.0,0.0,0.0,0.0,-1.2513,0.0,-1.3536,-1.4104,0.0,0.0,0.0,-1.6735,-1.8355,-1.9497,-2.0589,-2.1609,0.0,0.0,-2.379,0.0,-2.3996,-2.4047,-2.3902,-2.3637,-2.3144,-2.3821,-2.441,-2.3986,-2.4011,-2.3902,-2.3652,-2.4109,-2.465,-2.4999,-2.5312,-2.5252,-2.524,-2.5276,-2.5312,-2.5252,-2.504,-2.4694,-2.4334,-2.3527,-2.2751,-2.1941,-2.166,-2.157,-2.1527,-2.1516,-2.1396,-3.9257,-3.8936,-3.6804,-3.5245,-3.4182,-3.3871,-3.3439,-3.2891,-3.2464,-3.2542,-3.2953,-3.2416,-3.2421,-3.2796,-3.25,-3.2614,-3.3079,-3.3703,-3.3648,-3.3061,-3.3188,-3.3344,-3.3437,-3.2758,-3.2737,-3.3113,-3.1295,-3.0636,-3.1039,-2.9329,-2.8027,-2.7213,-2.7237,-2.559,-2.2476,-2.3596,-2.4758,-2.5735,-2.6061,-2.6431,-2.6779,-2.6794,-2.6794,-2.6779,-2.6312,-2.6036,-2.6036,-2.5546,-2.5201,-2.5013,-2.4022,-2.2505,-2.0422,-1.7001,0.0,0.0,0.0,0.0,0.0,0.0,0.0,0.0,0.0,-1.2813,-0.9793,0.0,-1.3036,0.0,-1.3564,-1.506,-1.6826,-1.7137,0.0,0.0,-1.9233,-2.0,-2.1204,-2.2698,-2.3547,-2.3414,-2.4668,-2.551,-2.5388,-2.5421,-2.558,-2.607,-2.4795,-2.3758,-2.3649,-2.4458,-2.5083,-2.5059,-2.5648,-2.6093,-2.5937,-2.5805,-2.56,-2.536,-2.5312,-2.5312,-2.5312,-2.5312,-2.5312,-2.5312,-2.5253,-2.5052,-2.4718,-2.4241,-2.3729,-2.3198,-2.2309,-2.1603,-2.1603,-2.1603,-2.1669,-4.0012,-3.9984,-3.9522,-3.8046,-3.6075,-3.5914,-3.5424,-3.4689,-3.4261,-3.4268,-3.445,-3.393,-3.4043,-3.4496,-3.4766,-3.498,-3.527,-3.5619,-3.535,-3.4569,-3.3917,-3.3649,-3.3599,-3.2607,-3.234,-3.2635,-3.1156,-3.0658,-3.0897,-2.9681,-2.8608,-2.7872,-2.763,-2.6109,-2.3467,-2.4042,-2.4659,-2.5154,-2.5592,-2.5994,-2.6392,-2.6674,-2.6518,-2.5952,-2.556,-2.5096,-2.452,-2.4143,-2.3824,-2.3548,-2.2947,-2.1844,-2.0204,-1.7542,-1.5273,0.0,0.0,0.0,0.0,0.0,0.0,0.0,0.0,0.0,0.0,0.0,-1.5318,0.0,-1.6141,-1.7677,-1.9158,-1.9736,-2.0464,-2.1568,-2.2385,-2.3344,-2.4406,-2.5573,-2.6251,-2.6201,-2.6864,-2.7296,-2.7299,-2.7164,-2.7184,-2.756,-2.6622,-2.5793,-2.5612,-2.6045,-2.6454,-2.6731,-2.721,-2.751,-2.7332,-2.6622,-2.5997,-2.5709,-2.5468,-2.5312,-2.5312,-2.5312,-2.5312,-2.5276,-2.5182,-2.4945,-2.461,-2.4345,-2.4007,-2.3415,-2.2925,-2.2474,-2.2251,-2.2215,-2.228,-4.0702,-4.0702,-4.0702,-3.9229,-3.6967,-3.7249,-3.6874,-3.6003,-3.6165,-3.6255,-3.6231,-3.5682,-3.5497,-3.5569,-3.5619,-3.5909,-3.6431,-3.6431,-3.6316,-3.6093,-3.4888,-3.4289,-3.4133,-3.2732,-3.2069,-3.2087,-3.1206,-3.0758,-3.0732,-2.958,-2.8649,-2.7908,-2.7419,-2.6314,-2.4664,-2.481,-2.4641,-2.4114,-2.5155,-2.5712,-2.5671,-2.6036,-2.5673,-2.4543,-2.4457,-2.3878,-2.268,-2.264,-2.2395,-2.1823,-2.1301,-2.0567,-1.959,-1.7632,-1.6276,0.0,-1.4036,0.0,0.0,0.0,0.0,0.0,0.0,0.0,0.0,-1.7752,-1.7964,-1.8026,-1.9359,-2.0514,-2.1257,-2.2234,-2.3263,-2.4318,-2.5322,-2.6327,-2.7356,-2.7921,-2.8386,-2.8888,-2.8647,-2.8614,-2.8905,-2.8736,-2.8538,-2.8438,-2.8342,-2.8053,-2.7861,-2.7729,-2.7885,-2.845,-2.851,-2.8222,-2.769,-2.6935,-2.6334,-2.619,-2.5781,-2.542,-2.5432,-2.536,-2.5336,-2.5373,-2.5183,-2.4858,-2.4519,-2.4361,-2.4011,-2.3393,-2.332,-2.3305,-2.3036,-2.2914,-2.2881,-4.0702,-4.0702,-4.0702,-4.0378,-3.9845,-3.9424,-3.6605,-3.2318,-3.2116,-3.2765,-3.4037,-3.516,-3.5948,-3.6458,-3.678,-3.7012,-3.7114,-3.7114,-3.6482,-3.539,-3.5131,-3.4697,-3.4125,-3.2651,-3.2006,-3.1992,-3.0684,-2.9998,-2.9998,-2.9756,-2.8662,-2.6851,-2.6688,-2.5561,-2.3521,0.0,0.0,0.0,-2.4805,-2.497,-2.4436,-2.3596,-2.2856,-2.2255,-2.2435,0.0,-2.1194,-2.1269,-2.1139,-2.0741,-2.0873,0.0,0.0,0.0,0.0,0.0,0.0,0.0,0.0,0.0,0.0,0.0,-1.789,-1.8055,-1.8091,-1.9673,-2.0903,-2.1355,-2.2042,-2.307,-2.4519,-2.5305,-2.5984,-2.659,-2.7243,-2.7896,-2.8499,-2.8712,-2.89,-2.9234,-2.9231,-2.91,-2.8885,-2.8803,-2.8685,-2.851,-2.851,-2.8474,-2.8366,-2.833,-2.839,-2.8498,-2.851,-2.8318,-2.7774,-2.7524,-2.7138,-2.6825,-2.631,-2.5973,-2.5901,-2.56,-2.5504,-2.5841,-2.5634,-2.5493,-2.5744,-2.5046,-2.4273,-2.4096,-2.3585,-2.3075,-2.3038,-2.3001,-2.3088,-4.0702,0.0,-4.0702,-4.0168,0.0,-3.8809,-3.6439,-3.3047,-3.4505,-3.5376,-3.5747,-3.6273,-3.6691,-3.6936,-3.6194,-3.6054,-3.6301,-3.5372,-3.5047,-3.5261,-3.4539,-3.4542,-3.5082,-3.3185,-3.2171,-3.1955,-3.0791,-3.0055,-2.9804,-2.9779,-2.8938,-2.7293,-2.7544,-2.6716,-2.4833,-2.477,-2.4544,-2.4028,-2.4918,-2.5091,-2.4511,-2.4191,-2.3485,-2.2367,0.0,0.0,0.0,0.0,0.0,0.0,0.0,0.0,0.0,0.0,0.0,-2.041,-1.897,-1.8313,-1.8827,-1.8687,-1.9284,-2.0941,-2.1807,-2.1779,-2.0713,-2.2171,-2.3364,-2.3891,-2.4443,-2.5222,-2.6302,-2.6977,-2.753,-2.8034,-2.8348,-2.8737,-2.9201,-2.9225,-2.9197,-2.9318,-2.9223,-2.9028,-2.8843,-2.8724,-2.8605,-2.8498,-2.851,-2.851,-2.851,-2.851,-2.851,-2.851,-2.851,-2.8414,-2.815,-2.781,-2.763,-2.7294,-2.6863,-2.643,-2.6142,-2.6081,-2.6093,-2.6154,-2.6126,-2.6212,-2.5984,-2.5551,-2.5112,-2.4548,-2.4205,-2.3803,-2.3454,-2.3176,-2.3067,-4.0813,-4.0813,-4.0758,-3.9858,-3.8438,-3.8099,-3.7141,-3.6001,0.0,0.0,0.0,-3.7647,-3.7525,-3.7395,-3.5685,-3.527,-3.5735,-3.3989,-3.4052,-3.5596,-3.4256,-3.4427,-3.5739,-3.3791,-3.2568,-3.1992,-3.1069,-3.0382,-2.9942,-2.9842,-2.9277,-2.8373,-2.8662,-2.8197,-2.6876,-2.6688,-2.5971,-2.4696,-2.5127,-2.5206,-2.4771,-2.5023,-2.4372,-2.2791,-2.2897,-2.2634,-2.1928,-2.1558,-2.1544,-2.1826,-2.1037,-2.0796,-2.1375,-2.088,-2.0875,-2.1539,-2.1211,-2.1352,-2.2212,-2.2068,-2.2611,-2.418,-2.5084,-2.5021,-2.3622,-2.4474,-2.5285,-2.5724,-2.6311,-2.6813,-2.7278,-2.7871,-2.8436,-2.8838,-2.8988,-2.9277,-2.9716,-2.9611,-2.9445,-2.938,-2.9079,-2.8831,-2.8803,-2.8657,-2.851,-2.851,-2.851,-2.851,-2.851,-2.851,-2.851,-2.851,-2.851,-2.851,-2.845,-2.8174,-2.7834,-2.781,-2.739,-2.6873,-2.6586,-2.6645,-2.6717,-2.6538,-2.6716,-2.665,-2.6229,-2.6194,-2.5997,-2.5043,-2.4903,-2.4832,-2.4123,-2.3596,-2.3263,-4.1223,-4.1167,-4.084,-4.0533,-4.0351,-4.0449,-4.0588,-4.0492,-3.7978,-3.699,-3.7293,-3.8096,-3.8413,-3.8365,-3.7358,-3.723,-3.7701,-3.6177,-3.5949,0.0,-3.568,-3.5109,-3.4852,-3.3847,-3.3077,-3.245,-3.1207,-3.0583,-3.0444,-3.003,-2.9453,-2.885,-2.8863,-2.8574,-2.7883,-2.7406,-2.7077,-2.6813,-2.512,-2.4209,-2.4122,-2.3157,-2.2349,-2.1799,-2.2482,-2.2431,-2.1639,-2.222,-2.2206,-2.1443,-2.162,-2.2037,-2.2662,-2.2155,-2.2385,-2.3529,-2.3087,-2.2808,-2.2946,-2.3382,-2.4142,-2.5234,-2.5511,-2.5485,-2.5297,-2.585,-2.6285,-2.6399,-2.6876,-2.7216,-2.7344,-2.8222,-2.8813,-2.8913,-2.9377,-2.9716,-2.9779,-2.974,-2.9624,-2.9468,-2.9197,-2.8973,-2.8852,-2.8642,-2.851,-2.851,-2.857,-2.8534,-2.8558,-2.851,-2.851,-2.851,-2.851,-2.851,-2.8498,-2.8474,-2.8342,-2.8402,-2.7906,-2.756,-2.7354,-2.721,-2.7138,-2.7366,-2.7317,-2.7219,-2.7334,-2.6964,-2.6507,-2.6069,-2.5611,-2.5088,-2.4915,-2.4559,-2.4051,-4.1508,-4.1439,-4.1262,-4.1126,-4.1086,-4.1015,-4.1226,-4.1407,-3.9839,-3.9171,-3.9301,-3.9773,-3.9553,-3.8813,-3.707,-3.6402,-3.6591,-3.4513,-3.4468,-3.5945,-3.5194,-3.5203,-3.5735,-3.4592,-3.3679,-3.3036,-3.1996,-3.1145,-3.0633,-3.0357,-2.9792,-2.8925,-2.8637,-2.8499,-2.8474,-2.8009,-2.772,-2.7695,-2.6151,-2.5184,-2.4858,-2.4292,-2.3791,-2.3314,-2.371,-2.3875,-2.3773,-2.3846,-2.3839,-2.3734,-2.3326,-2.3228,-2.3571,-2.2992,-2.2907,-2.3505,-2.3578,-2.3572,-2.3559,-2.4393,-2.5071,-2.5561,-2.59,-2.6097,-2.6063,-2.6336,-2.6612,-2.6914,-2.7442,-2.7858,-2.8147,-2.8913,-2.939,-2.9402,-2.9641,-2.9779,-2.9779,-2.965,-2.9672,-2.9779,-2.9342,-2.9044,-2.9192,-2.8799,-2.851,-2.8534,-2.8715,-2.8931,-2.8943,-2.8943,-2.8823,-2.857,-2.851,-2.851,-2.851,-2.851,-2.851,-2.851,-2.8318,-2.8041,-2.7861,-2.7861,-2.7936,-2.7552,-2.781,-2.7914,-2.7481,-2.7238,-2.7019,-2.6517,-2.6219,-2.588,-2.5803,-2.5531,-2.4887,-4.1931,-4.1948,-4.1683,-4.1524,-4.1354,-4.11,-4.1113,-4.1252,-4.1352,-4.1274,-4.1108,-4.1091,-4.0539,-3.9421,-3.7121,-3.6133,-3.5894,-3.3648,-3.3638,-3.5295,-3.4598,-3.4848,-3.5886,-3.4719,-3.3871,-3.3349,-3.2599,-3.1684,-3.0871,-3.067,-3.0105,-2.9176,-2.8687,-2.8712,-2.9063,-2.8574,-2.8248,-2.8235,-2.7366,-2.66,-2.6,-2.5862,-2.5586,-2.5234,-2.5184,-2.54,-2.5826,-2.5306,-2.5167,-2.5478,-2.4684,-2.4164,-2.4055,-2.3725,-2.3484,-2.3521,-2.3929,-2.423,-2.4393,-2.5121,-2.5649,-2.582,-2.6235,-2.6487,-2.6499,-2.6612,-2.6851,-2.7316,-2.7896,-2.8473,-2.8825,-2.9428,-2.9779,-2.9779,-2.9779,-2.9779,-2.9779,-2.9611,-2.9733,-3.0129,-2.9601,-2.9272,-2.9598,-2.9274,-2.8931,-2.8991,-2.9232,-2.946,-2.9484,-2.9484,-2.928,-2.8967,-2.8679,-2.8522,-2.851,-2.851,-2.851,-2.851,-2.8498,-2.8318,-2.8162,-2.8703,-2.8874,-2.8048,-2.8393,-2.8474,-2.7355,-2.7295,-2.736,-2.6853,-2.655,-2.639,-2.6249,-2.6092,-2.5768,-4.2513,-4.2781,-4.1973,-4.1524,-4.1439,-4.1156,-4.0983,-4.0958,-4.1236,-4.1274,-4.1163,-4.1105,-4.1047,-4.067,-3.8783,-3.8188,-3.8556,-3.6575,-3.5672,-3.5789,-3.4861,-3.4158,-3.3869,-3.3427,-3.3185,-3.3089,-3.252,-3.1926,-3.1273,-3.0796,-3.0306,-2.9767,-2.9666,-2.9616,-2.9641,-2.9139,-2.8813,-2.8813,-2.826,-2.7682,-2.7178,-2.6675,-2.6399,-2.6361,-2.6323,-2.6348,-2.635,-2.5833,-2.5338,-2.4924,-2.4796,-2.4494,-2.4135,-2.4381,-2.4625,-2.46,-2.4675,-2.4946,-2.5385,-2.5523,-2.5871,-2.6348,-2.6436,-2.6499,-2.6537,-2.6964,-2.7218,-2.7482,-2.8273,-2.88,-2.8925,-2.9453,-2.9779,-2.9779,-2.9779,-2.9779,-2.9778,-2.9779,-2.9966,-3.0505,-3.0115,-3.0036,-3.0433,-3.0143,-2.9869,-2.9773,-2.9905,-3.0001,-3.0013,-3.0001,-3.0001,-2.9773,-2.9196,-2.8631,-2.857,-2.851,-2.851,-2.851,-2.851,-2.8474,-2.8558,-2.8895,-2.9179,-2.8915,-2.8792,-2.8675,-2.8239,-2.7912,-2.7278,-2.7103,-2.6775,-2.6423,-2.6152,-2.6278,-2.6362,-4.2732,-4.2842,-4.274,-4.2518,-4.2293,-4.1693,-4.1489,-4.1579,-4.1713,-4.1767,-4.17,-4.1686,-4.1468,-4.0989,-3.9479,-3.8942,-3.902,-3.7063,-3.6407,-3.661,-3.5363,-3.452,-3.414,-3.3526,-3.3224,-3.3099,-3.283,-3.2265,-3.1386,-3.0545,-3.0005,-2.9817,-2.9779,-2.9779,-2.9767,-2.9553,-2.944,-2.9415,-2.885,-2.8486,-2.8185,-2.7394,-2.6826,-2.6524,-2.6487,-2.6487,-2.6474,-2.626,-2.585,-2.5335,-2.5272,-2.5046,-2.4487,-2.4675,-2.48,-2.4813,-2.5109,-2.5536,-2.6097,-2.6101,-2.6235,-2.6474,-2.6487,-2.6625,-2.6977,-2.748,-2.7896,-2.826,-2.8674,-2.9001,-2.939,-2.9654,-2.9779,-2.9779,-2.965,-2.9685,-3.0009,-2.9928,-3.0171,-3.0923,-3.0589,-3.0423,-3.0784,-3.0489,-3.0152,-3.0146,-3.0326,-3.0543,-3.0555,-3.0597,-3.0555,-3.0513,-2.9905,-2.9364,-2.9051,-2.8691,-2.8582,-2.8522,-2.851,-2.8558,-2.8991,-2.9412,-2.9731,-2.9469,-2.9427,-2.9064,-2.83,-2.7988,-2.7534,-2.7319,-2.7144,-2.6857,-2.6693,-2.6992,-2.7337,-4.2931,-4.2965,-4.3252,-4.3119,-4.2751,-4.2101,-4.1796,-4.186,-4.2005,-4.2005,-4.1845,-4.2005,-4.1831,-4.1265,-4.0205,-3.9508,-3.8909,-3.731,-3.6415,-3.6308,-3.5204,-3.4478,-3.4084,-3.3645,-3.3286,-3.3134,-3.3111,-3.2566,-3.1587,-3.0545,-3.0018,-3.0005,-2.9867,-2.9779,-2.9779,-2.9779,-2.9779,-2.9754,-2.9365,-2.9051,-2.8813,-2.8147,-2.7429,-2.6801,-2.6713,-2.6663,-2.6499,-2.6348,-2.6072,-2.5624,-2.5586,-2.5435,-2.5071,-2.5184,-2.5272,-2.5297,-2.5624,-2.6047,-2.6461,-2.6487,-2.6487,-2.6487,-2.6487,-2.6738,-2.7278,-2.7795,-2.8335,-2.8787,-2.9026,-2.9365,-2.9691,-2.9878,-2.9927,-2.9888,-2.9766,-2.9933,-3.0279,-3.0191,-3.0466,-3.1259,-3.0973,-3.0804,-3.1149,-3.0912,-3.0603,-3.0681,-3.091,-3.1127,-3.1127,-3.1139,-3.1096,-3.1115,-3.0681,-3.011,-2.9617,-2.9292,-2.8967,-2.8943,-2.9015,-2.9172,-2.9496,-2.9953,-3.0302,-3.0132,-3.0175,-2.976,-2.8883,-2.838,-2.7679,-2.7219,-2.7021,-2.694,-2.6622,-2.7249,-2.7696,-4.3136,-4.3488,-4.3302,-4.2894,-4.2339,-4.2159,-4.1729,-4.125,-4.1831,-4.1744,-4.1323,-4.1831,-4.2078,-4.1961,-4.125,-4.0225,-3.888,-3.7593,-3.6011,-3.4437,-3.4044,-3.3507,-3.2751,-3.3167,-3.3328,-3.3215,-3.3124,-3.2742,-3.2102,-3.1072,-3.057,-3.0545,-3.0043,-2.9779,-2.9779,-2.9779,-2.9779,-2.9767,-2.9716,-2.949,-2.8976,-2.8838,-2.831,-2.7356,-2.7278,-2.7052,-2.6575,-2.5996,-2.5661,-2.5611,-2.5636,-2.5598,-2.5611,-2.6097,-2.6348,-2.6361,-2.6411,-2.6449,-2.6474,-2.6487,-2.6487,-2.6499,-2.6537,-2.6751,-2.7318,-2.7871,-2.8411,-2.8863,-2.9377,-2.969,-2.9828,-2.9934,-3.0154,-3.0238,-3.0445,-3.0544,-3.065,-3.0633,-3.092,-3.1369,-3.1229,-3.1155,-3.1568,-3.1669,-3.1416,-3.1392,-3.156,-3.1536,-3.144,-3.1524,-3.1548,-3.1464,-3.1151,-3.0663,-3.0194,-2.9821,-2.9857,-2.9797,-2.9677,-2.9953,-3.0236,-3.0477,-3.0651,-3.0721,-3.0477,-3.0036,-2.9409,-2.8621,-2.7732,-2.7167,-2.6768,-2.6569,-2.6622,-2.6857,-2.7267,-4.3163,-4.3579,-4.341,-4.317,-4.2867,-4.2722,-4.2078,-4.1192,-4.1802,-4.1715,-4.1294,-4.1802,-4.2092,-4.2078,-4.1845,-4.0972,-3.9541,-3.7813,-3.6147,-3.4705,-3.3711,-3.3309,-3.3443,-3.3107,-3.3279,-3.3791,-3.3356,-3.278,-3.2152,-3.1135,-3.062,-3.0532,-3.0055,-2.9779,-2.9779,-2.9779,-2.9779,-2.9779,-2.9779,-2.9679,-2.9478,-2.9478,-2.8938,-2.7896,-2.7808,-2.772,-2.7519,-2.6979,-2.6678,-2.6678,-2.6386,-2.6185,-2.6197,-2.6373,-2.6487,-2.6487,-2.6487,-2.6487,-2.6487,-2.6487,-2.6487,-2.6512,-2.6839,-2.7205,-2.777,-2.831,-2.8825,-2.9327,-2.9449,-2.9672,-2.992,-2.988,-3.0015,-3.0583,-3.0323,-3.0333,-3.0791,-3.0901,-3.104,-3.1409,-3.1293,-3.1062,-3.1067,-3.0922,-3.0706,-3.0694,-3.0706,-3.0687,-3.0723,-3.0927,-3.1211,-3.1247,-3.1332,-3.1356,-3.1211,-3.0446,-3.0086,-3.0074,-3.0086,-3.0302,-3.0573,-3.0742,-3.0903,-3.1168,-3.0926,-3.056,-2.9967,-2.9105,-2.8131,-2.7286,-2.6857,-2.6775,-2.6734,-2.6899,-2.7156,-4.3389,-4.3801,-4.3708,-4.3466,-4.321,-4.3055,-4.2397,-4.1512,-4.1889,-4.1845,-4.157,-4.1903,-4.2092,-4.2092,-4.2092,-4.1512,-4.0257,-3.8243,-3.6325,-3.4737,-3.371,-3.3275,-3.3185,-3.3051,-3.3238,-3.3634,-3.314,-3.2654,-3.2416,-3.1574,-3.106,-3.0859,-3.0319,-2.9955,-2.9829,-2.9779,-2.9779,-2.9767,-2.9616,-2.9503,-2.949,-2.9327,-2.89,-2.8247,-2.8109,-2.8009,-2.7846,-2.7517,-2.7381,-2.7457,-2.7193,-2.6952,-2.6788,-2.6763,-2.6675,-2.6524,-2.6487,-2.6487,-2.6487,-2.6487,-2.6575,-2.6751,-2.7102,-2.757,-2.8285,-2.8637,-2.905,-2.9462,-2.9642,-2.9784,-3.0168,-2.9989,-3.0109,-3.091,-3.066,-3.0609,-3.1227,-3.1262,-3.1247,-3.1271,-3.0934,-3.0694,-3.0591,-3.0314,-3.017,-3.0086,-3.0086,-3.0086,-3.0158,-3.0362,-3.0627,-3.0663,-3.1091,-3.1284,-3.1308,-3.091,-3.0802,-3.0759,-3.0675,-3.085,-3.0922,-3.1067,-3.1211,-3.1488,-3.1428,-3.1036,-3.0433,-2.9553,-2.8657,-2.7696,-2.7319,-2.7208,-2.7033,-2.6816,-2.7115,-4.3851,-4.4266,-4.424,-4.3865,-4.3295,-4.3156,-4.2687,-4.2107,-4.2063,-4.202,-4.186,-4.2063,-4.2092,-4.2092,-4.2092,-4.1715,-4.0839,-3.9127,-3.6706,-3.422,-3.408,-3.3332,-3.221,-3.2944,-3.304,-3.2643,-3.2361,-3.2516,-3.2855,-3.2315,-3.1825,-3.1373,-3.0871,-3.0369,-2.9817,-2.9867,-2.9829,-2.9716,-2.934,-2.9013,-2.885,-2.8637,-2.8335,-2.8134,-2.8109,-2.7858,-2.7356,-2.7341,-2.7494,-2.7921,-2.7934,-2.7783,-2.7253,-2.7178,-2.6992,-2.6575,-2.6487,-2.6487,-2.6487,-2.6537,-2.6813,-2.7153,-2.7341,-2.7871,-2.8599,-2.8749,-2.896,-2.9468,-2.9668,-3.0036,-3.0564,-3.0489,-3.0572,-3.1132,-3.1411,-3.1567,-3.1641,-3.1669,-3.15,-3.1019,-3.0458,-3.0122,-3.0074,-2.9941,-2.9857,-2.9857,-2.9881,-2.9869,-2.9845,-2.9965,-3.0074,-3.023,-3.0651,-3.1115,-3.1235,-3.1332,-3.1512,-3.1621,-3.1512,-3.15,-3.1428,-3.1488,-3.1464,-3.1669,-3.1669,-3.132,-3.0627,-2.9798,-2.9141,-2.8327,-2.8023,-2.7569,-2.729,-2.7115,-2.7144,-4.3695,-4.3932,-4.4542,-4.4467,-4.3897,-4.3719,-4.3094,-4.2136,-4.2092,-4.1831,-4.1555,-4.1903,-4.2092,-4.2092,-4.2092,-4.1976,-4.1715,-4.0547,-3.8337,-3.5547,-3.4686,-3.404,-3.3192,-3.2463,-3.2008,-3.1868,-3.2075,-3.2303,-3.2428,-3.2303,-3.2102,-3.1876,-3.1411,-3.0884,-3.0369,-3.0357,-3.0206,-2.9817,-2.9628,-2.9528,-2.9515,-2.934,-2.89,-2.8197,-2.8109,-2.7846,-2.7331,-2.7329,-2.7369,-2.7557,-2.7216,-2.6927,-2.6801,-2.6751,-2.6675,-2.6524,-2.6487,-2.6487,-2.6537,-2.6839,-2.709,-2.7394,-2.7946,-2.8499,-2.8863,-2.9073,-2.9367,-2.9762,-2.9536,-2.9602,-3.0687,-3.0657,-3.0804,-3.1641,-3.1438,-3.1455,-3.1609,-3.1392,-3.1127,-3.0862,-3.0098,-2.9617,-2.9484,-2.9328,-2.91,-2.9088,-2.9076,-2.9076,-2.9076,-2.9412,-2.9725,-3.0025,-3.0506,-3.1007,-3.1235,-3.1428,-3.1609,-3.1705,-3.1705,-3.1705,-3.1705,-3.1705,-3.1705,-3.1705,-3.1705,-3.1416,-3.0766,-3.0104,-2.9456,-2.8855,-2.8378,-2.7929,-2.758,-2.7452,-2.7452,-4.3993,-4.4261,-4.5078,-4.5039,-4.4451,-4.4153,-4.3398,-4.2411,-4.1918,-4.1628,-4.1555,-4.1628,-4.1874,-4.2049,-4.2092,-4.2092,-4.2049,-4.1642,-3.9841,-3.7229,-3.6246,-3.5254,-3.3959,-3.262,-3.1709,-3.1455,-3.1549,-3.1838,-3.2202,-3.2202,-3.2202,-3.2127,-3.1863,-3.1311,-3.0696,-3.0608,-3.0344,-2.9854,-2.9578,-2.9465,-2.9428,-2.9264,-2.8725,-2.7934,-2.7795,-2.7519,-2.703,-2.7014,-2.7216,-2.7444,-2.7243,-2.7027,-2.6839,-2.6813,-2.6713,-2.6524,-2.6487,-2.6487,-2.6524,-2.6788,-2.7318,-2.7858,-2.8499,-2.9063,-2.9349,-2.9729,-3.0004,-2.9847,-2.9809,-2.998,-3.0828,-3.1022,-3.1215,-3.1784,-3.1583,-3.1412,-3.1573,-3.1055,-3.0669,-3.035,-2.9653,-2.9148,-2.8907,-2.8787,-2.851,-2.851,-2.851,-2.851,-2.8619,-2.8991,-2.9424,-2.9917,-3.0434,-3.0855,-3.1296,-3.1512,-3.1681,-3.1705,-3.1705,-3.1705,-3.1705,-3.1705,-3.1705,-3.1705,-3.1705,-3.1464,-3.0886,-3.035,-2.9779,-2.9224,-2.87,-2.8224,-2.7829,-2.7667,-2.7626,-4.4676,-4.517,-4.5685,-4.5547,-4.4893,-4.4284,-4.3645,-4.2919,-4.1773,-4.157,-4.1845,-4.1555,-4.1584,-4.2005,-4.2092,-4.2092,-4.2078,-4.2034,-4.0873,-3.9155,-3.8197,-3.6692,-3.3896,-3.3071,-3.22,-3.1248,-3.0871,-3.1185,-3.1901,-3.2127,-3.2202,-3.219,-3.2215,-3.1763,-3.1035,-3.0733,-3.0444,-2.993,-2.9352,-2.9076,-2.9038,-2.8624,-2.8047,-2.7494,-2.7431,-2.7168,-2.6675,-2.66,-2.7002,-2.7821,-2.7758,-2.7482,-2.7268,-2.7231,-2.6927,-2.6512,-2.6487,-2.6487,-2.6499,-2.6776,-2.7379,-2.8549,-2.9001,-2.9338,-3.0194,-3.0477,-3.047,-3.0057,-3.0344,-3.0754,-3.1007,-3.1223,-3.1524,-3.1713,-3.1777,-3.1801,-3.1609,-3.0759,-3.0278,-2.9977,-2.922,-2.8522,-2.8582,-2.8534,-2.8522,-2.851,-2.851,-2.851,-2.8619,-2.8907,-2.9232,-2.9773,-3.041,-3.0934,-3.138,-3.156,-3.1705,-3.1705,-3.1705,-3.1705,-3.1705,-3.1705,-3.1705,-3.1705,-3.1681,-3.1404,-3.1115,-3.0669,-3.0122,-2.9587,-2.902,-2.8486,-2.8163,-2.799,-2.7909,-4.4676,-4.517,-4.57,-4.5793,-4.5459,-4.4472,-4.3892,-4.3558,-4.2339,-4.186,-4.2034,-4.1918,-4.1874,-4.2078,-4.2092,-4.2092,-4.2092,-4.2092,-4.1218,-3.9769,-3.9592,-3.6996,-3.3786,-3.299,-3.2008,-3.0503,-3.0495,-3.0758,-3.1085,-3.1813,-3.2177,-3.2227,-3.2604,-3.2478,-3.1851,-3.1348,-3.0922,-3.0407,-2.9842,-2.9541,-2.9515,-2.9402,-2.8863,-2.7984,-2.7871,-2.7417,-2.6612,-2.6487,-2.6575,-2.6864,-2.6927,-2.6889,-2.6763,-2.6738,-2.6675,-2.6537,-2.6487,-2.6499,-2.665,-2.7216,-2.8021,-2.8825,-2.9666,-3.0417,-3.1004,-3.0927,-3.0888,-3.0795,-3.0725,-3.0706,-3.1247,-3.1296,-3.1356,-3.1645,-3.1761,-3.1761,-3.1536,-3.0759,-3.0086,-2.9977,-2.9136,-2.8631,-2.851,-2.851,-2.851,-2.851,-2.851,-2.851,-2.8619,-2.9039,-2.946,-2.9941,-3.0506,-3.1019,-3.1404,-3.1597,-3.1705,-3.1705,-3.1705,-3.1705,-3.1705,-3.1705,-3.1705,-3.1705,-3.1705,-3.1524,-3.1368,-3.1091,-3.0494,-2.9809,-2.9299,-2.875,-2.8487,-2.8311,-2.8311,-4.469,-4.5184,-4.57,-4.5721,-4.5358,-4.44,-4.3834,-4.3355,-4.2252,-4.186,-4.199,-4.1787,-4.1831,-4.2078,-4.2092,-4.2092,-4.2092,-4.2092,-4.1295,-4.0032,-3.9405,-3.6968,-3.407,-3.3368,-3.2177,-3.0022,-3.0105,-3.0394,-3.0733,-3.1474,-3.1938,-3.2277,-3.2792,-3.2754,-3.2164,-3.1662,-3.1135,-3.0608,-3.0093,-2.9779,-2.9779,-2.9779,-2.9164,-2.8348,-2.8084,-2.7595,-2.6663,-2.6487,-2.6487,-2.6499,-2.6499,-2.6487,-2.6487,-2.6487,-2.6487,-2.6487,-2.6487,-2.6575,-2.6901,-2.7444,-2.8348,-2.9377,-3.0331,-3.0826,-3.1323,-3.1408,-3.1559,-3.1126,-3.0888,-3.1115,-3.1476,-3.1416,-3.1416,-3.1645,-3.1705,-3.1705,-3.1705,-3.0778,-3.0182,-2.9845,-2.9208,-2.851,-2.851,-2.851,-2.851,-2.851,-2.851,-2.851,-2.8582,-2.9172,-2.9689,-3.0086,-3.0651,-3.1247,-3.1464,-3.1609,-3.1609,-3.1621,-3.1705,-3.1705,-3.1705,-3.1705,-3.1705,-3.1705,-3.1705,-3.1669,-3.1524,-3.1211,-3.0458,-2.9845,-2.9412,-2.8991,-2.8667,-2.851,-2.851,-4.4769,-4.523,-4.5685,-4.5503,-4.4864,-4.424,-4.3631,-4.2861,-4.1831,-4.1613,-4.1889,-4.1482,-4.1671,-4.2092,-4.2092,-4.2092,-4.2092,-4.2092,-4.1265,-4.0126,-3.8929,-3.6893,-3.442,-3.3911,-3.2452,-3.0343,-2.9908,-3.0068,-3.052,-3.1085,-3.1637,-3.2114,-3.2704,-3.2792,-3.239,-3.1813,-3.1235,-3.0771,-3.0256,-2.9905,-2.9817,-2.9754,-2.9277,-2.8473,-2.8134,-2.7708,-2.7027,-2.6763,-2.6751,-2.67,-2.6562,-2.6487,-2.6499,-2.6512,-2.6537,-2.6549,-2.6612,-2.6839,-2.7253,-2.7494,-2.8398,-3.008,-3.0658,-3.1007,-3.169,-3.2025,-3.1951,-3.13,-3.1452,-3.1585,-3.1669,-3.1681,-3.1669,-3.1705,-3.1705,-3.1705,-3.1524,-3.0735,-3.0086,-3.0025,-2.9148,-2.8619,-2.851,-2.851,-2.851,-2.851,-2.851,-2.851,-2.8679,-2.916,-2.9629,-3.0037,-3.0711,-3.1512,-3.1597,-3.1621,-3.1548,-3.1512,-3.1657,-3.1705,-3.1705,-3.1705,-3.1705,-3.1705,-3.1705,-3.1705,-3.1657,-3.1163,-3.0422,-2.9917,-2.9484,-2.8979,-2.8534,-2.8522,-2.851,-4.5261,-4.5745,-4.5835,-4.5503,-4.485,-4.424,-4.3602,-4.2905,-4.2194,-4.1932,-4.2034,-4.1918,-4.1947,-4.2092,-4.2092,-4.2092,-4.2078,-4.2005,-4.1366,-4.0118,-3.9378,-3.7476,-3.5255,-3.4331,-3.2758,-3.0929,-3.0037,-2.9906,-3.0168,-3.0909,-3.1436,-3.1675,-3.2566,-3.3074,-3.2817,-3.2252,-3.1775,-3.1235,-3.0696,-3.0193,-2.988,-2.9792,-2.9453,-2.8725,-2.831,-2.8021,-2.7846,-2.7745,-2.7745,-2.7557,-2.7027,-2.6625,-2.6688,-2.6964,-2.6964,-2.6788,-2.6964,-2.7203,-2.7419,-2.8172,-2.9101,-3.0507,-3.1333,-3.2026,-3.237,-3.2364,-3.2208,-3.1824,-3.1745,-3.1705,-3.1705,-3.1705,-3.1705,-3.1705,-3.1705,-3.1705,-3.1548,-3.0747,-3.0206,-2.9917,-2.9256,-2.8534,-2.8546,-2.8582,-2.857,-2.8534,-2.851,-2.851,-2.8787,-2.9148,-2.9581,-3.0001,-3.0615,-3.1344,-3.1585,-3.1512,-3.132,-3.1296,-3.1452,-3.1693,-3.1693,-3.1705,-3.1705,-3.1705,-3.1705,-3.1681,-3.1585,-3.1175,-3.0501,-3.0001,-2.952,-2.9003,-2.8607,-2.857,-2.851,-4.523,-4.588,-4.588,-4.5343,-4.4501,-4.411,-4.3456,-4.2629,-4.2266,-4.2092,-4.2092,-4.2092,-4.2092,-4.2092,-4.2092,-4.2092,-4.2005,-4.1729,-4.1076,-4.0031,-3.916,-3.7639,-3.5778,-3.4149,-3.2592,-3.0986,-3.0139,-2.983,-3.0068,-3.0783,-3.1386,-3.1486,-3.2516,-3.3074,-3.3036,-3.2528,-3.2089,-3.1675,-3.0997,-3.0457,-3.0218,-2.9905,-2.9515,-2.89,-2.8423,-2.8109,-2.8084,-2.8097,-2.8097,-2.7959,-2.7557,-2.7266,-2.7278,-2.7507,-2.7482,-2.7404,-2.7457,-2.8009,-2.8486,-2.9038,-2.993,-3.1235,-3.1926,-3.2217,-3.2475,-3.2431,-3.2213,-3.1937,-3.1749,-3.1705,-3.1705,-3.1705,-3.1705,-3.1705,-3.1705,-3.1705,-3.1573,-3.0983,-3.0501,-3.0314,-2.9797,-2.9424,-2.9244,-2.8979,-2.8871,-2.8931,-2.8534,-2.8522,-2.8643,-2.9027,-2.9544,-3.0013,-3.053,-3.1036,-3.1428,-3.138,-3.1055,-3.1055,-3.1139,-3.144,-3.1657,-3.1681,-3.1705,-3.1705,-3.1705,-3.1464,-3.1308,-3.0886,-3.0417,-2.9749,-2.922,-2.8883,-2.8655,-2.8558,-2.851,-4.5106,-4.5866,-4.5779,-4.5053,-4.4066,-4.3863,-4.3166,-4.2208,-4.2092,-4.2092,-4.2092,-4.2092,-4.2092,-4.2092,-4.2092,-4.2092,-4.1918,-4.1424,-4.0771,-4.0031,-3.8855,-3.7407,-3.5788,-3.4002,-3.234,-3.0947,-3.0126,-2.9843,-3.0193,-3.0846,-3.1449,-3.1687,-3.2571,-3.3074,-3.2955,-3.2641,-3.2303,-3.2039,-3.1411,-3.0809,-3.0557,-3.0156,-2.9704,-2.9164,-2.8787,-2.8536,-2.8549,-2.8511,-2.8436,-2.836,-2.836,-2.836,-2.8335,-2.8235,-2.8198,-2.8222,-2.8335,-2.8863,-2.9553,-3.003,-3.0708,-3.2114,-3.234,-3.2354,-3.2407,-3.2388,-3.2157,-3.1893,-3.1705,-3.1705,-3.1705,-3.1705,-3.1705,-3.1705,-3.1705,-3.1705,-3.1633,-3.1296,-3.1067,-3.079,-3.023,-2.9821,-2.9677,-2.9496,-2.94,-2.9232,-2.8811,-2.8546,-2.8655,-2.8835,-2.9304,-2.9641,-3.0062,-3.023,-3.0543,-3.15,-3.1151,-3.0862,-3.0922,-3.132,-3.1633,-3.1681,-3.1705,-3.1705,-3.1633,-3.1404,-3.1055,-3.0591,-3.0062,-2.94,-2.8979,-2.8679,-2.857,-2.8522,-2.851,-4.5745,-4.5837,-4.5285,-4.4647,-4.3964,-4.3413,-4.2789,-4.2165,-4.2092,-4.2092,-4.2092,-4.2092,-4.2092,-4.2092,-4.2092,-4.2092,-4.1947,-4.1468,-4.0786,-3.9987,-3.8745,-3.7284,-3.5439,-3.3753,-3.2233,-3.1039,-3.019,-2.9993,-3.0482,-3.1085,-3.1574,-3.2102,-3.2729,-3.3111,-3.3111,-3.2986,-3.2641,-3.2353,-3.1926,-3.1449,-3.0809,-3.0407,-3.0093,-2.9603,-2.9365,-2.9352,-2.9415,-2.9465,-2.9515,-2.9515,-2.9515,-2.9478,-2.934,-2.9013,-2.885,-2.8913,-2.9289,-2.9854,-3.047,-3.0909,-3.1436,-3.2139,-3.2574,-3.2653,-3.2494,-3.2356,-3.2113,-3.1849,-3.1705,-3.1705,-3.1705,-3.1705,-3.1705,-3.1705,-3.1705,-3.1705,-3.1681,-3.156,-3.1356,-3.1067,-3.053,-3.0194,-3.0182,-3.0013,-2.9713,-2.9436,-2.9015,-2.8667,-2.857,-2.8679,-2.8895,-2.9184,-2.9436,-2.9496,-2.9569,-3.0826,-3.1332,-3.085,-3.0843,-3.1392,-3.1633,-3.1681,-3.1705,-3.1705,-3.1573,-3.1344,-3.0891,-3.0362,-2.9809,-2.9208,-2.8847,-2.8522,-2.851,-2.851,-2.851,-4.517,-4.5808,-4.5199,-4.4545,-4.3935,-4.3282,-4.2644,-4.2136,-4.2092,-4.2092,-4.2092,-4.2092,-4.2092,-4.2092,-4.2092,-4.2092,-4.1976,-4.1816,-4.1047,-4.006,-3.8745,-3.7135,-3.5105,-3.339,-3.2367,-3.1334,-3.0457,-3.0093,-3.062,-3.1135,-3.1687,-3.2215,-3.278,-3.3111,-3.3124,-3.3099,-3.296,-3.2629,-3.234,-3.1851,-3.1009,-3.057,-3.003,-2.9892,-2.9792,-2.9779,-2.9779,-2.9779,-2.9779,-2.9767,-2.9767,-2.9779,-2.9779,-2.9842,-2.9753,-2.9892,-3.0306,-3.0859,-3.1323,-3.1725,-3.2064,-3.2579,-3.2845,-3.2711,-3.2475,-3.2269,-3.2025,-3.1805,-3.1705,-3.1705,-3.1705,-3.1705,-3.1705,-3.1705,-3.1705,-3.1749,-3.1705,-3.1705,-3.1536,-3.132,-3.1175,-3.1007,-3.0958,-3.0657,-3.011,-2.9653,-2.9244,-2.8931,-2.8667,-2.8739,-2.8919,-2.9268,-2.9617,-2.9857,-2.9881,-3.0645,-3.1356,-3.0946,-3.0855,-3.1392,-3.1645,-3.1693,-3.1705,-3.1705,-3.1524,-3.1127,-3.0567,-2.9965,-2.9484,-2.9063,-2.8751,-2.851,-2.851,-2.851,-2.851,-4.4456,-4.5634,-4.498,-4.44,-4.3732,-4.3079,-4.2542,-4.2165,-4.2092,-4.2092,-4.2092,-4.2092,-4.2092,-4.2092,-4.2092,-4.2092,-4.2078,-4.1961,-4.1134,-4.0002,-3.8571,-3.6925,-3.4878,-3.3221,-3.1942,-3.1405,-3.047,-3.0261,-3.1063,-3.1279,-3.1738,-3.2378,-3.2918,-3.3124,-3.3124,-3.3124,-3.3124,-3.2973,-3.2654,-3.2127,-3.1436,-3.0457,-2.9867,-2.9905,-2.9867,-2.9779,-2.9779,-2.9779,-2.9779,-2.9779,-2.9804,-2.9854,-3.0018,-3.047,-3.0809,-3.0944,-3.1348,-3.1813,-3.2215,-3.2378,-3.2566,-3.2943,-3.2815,-3.2636,-3.2388,-3.2125,-3.1862,-3.1761,-3.1705,-3.1705,-3.1705,-3.1705,-3.1705,-3.1749,-3.1793,-3.1881,-3.1793,-3.1793,-3.1881,-3.1765,-3.1749,-3.1609,-3.1404,-3.1043,-3.0446,-3.0206,-2.9797,-2.9496,-2.9244,-2.9136,-2.9316,-2.9665,-3.0025,-3.041,-3.0633,-3.0778,-3.1163,-3.097,-3.1067,-3.1476,-3.1621,-3.1705,-3.1681,-3.156,-3.1019,-3.0597,-3.005,-2.9665,-2.9256,-2.8919,-2.8643,-2.851,-2.851,-2.851,-2.851,-4.4298,-4.4951,-4.4356,-4.3718,-4.3094,-4.2498,-4.2194,-4.2107,-4.2092,-4.2092,-4.2092,-4.2092,-4.2092,-4.2092,-4.2092,-4.2092,-4.1932,-4.1512,-4.0902,-3.9929,-3.8368,-3.6427,-3.4262,-3.2814,-3.1853,-3.1334,-3.0356,-3.0879,-3.1637,-3.1635,-3.1993,-3.2742,-3.2968,-3.3124,-3.3124,-3.3124,-3.3124,-3.3099,-3.298,-3.2641,-3.1938,-3.0633,-3.0256,-3.0281,-3.0118,-2.9905,-2.993,-2.9917,-2.9842,-2.9905,-2.9854,-3.0055,-3.0495,-3.1009,-3.1537,-3.1863,-3.2139,-3.2365,-3.2835,-3.2923,-3.2893,-3.3056,-3.284,-3.2636,-3.2288,-3.1981,-3.1761,-3.1717,-3.1705,-3.1705,-3.1705,-3.1705,-3.1705,-3.1837,-3.2001,-3.1969,-3.1881,-3.1837,-3.1925,-3.1837,-3.1705,-3.1705,-3.1609,-3.1223,-3.0807,-3.0615,-3.0374,-3.0062,-2.9785,-2.9629,-2.9725,-3.0074,-3.0326,-3.073,-3.1043,-3.1223,-3.1211,-3.1055,-3.1259,-3.1548,-3.1621,-3.1669,-3.1464,-3.1247,-3.0706,-3.0344,-3.0037,-2.9653,-2.9136,-2.8799,-2.857,-2.851,-2.851,-2.851,-2.851,-4.3412,-4.4835,-4.4226,-4.3602,-4.2948,-4.2353,-4.2092,-4.2092,-4.2092,-4.2092,-4.2092,-4.2092,-4.2092,-4.2092,-4.2092,-4.2092,-4.1932,-4.1395,-4.0742,-3.9973,-3.8422,-3.6452,-3.4471,-3.3418,-3.2641,-3.1163,-3.1008,-3.1448,-3.2082,-3.1975,-3.1964,-3.296,-3.3124,-3.3124,-3.3124,-3.3124,-3.3124,-3.3023,-3.2754,-3.2478,-3.2014,-3.1298,-3.0796,-3.1009,-3.052,-3.0444,-3.0482,-3.003,-3.0193,-3.0419,-3.0482,-3.052,-3.1035,-3.1537,-3.2001,-3.2152,-3.2541,-3.2805,-3.3061,-3.3111,-3.3124,-3.2995,-3.2723,-3.2388,-3.2069,-3.1849,-3.1705,-3.1705,-3.1705,-3.1705,-3.1705,-3.1705,-3.1705,-3.1837,-3.2089,-3.1969,-3.1893,-3.1925,-3.1881,-3.1793,-3.1705,-3.1705,-3.1705,-3.1512,-3.1175,-3.0879,-3.0699,-3.047,-3.0182,-2.9941,-3.0146,-3.0506,-3.0742,-3.0946,-3.1259,-3.15,-3.1512,-3.1428,-3.1428,-3.1645,-3.1669,-3.1621,-3.1452,-3.1151,-3.0706,-3.0392,-3.0116,-2.9472,-2.8811,-2.8631,-2.8522,-2.851,-2.851,-2.851,-2.851,-4.2486,-4.3992,-4.3835,-4.3369,-4.2745,-4.2281,-4.2092,-4.2092,-4.2092,-4.2092,-4.2092,-4.2092,-4.2092,-4.2092,-4.2092,-4.2092,-4.2034,-4.1395,-4.0873,-4.0046,-3.8746,-3.6717,-3.4978,-3.409,-3.296,-3.0921,-3.1355,-3.1941,-3.2146,-3.2102,-3.2152,-3.3086,-3.3124,-3.3124,-3.3124,-3.3124,-3.3124,-3.3086,-3.2541,-3.2365,-3.229,-3.1725,-3.1512,-3.1386,-3.1173,-3.0984,-3.1185,-3.0746,-3.0771,-3.1035,-3.1009,-3.1047,-3.1587,-3.1926,-3.2277,-3.2491,-3.2885,-3.3048,-3.3111,-3.3124,-3.3068,-3.2853,-3.2593,-3.2157,-3.1849,-3.1705,-3.1705,-3.1705,-3.1705,-3.1705,-3.1705,-3.1705,-3.1705,-3.1793,-3.1969,-3.1837,-3.1793,-3.1969,-3.1969,-3.1749,-3.1705,-3.1705,-3.1705,-3.1705,-3.1512,-3.1223,-3.1031,-3.0886,-3.0663,-3.0434,-3.0651,-3.1055,-3.1139,-3.1271,-3.1428,-3.1657,-3.1693,-3.1705,-3.1705,-3.1705,-3.1705,-3.1657,-3.1536,-3.1163,-3.0718,-3.017,-2.9773,-2.9112,-2.851,-2.851,-2.851,-2.851,-2.851,-2.851,-2.851,-4.1787,-4.1904,-4.2725,-4.2674,-4.2138,-4.2121,-4.2092,-4.2092,-4.2092,-4.2092,-4.2092,-4.2092,-4.2092,-4.2092,-4.2092,-4.2092,-4.2063,-4.1395,-4.1062,-4.0365,-3.9059,-3.7029,-3.5412,-3.4232,-3.3179,-3.1241,-3.16,-3.224,-3.2394,-3.2349,-3.255,-3.298,-3.3111,-3.3124,-3.3124,-3.3124,-3.3124,-3.3036,-3.2579,-3.2566,-3.2541,-3.2164,-3.1775,-3.1964,-3.1662,-3.1361,-3.1399,-3.121,-3.1298,-3.1549,-3.1436,-3.1612,-3.2089,-3.2265,-3.2541,-3.283,-3.3011,-3.3124,-3.3124,-3.3081,-3.2982,-3.2667,-3.2332,-3.1981,-3.1761,-3.1705,-3.1705,-3.1705,-3.1705,-3.1705,-3.1705,-3.1705,-3.1705,-3.1793,-3.1881,-3.1881,-3.1925,-3.2145,-3.2101,-3.1837,-3.1705,-3.1705,-3.1705,-3.1705,-3.1705,-3.144,-3.1428,-3.1284,-3.1368,-3.1235,-3.1344,-3.1536,-3.1573,-3.1621,-3.1633,-3.1705,-3.1705,-3.1705,-3.1705,-3.1705,-3.1705,-3.1645,-3.1597,-3.1175,-3.0663,-3.0062,-2.9472,-2.8955,-2.8595,-2.8534,-2.851,-2.851,-2.851,-2.851,-2.851,-4.0158,-4.0649,-4.1267,-4.1412,-4.124,-4.1856,-4.2092,-4.2092,-4.2092,-4.2092,-4.2092,-4.2092,-4.2092,-4.2092,-4.2092,-4.2092,-4.199,-4.1395,-4.1192,-4.0626,-3.9411,-3.7384,-3.5861,-3.4789,-3.378,-3.1402,-3.1822,-3.2333,-3.1858,-3.2407,-3.2814,-3.3074,-3.3124,-3.3124,-3.3124,-3.3124,-3.3124,-3.3086,-3.288,-3.2905,-3.288,-3.2792,-3.2541,-3.2654,-3.219,-3.2139,-3.2277,-3.17,-3.1901,-3.2114,-3.2039,-3.2265,-3.2579,-3.2667,-3.2817,-3.3086,-3.3124,-3.3081,-3.3081,-3.3081,-3.2939,-3.2562,-3.2213,-3.195,-3.1761,-3.1705,-3.1705,-3.1705,-3.1705,-3.1705,-3.1705,-3.1705,-3.1705,-3.1793,-3.1837,-3.1881,-3.1969,-3.2145,-3.2145,-3.1749,-3.1705,-3.1705,-3.1705,-3.1705,-3.1705,-3.1681,-3.1705,-3.1705,-3.1705,-3.1705,-3.1705,-3.1705,-3.1705,-3.1705,-3.1705,-3.1705,-3.1705,-3.1705,-3.1705,-3.1705,-3.1705,-3.1705,-3.1585,-3.1163,-3.0699,-3.0158,-2.9581,-2.8979,-2.8667,-2.8546,-2.851,-2.851,-2.851,-2.851,-2.851,-3.9051,-3.978,-4.0383,-4.0774,-4.1113,-4.1814,-4.2092,-4.2092,-4.2092,-4.2092,-4.2092,-4.2092,-4.2092,-4.2092,-4.2092,-4.2092,-4.199,-4.1671,-4.1482,-4.0931,-3.9917,-3.7969,-3.6531,-3.5232,-3.397,-3.1562,-3.1941,-3.2659,-3.1861,-3.2671,-3.3011,-3.3111,-3.3124,-3.3124,-3.3124,-3.3124,-3.3124,-3.3124,-3.3124,-3.3124,-3.3068,-3.3086,-3.3061,-3.3061,-3.2641,-3.2641,-3.2729,-3.2403,-3.242,-3.2641,-3.2729,-3.2717,-3.296,-3.3124,-3.3124,-3.3124,-3.3124,-3.3081,-3.3038,-3.2939,-3.281,-3.2475,-3.2169,-3.195,-3.1805,-3.1761,-3.1705,-3.1705,-3.1705,-3.1705,-3.1705,-3.1705,-3.1705,-3.1749,-3.1749,-3.1793,-3.1793,-3.1881,-3.1837,-3.1705,-3.1705,-3.1705,-3.1705,-3.1705,-3.1705,-3.1705,-3.1705,-3.1705,-3.1705,-3.1705,-3.1705,-3.1705,-3.1705,-3.1705,-3.1705,-3.1705,-3.1705,-3.1705,-3.1705,-3.1705,-3.1705,-3.1705,-3.1681,-3.144,-3.0927,-3.0314,-2.9701,-2.91,-2.8763,-2.8522,-2.851,-2.851,-2.851,-2.851,-2.851,-3.8767,-3.9326,-4.0173,-4.1113,-4.1814,-4.2051,-4.2092,-4.2092,-4.2092,-4.2092,-4.2092,-4.2092,-4.2092,-4.2092,-4.2092,-4.2092,-4.2092,-4.2005,-4.1961,-4.1599,-4.047,-3.88,-3.7256,-3.5737,-3.4231,-3.2418,-3.2463,-3.2717,-3.2139,-3.2742,-3.3074,-3.3124,-3.3124,-3.3124,-3.3124,-3.3124,-3.3124,-3.3124,-3.3124,-3.3124,-3.3124,-3.3124,-3.3124,-3.3086,-3.2993,-3.3036,-3.2943,-3.2905,-3.2898,-3.2998,-3.3048,-3.3023,-3.3099,-3.3124,-3.3124,-3.3124,-3.3124,-3.2995,-3.2766,-3.2711,-3.2636,-3.2444,-3.2169,-3.1994,-3.1937,-3.1849,-3.1705,-3.1705,-3.1705,-3.1705,-3.1705,-3.1705,-3.1705,-3.1705,-3.1705,-3.1705,-3.1705,-3.1705,-3.1705,-3.1705,-3.1705,-3.1705,-3.1705,-3.1705,-3.1705,-3.1705,-3.1705,-3.1705,-3.1705,-3.1705,-3.1705,-3.1705,-3.1705,-3.1705,-3.1705,-3.1705,-3.1705,-3.1705,-3.1705,-3.1705,-3.1705,-3.1705,-3.1669,-3.1621,-3.0975,-3.0194,-2.9701,-2.9232,-2.8859,-2.851,-2.851,-2.851,-2.851,-2.851,-2.851,-3.7562,-3.8373,-3.9285,-4.0216,-4.117,-4.1814,-4.2092,-4.2092,-4.2092,-4.2092,-4.2092,-4.2092,-4.2092,-4.2092,-4.2092,-4.2092,-4.2092,-4.2092,-4.2092,-4.1918,-4.0757,-3.9255,-3.771,-3.6203,-3.4533,-3.3066,-3.2841,-3.2667,-3.219,-3.2792,-3.3074,-3.3124,-3.3124,-3.3124,-3.3124,-3.3124,-3.3124,-3.3124,-3.3124,-3.3124,-3.3124,-3.3124,-3.3124,-3.3124,-3.3124,-3.3124,-3.3124,-3.3124,-3.3124,-3.3124,-3.3124,-3.3124,-3.3124,-3.3124,-3.3124,-3.3124,-3.3068,-3.2995,-3.2853,-3.2797,-3.2779,-3.2475,-3.2213,-3.1994,-3.1805,-3.1761,-3.1705,-3.1681,-3.1645,-3.1645,-3.1705,-3.1705,-3.1705,-3.1705,-3.1705,-3.1705,-3.1705,-3.1705,-3.1705,-3.1705,-3.1705,-3.1705,-3.1705,-3.1705,-3.1705,-3.1705,-3.1705,-3.1705,-3.1705,-3.1705,-3.1705,-3.1705,-3.1705,-3.1705,-3.1705,-3.1705,-3.1705,-3.1705,-3.1705,-3.1705,-3.1705,-3.1617,-3.1649,-3.1613,-3.0831,-3.005,-2.9581,-2.9136,-2.8763,-2.851,-2.851,-2.851,-2.851,-2.851,-2.851,-3.6989,-3.8192,-3.8899,-3.9956,-4.1113,-4.1814,-4.2092,-4.2092,-4.2092,-4.2092,-4.2092,-4.2092,-4.2092,-4.2092,-4.2092,-4.2092,-4.2092,-4.2092,-4.2092,-4.1932,-4.1004,-3.9726,-3.8357,-3.6696,-3.5089,-3.3688,-3.299,-3.267,-3.2596,-3.2893,-3.3099,-3.3124,-3.3124,-3.3124,-3.3124,-3.3124,-3.3124,-3.3124,-3.3124,-3.3124,-3.3124,-3.3124,-3.3124,-3.3124,-3.3124,-3.3124,-3.3124,-3.3124,-3.3124,-3.3124,-3.3124,-3.3124,-3.3124,-3.3124,-3.3124,-3.3124,-3.2982,-3.2952,-3.2939,-3.2736,-3.2649,-3.2431,-3.2213,-3.2025,-3.1777,-3.1556,-3.1416,-3.1404,-3.144,-3.1428,-3.1416,-3.1452,-3.1657,-3.1657,-3.1693,-3.1693,-3.1705,-3.1705,-3.1705,-3.1705,-3.1705,-3.1705,-3.1705,-3.1705,-3.1705,-3.1705,-3.1705,-3.1705,-3.1705,-3.1705,-3.1705,-3.1705,-3.1705,-3.1705,-3.1705,-3.1705,-3.1705,-3.1705,-3.1661,-3.1572,-3.1472,-3.1339,-3.1472,-3.1396,-3.0312,-2.9545,-2.9325,-2.9015,-2.8667,-2.851,-2.851,-2.851,-2.851,-2.8431,-2.8391,-3.7116,-3.868,-3.9064,-4.0244,-4.1814,-4.2009,-4.2092,-4.2092,-4.2092,-4.2092,-4.2092,-4.2092,-4.2092,-4.2092,-4.2092,-4.2092,-4.2092,-4.2092,-4.2092,-4.1831,-4.1105,-4.0087,-3.8617,-3.6849,-3.5474,-3.4353,-3.3489,-3.2942,-3.3091,-3.3099,-3.3111,-3.3124,-3.3124,-3.3124,-3.3124,-3.3124,-3.3124,-3.3124,-3.3124,-3.3124,-3.3124,-3.3124,-3.3124,-3.3124,-3.3124,-3.3124,-3.3124,-3.3124,-3.3124,-3.3124,-3.3124,-3.3124,-3.3124,-3.3124,-3.3124,-3.3038,-3.2853,-3.2952,-3.2909,-3.2705,-3.2364,-3.2185,-3.2178,-3.2152,-3.1775,-3.1219,-3.0946,-3.0898,-3.0898,-3.0898,-3.0898,-3.1235,-3.156,-3.1609,-3.1657,-3.1681,-3.1705,-3.1705,-3.1705,-3.1705,-3.1705,-3.1705,-3.1705,-3.1705,-3.1705,-3.1705,-3.1705,-3.1705,-3.1705,-3.1705,-3.1705,-3.1705,-3.1705,-3.1705,-3.1705,-3.1705,-3.1705,-3.1705,-3.1383,-3.1238,-3.1149,-3.0968,-3.0897,-3.0481,-2.9584,-2.9005,-2.8927,-2.8799,-2.8595,-2.8471,-2.8351,-2.8391,-2.8351,-2.8179,-2.8139,-3.6803,-3.8147,-3.8899,-3.9899,-4.1071,-4.1814,-4.2092,-4.2092,-4.2092,-4.2092,-4.2092,-4.2092,-4.2092,-4.2092,-4.2092,-4.2092,-4.2092,-4.2092,-4.2092,-4.17,-4.096,-3.9949,-3.8512,-3.6887,-3.5762,-3.4833,-3.3916,-3.3098,-3.3632,-3.3496,-3.3124,-3.3124,-3.3124,-3.3124,-3.3124,-3.3124,-3.3124,-3.3124,-3.3124,-3.3124,-3.3124,-3.3124,-3.3124,-3.3124,-3.3124,-3.3124,-3.3124,-3.3124,-3.3124,-3.3124,-3.3124,-3.3124,-3.3124,-3.3124,-3.3124,-3.3068,-3.2982,-3.2995,-3.2865,-3.268,-3.2302,-3.1767,-3.1559,-3.1442,-3.1124,-3.0748,-3.0326,-3.0314,-3.0356,-3.0314,-3.0477,-3.0778,-3.1127,-3.1308,-3.1428,-3.1597,-3.1633,-3.1705,-3.1705,-3.1705,-3.1705,-3.1705,-3.1705,-3.1705,-3.1705,-3.1705,-3.1705,-3.1705,-3.1705,-3.1705,-3.1705,-3.1705,-3.1705,-3.1705,-3.1661,-3.1661,-3.1661,-3.1661,-3.1104,-3.0633,-3.0498,-3.0293,-3.0199,-2.9737,-2.9043,-2.8714,-2.8606,-2.8443,-2.8219,-2.8139,-2.8018,-2.8139,-2.8179,-2.7794,-2.7551,-3.6849,-3.8192,-3.8899,-3.9956,-4.117,-4.1856,-4.2092,-4.2092,-4.2092,-4.2092,-4.2092,-4.2092,-4.2092,-4.2092,-4.2092,-4.2092,-4.2078,-4.1744,-4.1642,-4.1352,-4.0528,-3.9502,-3.8185,-3.6838,-3.5778,-3.4878,-3.405,-3.3232,-3.3696,-3.3539,-3.3124,-3.3124,-3.3124,-3.3124,-3.3124,-3.3124,-3.3124,-3.3124,-3.3124,-3.3124,-3.3124,-3.3124,-3.3124,-3.3124,-3.3124,-3.3124,-3.3124,-3.3124,-3.3124,-3.3124,-3.3124,-3.3124,-3.3124,-3.3124,-3.3124,-3.3124,-3.3081,-3.2939,-3.2729,-3.2376,-3.1872,-3.1315,-3.081,-3.0482,-3.0272,-2.9929,-2.9821,-2.9773,-2.9773,-2.9821,-3.0043,-3.026,-3.0597,-3.0922,-3.1187,-3.1464,-3.1585,-3.1693,-3.1705,-3.1705,-3.1705,-3.1705,-3.1705,-3.1705,-3.1705,-3.1705,-3.1705,-3.1705,-3.1705,-3.1705,-3.1705,-3.1705,-3.1705,-3.1705,-3.1617,-3.1339,-3.1104,-3.0779,-3.0125,-2.9749,-2.9647,-2.9455,-2.9173,-2.8942,-2.8653,-2.8214,-2.7702,-2.7869,-2.7765,-2.7603,-2.7255,-2.704,-2.6958,-2.6835,-2.6629,-3.7088,-3.8803,-3.9061,-4.008,-4.1711,-4.1681,-4.1763,-4.1961,-4.1903,-4.2049,-4.2078,-4.2092,-4.2092,-4.2092,-4.2092,-4.199,-4.1802,-4.1439,-4.1149,-4.0934,-3.9996,-3.8945,-3.7805,-3.6757,-3.5449,-3.4434,-3.3654,-3.321,-3.3124,-3.3124,-3.3124,-3.3124,-3.3124,-3.3124,-3.3124,-3.3124,-3.3124,-3.3124,-3.3124,-3.3124,-3.3124,-3.3124,-3.3124,-3.3124,-3.3124,-3.3124,-3.3124,-3.3124,-3.3124,-3.3124,-3.3124,-3.3124,-3.3124,-3.2943,-3.2955,-3.2948,-3.2872,-3.2664,-3.2381,-3.1974,-3.1466,-3.0868,-3.0231,-2.9808,-2.9552,-2.9439,-2.9325,-2.9232,-2.9232,-2.9232,-2.9376,-2.9917,-3.035,-3.0754,-3.1079,-3.1392,-3.1645,-3.1705,-3.1705,-3.1705,-3.1705,-3.1705,-3.1617,-3.1572,-3.1104,-3.1383,-3.1149,-3.1104,-3.1339,-3.1339,-3.1516,-3.1528,-3.1661,-3.1572,-3.1149,-3.0824,-3.0351,-2.9886,-2.9143,-2.8773,-2.8634,-2.8416,-2.8143,-2.79,-2.7646,-2.7032,-2.6617,-2.685,-2.6876,-2.6494,-2.6163,-2.5819,-2.5694,-2.5663,-2.5663,-3.6875,-3.8727,-3.888,-3.9296,-3.9653,-3.9694,-4.0075,-4.0626,-4.1134,-4.1613,-4.202,-4.2078,-4.2092,-4.2092,-4.202,-4.1831,-4.1366,-4.0902,-4.0742,-3.9928,-3.9018,-3.7824,-3.6797,-3.568,-3.4805,-3.4295,-3.3654,-3.3124,-3.3124,-3.3124,-3.3124,-3.3124,-3.3124,-3.3124,-3.3124,-3.3124,-3.3124,-3.3124,-3.3124,-3.3124,-3.3124,-3.3124,-3.3124,-3.3124,-3.3124,-3.3124,-3.3124,-3.3124,-3.3124,-3.3124,-3.3124,-3.3124,-3.3124,-3.2654,-3.2679,-3.283,-3.2315,-3.2114,-3.1896,-3.1509,-3.0988,-3.0454,-2.9919,-2.9468,-2.9168,-2.9019,-2.8891,-2.8783,-2.8727,-2.8727,-2.8919,-2.9569,-3.0158,-3.0543,-3.0983,-3.1332,-3.1669,-3.1705,-3.1705,-3.1705,-3.1705,-3.1661,-3.1572,-3.1193,-3.0734,-3.0215,-2.9601,-2.951,-3.0068,-3.0351,-3.0913,-3.1059,-3.1472,-3.1383,-3.0824,-3.0079,-2.9464,-2.8866,-2.8168,-2.784,-2.7605,-2.7132,-2.6739,-2.6758,-2.6534,-2.5986,-2.5749,-2.5999,-2.5913,-2.54,-2.5105,-2.4861,-2.4573,-2.4488,-2.4531,-3.6131,-3.7574,-3.8545,-3.909,-3.9373,-3.9413,-3.9507,-3.9685,-4.0336,-4.0816,-4.1189,-4.1711,-4.2092,-4.199,-4.1802,-4.1485,-4.0876,-4.0089,-3.9293,-3.8492,-3.7749,-3.6353,-3.5318,-3.4686,-3.4212,-3.3781,-3.3454,-3.3124,-3.3124,-3.3124,-3.3124,-3.3124,-3.3124,-3.3124,-3.3124,-3.3124,-3.3124,-3.3124,-3.3124,-3.3124,-3.3124,-3.3124,-3.3124,-3.3124,-3.3124,-3.3124,-3.3124,-3.3124,-3.3124,-3.2998,-3.283,-3.2667,-3.2516,-3.2139,-3.2039,-3.2051,-3.1825,-3.1455,-3.1365,-3.1046,-3.0505,-3.0059,-2.9702,-2.9327,-2.9013,-2.8889,-2.8821,-2.8714,-2.8595,-2.8607,-2.8751,-2.9268,-2.9797,-3.023,-3.0778,-3.1223,-3.1524,-3.1705,-3.1705,-3.1705,-3.1705,-3.1705,-3.1472,-3.0869,-3.0453,-3.0306,-2.951,-2.9235,-2.9555,-2.928,-2.9886,-3.026,-3.0498,-3.0407,-2.9704,-2.9004,-2.8402,-2.7793,-2.7247,-2.7158,-2.696,-2.591,-2.5279,-2.5604,-2.5561,-2.4987,-2.4872,-2.5073,-2.4776,-2.4274,-2.4059,-2.3897,-2.3647,-2.357,-2.3734,-3.5223,-3.6267,-3.791,-3.8916,-3.9474,-3.9445,-3.9033,-3.866,-3.943,-3.9762,-3.9953,-4.1175,-4.174,-4.1681,-4.1261,-4.0987,-4.0383,-3.9201,-3.8057,-3.7303,-3.6662,-3.5649,-3.4847,-3.4134,-3.3817,-3.3496,-3.3167,-3.3124,-3.3124,-3.3124,-3.3124,-3.3124,-3.3124,-3.3124,-3.3124,-3.3124,-3.3124,-3.3124,-3.3124,-3.3124,-3.3124,-3.3124,-3.3124,-3.3124,-3.3124,-3.3124,-3.3124,-3.3124,-3.3124,-3.288,-3.2616,-3.2403,-3.2064,-3.1712,-3.1537,-3.1449,-3.121,-3.1041,-3.0957,-3.0568,-3.0211,-2.9896,-2.9578,-2.9287,-2.9,-2.8855,-2.8776,-2.8669,-2.855,-2.8631,-2.8787,-2.9148,-2.9677,-3.0194,-3.0766,-3.1199,-3.1476,-3.1705,-3.1705,-3.1705,-3.1661,-3.1661,-3.1104,-3.0543,-3.0079,-2.9977,-2.9841,-2.9886,-2.9612,-2.8784,-2.8598,-2.8784,-2.883,-2.8645,-2.8448,-2.8168,-2.7615,-2.702,-2.6552,-2.6529,-2.6219,-2.5231,-2.4676,-2.4889,-2.4699,-2.4181,-2.394,-2.4026,-2.3647,-2.343,-2.343,-2.3474,-2.3396,-2.3266,-2.3222,-3.4936,-3.5805,-3.6879,-3.7012,-3.66,-3.6546,-3.6372,-3.6522,-3.777,-3.8585,-3.914,-3.9731,-4.0392,-4.0831,-4.0293,-3.988,-3.9278,-3.8132,-3.7561,-3.6936,-3.6164,-3.5316,-3.4587,-3.4007,-3.3771,-3.3411,-3.3124,-3.3124,-3.3124,-3.3124,-3.3124,-3.3124,-3.3124,-3.3124,-3.3124,-3.3124,-3.3124,-3.3124,-3.3124,-3.3124,-3.3124,-3.3124,-3.3124,-3.3124,-3.3124,-3.3124,-3.3124,-3.3124,-3.3124,-3.2948,-3.2516,-3.2227,-3.1825,-3.1323,-3.1009,-3.0922,-3.0658,-3.053,-3.039,-3.0175,-2.9895,-2.9859,-2.9534,-2.9314,-2.904,-2.8882,-2.8776,-2.8602,-2.8595,-2.8823,-2.9063,-2.9641,-3.017,-3.0718,-3.1235,-3.1428,-3.1657,-3.1705,-3.1705,-3.1661,-3.1572,-3.1193,-3.0543,-2.9749,-2.8727,-2.8402,-2.7662,-2.7804,-2.8773,-2.8132,-2.7494,-2.7484,-2.7531,-2.7342,-2.7284,-2.7426,-2.701,-2.638,-2.5876,-2.5823,-2.5444,-2.4536,-2.4167,-2.4381,-2.4023,-2.3489,-2.3309,-2.344,-2.3353,-2.3222,-2.3178,-2.3135,-2.3091,-2.3101,-2.3101]},{"header":{"parameterUnit":"m.s-1","parameterCategory":1,"la1":31.0,"la2":29.5877,"lo1":-88.7671,"lo2":-86.6584,"dy":0.0162,"dx":0.0185,"nx":115,"ny":88,"refTime":"2024-07-26T12:00:00:Z","depth":0,"parameterNumber":3,"parameterNumberName":"V-component_of_WINDS"},"data":[0.0,0.0,0.0,0.0,0.0,0.0,0.0,0.0,0.0,0.0,0.0,0.0,0.0,0.0,0.0,0.0,0.0,0.0,0.0,0.0,0.0,0.0,0.0,0.0,0.0,0.0,0.0,0.0,0.0,0.0,0.0,0.0,0.0,0.0,0.0,0.0,0.0,0.0,0.0,0.0,0.0,0.0,0.0,0.0,0.0,0.0,0.0,0.0,0.0,0.0,0.0,0.0,0.0,0.0,0.0,0.0,0.0,0.0,0.0,0.0,0.0,0.0,0.0,0.0,0.0,0.0,0.0,0.0,0.0,0.0,0.0,0.0,0.0,0.0,0.0,0.0,0.0,0.0,0.0,0.0,0.0,0.0,0.0,0.0,0.0,0.0,0.0,0.0,0.0,0.0,0.0,0.0,0.0,0.0,0.0,0.0,0.0,0.0,0.0,0.0,0.0,0.0,0.0,0.0,0.0,0.0,0.0,0.0,0.0,0.0,0.0,0.0,0.0,0.0,0.0,0.0,0.0,0.0,0.0,0.0,0.0,0.0,0.0,0.0,0.0,0.0,0.0,0.0,0.0,0.0,0.0,0.0,0.0,0.0,0.0,0.0,0.0,0.0,0.0,0.0,0.0,0.0,0.0,0.0,0.0,0.0,0.0,0.0,0.0,0.0,0.0,0.0,0.0,0.0,0.0,0.0,0.0,0.0,0.0,0.0,0.0,0.0,0.0,0.0,0.0,0.0,0.0,0.0,0.0,0.0,0.0,0.0,0.0,0.0,0.0,0.0,0.0,0.0,0.0,0.0,0.0,0.0,0.0,0.0,0.0,0.0,0.0,0.0,0.0,0.0,0.0,0.0,0.0,0.0,0.0,0.0,0.0,0.0,0.0,0.0,0.0,0.0,0.0,0.0,0.0,0.0,0.0,0.0,0.0,0.0,0.0,0.0,0.0,0.0,0.0,0.0,0.0,0.0,0.0,0.0,0.0,0.0,0.0,0.0,0.0,0.0,0.0,0.0,0.0,0.0,0.0,0.0,0.0,0.0,0.0,0.0,0.0,0.0,0.0,0.0,0.0,0.0,0.0,0.0,0.0,0.0,0.0,0.0,0.0,0.0,0.0,0.0,0.0,0.0,0.0,0.0,0.0,0.0,0.0,0.0,0.0,0.0,0.0,0.0,0.0,0.0,0.0,0.0,0.0,0.0,0.0,0.0,0.0,0.0,0.0,0.0,0.0,0.0,0.0,0.0,0.0,0.0,0.0,0.0,0.0,0.0,0.0,0.0,0.0,0.0,0.0,0.0,0.0,0.0,0.0,0.0,0.0,0.0,0.0,0.0,0.0,0.0,0.0,0.0,0.0,0.0,0.0,0.0,0.0,0.0,0.0,0.0,0.0,0.0,0.0,0.0,0.0,0.0,0.0,0.0,0.0,0.0,0.0,0.0,0.0,0.0,0.0,0.0,0.0,0.0,0.0,0.0,0.0,0.0,0.0,0.0,0.0,0.0,0.0,0.0,0.0,0.0,0.0,0.0,0.0,0.0,0.0,0.0,0.0,0.0,0.0,0.0,0.0,0.0,0.0,0.0,0.0,0.0,0.0,0.0,0.0,0.0,0.0,0.0,0.0,0.0,0.0,0.0,0.0,0.0,0.0,0.0,0.0,0.0,0.0,0.0,0.0,0.0,0.0,0.0,0.0,0.0,0.0,0.0,0.0,0.0,0.0,0.0,0.0,0.0,0.0,0.0,0.0,0.0,0.0,0.0,0.0,0.0,0.0,0.0,0.0,0.0,0.0,0.0,0.0,0.0,0.0,0.0,0.0,0.0,0.0,0.0,0.0,0.0,0.0,0.0,0.0,0.0,0.0,0.0,0.0,0.0,0.0,0.0,0.0,0.0,0.0,0.0,0.0,0.0,0.0,0.0,0.0,0.0,0.0,0.0,0.0,0.0,0.0,0.0,0.0,0.0,0.0,0.0,0.0,0.0,0.0,0.0,0.0,0.0,0.0,0.0,0.0,0.0,0.0,0.0,0.0,0.0,0.0,0.0,0.0,0.0,0.0,0.0,0.0,0.0,0.0,0.0,0.0,0.0,0.0,0.0,0.0,0.0,0.0,0.0,0.0,0.0,0.0,0.0,0.0,0.0,0.0,0.0,0.0,0.0,0.0,0.0,0.0,0.0,0.0,0.0,0.0,0.0,0.0,0.0,0.0,0.0,0.0,0.0,0.0,0.0,0.0,0.0,0.0,0.0,0.0,0.0,0.0,0.0,0.0,0.0,0.0,0.0,0.0,0.0,0.0,0.0,0.0,0.0,0.0,0.0,0.0,0.0,0.0,0.0,0.0,0.0,0.0,0.0,0.0,0.0,0.0,0.0,0.0,0.0,0.0,0.0,0.0,0.0,0.0,0.0,0.0,0.0,0.0,0.0,0.0,0.0,0.0,0.0,0.0,0.0,0.0,0.0,0.0,0.0,0.0,0.0,0.0,0.0,0.0,0.0,0.0,0.0,0.0,0.0,0.0,0.0,0.0,0.0,0.0,0.0,0.0,0.0,0.0,0.0,0.0,0.0,0.0,0.0,0.0,0.0,0.0,0.0,0.0,0.0,0.0,0.0,0.0,0.0,0.0,0.0,0.0,0.0,0.0,0.0,0.0,0.0,0.0,0.0,0.0,0.0,0.0,0.0,0.0,0.0,0.0,0.0,0.0,0.0,0.0,0.0,0.0,0.0,0.0,0.0,0.0,0.0,0.0,0.0,0.0,0.0,0.0,0.0,0.0,0.0,0.0,0.0,0.0,0.0,0.0,0.0,0.0,0.0,0.0,0.0,0.0,0.0,0.0,0.0,0.0,0.0,0.0,0.0,0.0,0.0,0.0,0.0,0.0,0.0,0.0,0.0,0.0,0.0,0.0,0.0,0.0,0.0,0.0,0.0,0.0,0.0,0.0,0.0,0.0,0.0,0.0,0.0,0.0,0.0,0.0,0.0,0.0,0.0,0.0,0.0,0.0,0.0,0.0,0.0,0.0,0.0,0.0,0.0,0.0,0.0,0.0,0.0,0.0,0.0,0.0,0.0,0.0,0.0,0.0,0.0,0.0,0.0,0.0,0.0,0.0,0.0,0.0,0.0,0.0,0.0,0.0,0.0,0.0,0.0,0.0,0.0,0.0,0.0,0.0,0.0,0.0,0.0,0.0,0.0,0.0,0.0,0.0,0.0,0.0,0.0,0.0,0.0,0.0,0.0,0.0,0.0,0.0,0.0,0.0,0.0,0.0,0.0,0.0,0.0,0.0,0.0,0.0,0.0,0.0,0.0,0.0,0.0,0.0,0.0,0.0,0.0,0.0,0.0,0.0,0.0,0.0,0.0,0.0,0.0,0.0,0.0,0.0,0.0,0.0,0.0,0.0,0.0,0.0,0.0,0.0,0.0,0.0,0.0,0.0,0.0,0.0,0.0,0.0,0.0,0.0,0.0,0.0,0.0,0.0,0.0,0.0,0.0,0.0,0.0,0.0,0.0,0.0,0.0,0.0,0.0,0.0,0.0,0.0,0.0,0.0,0.0,0.0,0.0,0.0,0.0,0.0,0.0,0.0,0.0,0.0,0.0,0.0,0.0,0.0,0.0,0.0,0.0,0.0,0.0,0.0,0.0,0.0,0.0,0.0,0.0,0.0,0.0,0.0,0.0,0.0,0.0,0.0,0.0,0.0,0.0,0.0,0.0,0.0,0.0,0.0,0.0,0.0,0.0,0.0,0.0,0.0,0.0,0.0,0.0,0.0,0.0,0.0,0.0,0.0,0.0,0.0,0.0,0.0,0.0,0.0,0.0,0.0,0.0,0.0,0.0,0.0,0.0,0.0,0.0,0.0,0.0,0.0,0.0,0.0,0.0,0.0,0.0,0.0,0.0,0.0,0.0,0.0,0.0,0.0,0.0,0.0,0.0,0.0,0.0,0.0,0.0,0.0,0.0,0.0,0.0,0.0,0.0,0.0,0.0,0.0,0.0,0.0,0.0,0.0,0.0,0.0,0.0,0.0,0.0,0.0,0.0,0.0,0.0,0.0,0.0,0.0,0.0,0.0,0.0,0.0,0.0,0.0,0.0,0.0,0.0,0.0,0.0,0.0,0.0,0.0,0.0,0.0,0.0,0.0,0.0,0.0,0.0,0.0,0.0,0.0,0.0,0.0,0.0,0.0,0.0,0.0,0.0,0.0,0.0,0.0,0.0,0.0,0.0,0.0,0.0,0.0,0.0,0.0,0.0,0.0,0.0,0.0,0.0,0.0,0.0,-0.3852,0.0,0.0,0.0,0.0,0.0,0.0,0.0,0.0,0.0,0.0,0.0,0.0,0.0,0.0,0.0,0.0,0.0,0.0,0.0,0.0,0.0,0.0,0.0,0.0,0.0,0.0,0.0,0.0,0.0,0.0,0.0,0.0,0.0,0.0,0.0,0.0,0.0,0.0,0.0,0.0,0.0,0.0,0.0,0.0,0.0,0.0,0.0,0.0,0.0,0.0,0.0,0.0,0.0,0.0,0.0,0.0,0.0,0.0,0.0,0.0,0.0,0.0,0.0,0.0,0.0,0.0,0.0,0.0,0.0,0.0,0.0,0.0,0.0,0.0,0.0,0.0,0.0,0.0,0.0,0.0,0.0,0.0,0.0,0.0,0.0,0.0,0.0,0.0,0.0,0.0,0.0,0.0,0.0,0.0,0.0,0.0,0.0,0.0,0.0,0.0,0.0,0.0,0.0,0.0,0.0,0.0,0.0,0.0,0.0,0.0,-0.3911,-0.3911,-0.3911,-0.3911,-0.3911,0.0,0.0,0.0,0.0,0.0,0.0,0.0,0.0,0.0,0.0,0.0,0.0,0.0,0.0,0.0,0.0,0.0,0.0,0.0,0.0,0.0,0.0,0.0,0.0,0.0,0.0,0.0,0.0,0.0,0.0,0.0,0.0,0.0,0.0,0.0,0.0,0.0,0.0,0.0,0.0,0.0,0.0,0.0,0.0,0.0,0.0,0.0,0.0,0.0,0.0,0.0,0.0,0.0,0.0,0.0,0.0,0.0,0.0,0.0,0.0,0.0,0.0,0.0,0.0,0.0,0.0,0.0,0.0,0.0,0.0,0.0,0.0,0.0,0.0,0.0,0.0,0.0,0.0,0.0,0.0,0.0,0.0,0.0,0.0,0.0,0.0,0.0,0.0,0.0,0.0,0.0,0.0,0.0,0.0,0.0,0.0,0.0,0.0,0.0,0.0,0.0,0.0,0.0,0.0,0.0,0.0,0.0,0.0,0.0,0.0,0.0,0.0,-0.4283,-0.4215,-0.4223,0.0,0.0,0.0,0.0,0.0,0.0,0.0,0.0,0.0,0.0,0.0,0.0,0.0,0.0,0.0,0.0,0.0,0.0,0.0,0.0,0.0,0.0,0.0,0.0,0.0,0.0,0.0,0.0,0.0,0.0,0.0,0.0,0.0,0.0,0.0,0.0,0.0,0.0,0.0,0.0,0.0,0.0,0.0,0.0,0.0,0.0,0.0,0.0,0.0,0.0,0.0,0.0,0.0,0.0,0.0,0.0,0.0,0.0,0.0,0.0,0.0,0.0,0.0,0.0,0.0,0.0,0.0,0.0,0.0,0.0,0.0,0.0,0.0,0.0,0.0,0.0,0.0,0.0,0.0,0.0,0.0,0.0,0.0,0.0,0.0,0.0,0.0,0.0,0.0,0.0,0.0,0.0,0.0,0.0,0.0,0.0,0.0,0.0,0.0,0.0,0.0,0.0,0.0,0.0,0.0,0.0,0.0,0.0,0.0,0.0,-0.4711,-0.5859,-0.542,0.0,-0.5179,0.0,0.0,0.0,0.0,0.0,0.0,0.0,0.0,0.0,0.0,0.0,0.0,0.0,0.0,0.0,0.0,0.0,0.0,0.0,0.0,0.0,0.0,0.0,0.0,0.0,0.0,0.0,0.0,0.0,0.0,0.0,0.0,0.0,0.0,0.0,0.0,0.0,0.0,0.0,0.0,0.0,0.0,0.0,0.0,0.0,0.0,0.0,0.0,0.0,0.0,0.0,0.0,0.0,0.0,0.0,0.0,0.0,0.0,0.0,0.0,0.0,0.0,0.0,0.0,0.0,0.0,0.0,0.0,0.0,0.0,0.0,0.0,0.0,0.0,0.0,0.0,0.0,0.0,0.0,0.0,0.0,0.0,0.0,0.0,0.0,0.0,0.0,0.0,0.0,0.0,0.0,0.0,0.0,0.0,0.0,0.0,0.0,0.0,0.0,0.0,0.0,0.0,0.0,0.0,0.0,0.0,0.0,0.0,0.0,0.0,0.0,-0.5615,-0.5518,-0.556,0.0,0.0,0.0,0.0,0.0,0.0,0.0,0.0,0.0,0.0,0.0,0.0,0.0,0.0,0.0,0.0,0.0,0.0,0.0,0.0,0.0,0.0,0.0,0.0,0.0,0.0,0.0,0.0,0.0,0.0,0.0,0.0,0.0,0.0,0.0,0.0,0.0,0.0,0.0,0.0,0.0,0.0,0.0,0.0,0.0,0.0,0.0,0.0,0.0,0.0,0.0,0.0,0.0,0.0,0.0,0.0,0.0,0.0,0.0,0.0,0.0,0.0,0.0,0.0,0.0,0.0,0.0,0.0,0.0,0.0,0.0,0.0,0.0,0.0,0.0,0.0,0.0,0.0,0.0,0.0,0.0,0.0,0.0,0.0,0.0,0.0,0.0,0.0,0.0,0.0,0.0,0.0,0.0,0.0,0.0,0.0,0.0,0.0,0.0,0.0,0.0,0.0,0.0,0.0,0.0,0.0,0.0,0.0,0.0,0.0,-0.5819,0.0,-0.596,-0.596,-0.5971,-0.5954,0.0,0.0,0.0,0.0,0.0,0.0,0.0,0.0,0.0,0.0,0.0,0.0,0.0,0.0,0.0,0.0,0.0,0.0,0.0,0.0,0.0,0.0,0.0,0.0,0.0,0.0,0.0,0.0,0.0,0.0,0.0,0.0,0.0,0.0,0.0,0.0,0.0,0.0,0.0,0.0,0.0,0.0,0.0,0.0,0.0,0.0,0.0,0.0,0.0,0.0,0.0,0.0,0.0,0.0,0.0,0.0,0.0,0.0,0.0,0.0,0.0,0.0,0.0,0.0,0.0,0.0,0.0,0.0,0.0,0.0,0.0,0.0,0.0,0.0,0.0,0.0,0.0,0.0,0.0,0.0,0.0,0.0,0.0,0.0,0.0,0.0,0.0,0.0,0.0,0.0,0.0,0.0,0.0,0.0,0.0,0.0,0.0,0.0,0.0,0.0,0.0,0.0,0.0,0.0,0.0,0.0,0.0,0.0,0.0,-0.7487,-0.7132,-0.7575,-0.7105,-0.6459,0.0,0.0,0.0,0.0,0.0,0.0,0.0,0.0,0.0,0.0,0.0,0.0,0.0,0.0,0.0,0.0,0.0,0.0,0.0,0.0,0.0,0.0,0.0,0.0,0.0,0.0,0.0,0.0,0.0,0.0,0.0,0.0,0.0,0.0,0.0,0.0,0.0,0.0,0.0,0.0,0.0,0.0,0.0,0.0,0.0,0.0,0.0,0.0,0.0,0.0,0.0,0.0,0.0,0.0,0.0,0.0,0.0,0.0,0.0,0.0,0.0,0.0,0.0,0.0,0.0,0.0,0.0,0.0,0.0,0.0,0.0,0.0,0.0,0.0,0.0,0.0,0.0,0.0,0.0,0.0,0.0,0.0,0.0,0.0,0.0,0.0,0.0,0.0,0.0,0.0,0.0,0.0,0.0,0.0,0.0,0.0,0.0,0.0,0.0,0.0,0.0,0.0,0.0,0.0,0.0,0.0,0.0,0.0,0.0,-0.6349,-0.641,-0.7402,0.0,-0.7425,-0.6679,0.0,0.0,0.0,0.0,0.0,0.0,0.0,0.0,0.0,0.0,0.0,0.0,0.0,0.0,0.0,0.0,0.0,0.0,0.0,0.0,0.0,0.0,0.0,0.0,0.0,0.0,0.0,0.0,0.0,0.0,0.0,0.0,0.0,0.0,0.0,0.0,0.0,0.0,0.0,0.0,0.0,0.0,0.0,0.0,0.0,0.0,0.0,0.0,0.0,0.0,0.0,0.0,0.0,0.0,0.0,0.0,0.0,0.0,0.0,0.0,0.0,0.0,0.0,0.0,0.0,0.0,0.0,0.0,0.0,0.0,0.0,0.0,0.0,0.0,0.0,0.0,0.0,0.0,0.0,0.0,0.0,0.0,0.0,0.0,0.0,0.0,0.0,0.0,0.0,0.0,0.0,0.0,0.0,0.0,0.0,0.0,0.0,0.0,0.0,0.0,0.0,0.0,0.0,0.0,0.0,0.0,0.0,0.0,0.0,-0.6445,0.0,-0.8502,0.0,-0.7879,-0.6912,0.0,0.0,0.0,0.0,0.0,0.0,0.0,0.0,0.0,0.0,0.0,0.0,0.0,0.0,0.0,0.0,0.0,0.0,0.0,0.0,0.0,0.0,0.0,0.0,0.0,0.0,0.0,0.0,0.0,0.0,0.0,0.0,0.0,0.0,0.0,0.0,0.0,0.0,0.0,0.0,0.0,0.0,0.0,0.0,0.0,0.0,0.0,0.0,0.0,0.0,0.0,0.0,0.0,0.0,0.0,0.0,0.0,0.0,0.0,0.0,0.0,0.0,0.0,0.0,0.0,0.0,0.0,0.0,0.0,0.0,0.0,0.0,0.0,0.0,0.0,0.0,0.0,0.0,0.0,0.0,0.0,0.0,0.0,0.0,0.0,0.0,0.0,0.0,0.0,0.0,0.0,0.0,0.0,0.0,0.0,0.0,0.0,0.0,0.0,0.0,0.0,0.0,0.0,0.0,0.0,0.0,0.0,0.0,0.0,-0.9318,-1.0526,-1.0454,-0.9192,-0.8552,-0.7146,0.0,0.0,0.0,0.0,0.0,0.0,0.0,0.0,0.0,0.0,0.0,0.0,0.0,0.0,0.0,0.0,0.0,0.0,0.0,0.0,0.0,0.0,0.0,0.0,0.0,0.0,0.0,0.0,0.0,0.0,0.0,0.0,0.0,0.0,0.0,0.0,0.0,0.0,0.0,0.0,0.0,0.0,0.0,0.0,0.0,0.0,0.0,0.0,0.0,0.0,0.0,0.0,0.0,0.0,0.0,0.0,0.0,0.0,0.0,0.0,0.0,0.0,0.0,0.0,0.0,0.0,0.0,0.0,0.0,0.0,0.0,0.0,0.0,0.0,0.0,0.0,0.0,0.0,0.0,0.0,0.0,0.0,0.0,0.0,0.0,0.0,0.0,0.0,0.0,0.0,0.0,0.0,0.0,0.0,0.0,0.0,0.0,0.0,0.0,0.0,0.0,0.0,0.0,0.0,0.0,0.0,0.0,0.0,0.0,-0.8142,-0.9387,-1.0313,-1.0714,-0.8639,-0.7559,0.0,0.0,0.0,0.0,0.0,0.0,0.0,0.0,0.0,0.0,0.0,0.0,0.0,0.0,0.0,0.0,0.0,0.0,0.0,0.0,0.0,0.0,0.0,0.0,0.0,0.0,0.0,0.0,0.0,0.0,0.0,0.0,0.0,0.0,0.0,0.0,0.0,0.0,0.0,0.0,0.0,0.0,0.0,0.0,0.0,0.0,0.0,0.0,0.0,0.0,0.0,0.0,0.0,0.0,0.0,0.0,0.0,0.0,0.0,0.0,0.0,0.0,0.0,0.0,0.0,0.0,0.0,0.0,0.0,0.0,0.0,0.0,0.0,0.0,0.0,0.0,0.0,0.0,0.0,0.0,0.0,0.0,0.0,0.0,0.0,0.0,0.0,0.0,0.0,0.0,0.0,0.0,0.0,0.0,0.0,0.0,0.0,0.0,0.0,0.0,0.0,0.0,0.0,0.0,0.0,0.0,0.0,0.0,0.0,-0.9356,-1.0755,-1.1654,-1.1871,-0.9848,-0.8559,-0.8058,0.0,0.0,0.0,0.0,0.0,0.0,0.0,0.0,0.0,0.0,0.0,0.0,0.0,0.0,0.0,0.0,0.0,0.0,0.0,0.0,0.0,0.0,0.0,0.0,0.0,0.0,0.0,0.0,0.0,0.0,0.0,0.0,0.0,0.0,0.0,0.0,0.0,0.0,0.0,0.0,0.0,0.0,0.0,0.0,0.0,0.0,0.0,0.0,0.0,0.0,0.0,0.0,0.0,0.0,0.0,0.0,0.0,0.0,0.0,0.0,0.0,0.0,0.0,0.0,0.0,0.0,0.0,0.0,0.0,0.0,0.0,0.0,0.0,0.0,0.0,0.0,0.0,0.0,0.0,0.0,0.0,0.0,0.0,0.0,0.0,0.0,0.0,0.0,0.0,0.0,0.0,0.0,0.0,0.0,0.0,0.0,0.0,0.0,0.0,0.0,0.0,0.0,0.0,0.0,0.0,0.0,0.0,0.0,-1.237,-1.4204,-1.4293,-1.2619,-1.1923,-1.0054,0.0,0.0,0.0,0.0,0.0,0.0,0.0,0.0,0.0,0.0,0.0,0.0,0.0,0.0,0.0,0.0,0.0,0.0,0.0,0.0,0.0,0.0,0.0,0.0,0.0,0.0,0.0,0.0,0.0,0.0,0.0,0.0,0.0,0.0,0.0,0.0,0.0,0.0,0.0,0.0,0.0,0.0,0.0,0.0,0.0,0.0,0.0,0.0,0.0,0.0,0.0,0.0,0.0,0.0,0.0,0.0,0.0,0.0,0.0,0.0,0.0,0.0,0.0,0.0,0.0,0.0,0.0,0.0,0.0,0.0,0.0,0.0,0.0,0.0,0.0,0.0,0.0,0.0,0.0,0.0,0.0,0.0,0.0,0.0,0.0,0.0,0.0,0.0,0.0,0.0,0.0,0.0,0.0,0.0,0.0,0.0,0.0,0.0,0.0,0.0,0.0,0.0,0.0,0.0,0.0,0.0,0.0,0.0,0.0,-1.3289,-1.5694,-1.6467,-1.5314,-1.2908,-1.1003,0.0,0.0,0.0,0.0,0.0,0.0,0.0,0.0,0.0,0.0,0.0,0.0,0.0,0.0,0.0,0.0,0.0,0.0,0.0,0.0,0.0,0.0,0.0,0.0,0.0,0.0,0.0,0.0,0.0,0.0,0.0,0.0,0.0,0.0,0.0,0.0,0.0,0.0,0.0,0.0,0.0,0.0,0.0,0.0,0.0,0.0,0.0,0.0,0.0,0.0,0.0,0.0,0.0,0.0,0.0,0.0,0.0,0.0,0.0,0.0,0.0,0.0,0.0,0.0,0.0,0.0,0.0,0.0,0.0,0.0,0.0,0.0,0.0,0.0,0.0,0.0,0.0,0.0,0.0,0.0,0.0,0.0,0.0,0.0,0.0,0.0,0.0,0.0,0.0,0.0,0.0,0.0,0.0,0.0,0.0,0.0,0.0,0.0,0.0,0.0,0.0,0.0,0.0,0.0,0.0,0.0,0.0,0.0,-1.3326,-1.5016,-1.7207,-1.8302,-1.8081,-1.4799,-1.2359,0.0,0.0,0.0,0.0,0.0,0.0,0.0,0.0,0.0,0.0,0.0,0.0,0.0,0.0,0.0,0.0,0.0,0.0,0.0,0.0,0.0,0.0,0.0,0.0,0.0,0.0,0.0,0.0,0.0,0.0,0.0,0.0,0.0,0.0,0.0,0.0,0.0,0.0,0.0,0.0,0.0,0.0,0.0,0.0,0.0,0.0,0.0,0.0,0.0,0.0,0.0,0.0,0.0,0.0,0.0,0.0,0.0,0.0,0.0,0.0,0.0,0.0,0.0,0.0,0.0,0.0,0.0,0.0,0.0,0.0,0.0,0.0,0.0,0.0,0.0,0.0,0.0,0.0,0.0,0.0,0.0,0.0,0.0,0.0,0.0,0.0,0.0,0.0,0.0,0.0,0.0,0.0,0.0,0.0,0.0,0.0,0.0,0.0,0.0,0.0,0.0,0.0,0.0,0.0,0.0,0.0,0.0,0.0,-1.4709,-1.703,-1.8543,-1.9661,-2.0258,-1.6896,-1.3786,0.0,0.0,0.0,0.0,0.0,0.0,0.0,0.0,0.0,0.0,0.0,0.0,0.0,0.0,0.0,0.0,0.0,0.0,0.0,0.0,0.0,0.0,0.0,0.0,0.0,0.0,0.0,0.0,0.0,0.0,0.0,0.0,0.0,0.0,0.0,0.0,0.0,0.0,0.0,0.0,0.0,0.0,0.0,0.0,0.0,0.0,0.0,0.0,0.0,0.0,0.0,0.0,0.0,0.0,0.0,0.0,0.0,0.0,0.0,0.0,0.0,0.0,0.0,0.0,0.0,0.0,0.0,0.0,0.0,0.0,0.0,0.0,0.0,0.0,0.0,0.0,0.0,0.0,0.0,0.0,0.0,0.0,0.0,0.0,0.0,0.0,0.0,0.0,0.0,0.0,0.0,0.0,0.0,0.0,0.0,0.0,0.0,0.0,0.0,0.0,0.0,0.0,0.0,0.0,0.0,0.0,0.0,0.0,-1.5705,-1.7647,-1.8892,-1.9828,-2.0377,-1.6896,-1.421,0.0,0.0,0.0,0.0,0.0,0.0,0.0,0.0,0.0,0.0,0.0,0.0,0.0,0.0,0.0,0.0,0.0,0.0,0.0,0.0,0.0,0.0,0.0,0.0,0.0,0.0,0.0,0.0,0.0,0.0,0.0,0.0,0.0,0.0,0.0,0.0,0.0,0.0,0.0,0.0,0.0,0.0,0.0,0.0,0.0,0.0,0.0,0.0,-0.947,0.0,0.0,0.0,0.0,0.0,0.0,0.0,0.0,0.0,0.0,0.0,0.0,0.0,0.0,0.0,0.0,0.0,0.0,0.0,0.0,0.0,0.0,0.0,0.0,0.0,0.0,0.0,0.0,0.0,0.0,0.0,0.0,0.0,0.0,0.0,0.0,0.0,0.0,0.0,0.0,0.0,0.0,0.0,0.0,0.0,0.0,0.0,0.0,0.0,0.0,0.0,0.0,0.0,0.0,0.0,0.0,0.0,0.0,0.0,-1.6587,-1.8589,-1.9265,-1.9939,-2.0471,-1.7796,-1.5302,0.0,0.0,0.0,0.0,0.0,0.0,0.0,0.0,0.0,0.0,0.0,0.0,0.0,0.0,0.0,0.0,0.0,0.0,0.0,0.0,0.0,0.0,0.0,0.0,0.0,0.0,0.0,0.0,0.0,0.0,0.0,0.0,0.0,0.0,0.0,0.0,0.0,0.0,0.0,0.0,0.0,0.0,0.0,0.0,0.0,0.0,0.0,0.0,0.0,0.0,0.0,0.0,0.0,0.0,0.0,0.0,0.0,0.0,0.0,0.0,0.0,0.0,0.0,0.0,0.0,0.0,0.0,0.0,0.0,0.0,0.0,0.0,0.0,0.0,0.0,0.0,0.0,0.0,0.0,0.0,0.0,0.0,0.0,0.0,0.0,0.0,0.0,0.0,0.0,0.0,0.0,0.0,0.0,0.0,0.0,0.0,0.0,0.0,0.0,0.0,0.0,0.0,0.0,0.0,0.0,0.0,0.0,-1.4888,-1.7393,-1.9778,-1.9846,-2.016,-2.085,-1.8924,-1.6522,-1.3738,0.0,0.0,0.0,0.0,0.0,0.0,0.0,0.0,0.0,0.0,0.0,0.0,0.0,0.0,0.0,0.0,0.0,0.0,0.0,0.0,0.0,0.0,0.0,0.0,0.0,0.0,0.0,0.0,0.0,0.0,0.0,0.0,0.0,0.0,0.0,0.0,0.0,0.0,-0.7508,-0.9199,0.0,0.0,0.0,0.0,0.0,0.0,0.0,0.0,-1.1723,0.0,0.0,0.0,0.0,0.0,0.0,0.0,0.0,0.0,0.0,0.0,0.0,0.0,0.0,0.0,0.0,0.0,0.0,0.0,0.0,0.0,0.0,0.0,0.0,0.0,0.0,0.0,0.0,0.0,0.0,0.0,0.0,0.0,0.0,0.0,0.0,0.0,0.0,0.0,0.0,0.0,0.0,0.0,0.0,0.0,0.0,0.0,0.0,0.0,0.0,0.0,0.0,0.0,0.0,0.0,0.0,-1.6348,-1.6562,-1.8231,-2.1555,-2.1136,-2.0871,-2.0862,-1.9305,-1.6995,-1.3997,0.0,0.0,0.0,0.0,0.0,0.0,0.0,0.0,0.0,0.0,0.0,0.0,0.0,0.0,0.0,0.0,0.0,0.0,0.0,0.0,0.0,0.0,0.0,0.0,0.0,0.0,0.0,0.0,0.0,0.0,0.0,0.0,0.0,0.0,0.0,0.0,0.0,0.0,0.0,-1.1465,-1.2656,0.0,0.0,0.0,0.0,0.0,0.0,0.0,0.0,-1.2667,0.0,0.0,0.0,0.0,0.0,0.0,0.0,0.0,0.0,0.0,0.0,0.0,0.0,0.0,0.0,0.0,0.0,0.0,0.0,0.0,0.0,0.0,0.0,0.0,0.0,0.0,0.0,0.0,0.0,0.0,0.0,0.0,0.0,0.0,0.0,0.0,0.0,0.0,0.0,0.0,0.0,0.0,0.0,0.0,0.0,0.0,0.0,0.0,0.0,0.0,0.0,0.0,0.0,0.0,0.0,-1.6072,-1.761,-1.9397,-2.1472,-2.0844,-2.0499,-2.0445,-1.8668,-1.6557,0.0,0.0,0.0,0.0,0.0,0.0,0.0,0.0,0.0,0.0,0.0,0.0,0.0,0.0,0.0,0.0,0.0,0.0,0.0,0.0,0.0,0.0,0.0,0.0,0.0,0.0,0.0,0.0,0.0,0.0,0.0,0.0,0.0,0.0,0.0,0.0,0.0,0.0,0.0,0.0,-1.341,-1.4516,-1.5505,0.0,0.0,0.0,0.0,0.0,0.0,-1.4434,-1.3482,0.0,0.0,0.0,0.0,0.0,0.0,0.0,0.0,0.0,0.0,0.0,0.0,0.0,0.0,0.0,0.0,0.0,0.0,0.0,0.0,0.0,0.0,0.0,0.0,0.0,0.0,0.0,0.0,0.0,0.0,0.0,0.0,0.0,0.0,0.0,0.0,0.0,0.0,0.0,0.0,0.0,0.0,0.0,0.0,0.0,0.0,0.0,0.0,0.0,0.0,0.0,0.0,0.0,0.0,0.0,-1.5557,-1.852,-2.0458,-2.1212,-2.0688,-2.0291,-2.0085,-1.8065,-1.6095,0.0,0.0,0.0,0.0,0.0,0.0,0.0,0.0,0.0,0.0,0.0,0.0,0.0,0.0,0.0,0.0,0.0,0.0,0.0,0.0,0.0,0.0,0.0,0.0,0.0,0.0,0.0,0.0,0.0,0.0,0.0,0.0,0.0,0.0,0.0,0.0,0.0,0.0,0.0,0.0,0.0,-1.6472,-1.7041,-1.7524,0.0,0.0,0.0,0.0,-1.7137,-1.6258,0.0,0.0,0.0,0.0,0.0,0.0,0.0,0.0,0.0,0.0,0.0,0.0,0.0,0.0,0.0,0.0,0.0,0.0,0.0,0.0,0.0,0.0,0.0,0.0,0.0,0.0,0.0,0.0,0.0,0.0,0.0,0.0,0.0,0.0,0.0,0.0,0.0,0.0,0.0,0.0,0.0,0.0,0.0,0.0,0.0,0.0,0.0,0.0,0.0,0.0,0.0,0.0,0.0,0.0,0.0,0.0,-1.6918,-1.9374,-2.1058,-2.192,-2.1896,-2.1313,-2.0118,-1.8427,-1.6299,0.0,0.0,0.0,0.0,0.0,0.0,0.0,0.0,0.0,0.0,0.0,0.0,0.0,0.0,0.0,0.0,0.0,0.0,0.0,0.0,0.0,0.0,0.0,0.0,0.0,0.0,0.0,0.0,0.0,0.0,0.0,0.0,0.0,0.0,0.0,0.0,0.0,0.0,0.0,0.0,0.0,-1.8487,-1.8612,-1.8174,-1.7947,0.0,0.0,-1.914,-2.1022,-2.1174,0.0,0.0,0.0,0.0,0.0,0.0,0.0,0.0,0.0,0.0,0.0,0.0,0.0,0.0,0.0,0.0,0.0,0.0,0.0,0.0,0.0,0.0,0.0,0.0,0.0,0.0,0.0,0.0,0.0,0.0,0.0,0.0,0.0,0.0,0.0,0.0,0.0,0.0,0.0,0.0,0.0,0.0,0.0,0.0,0.0,0.0,0.0,0.0,0.0,0.0,0.0,0.0,0.0,0.0,0.0,-1.5055,-1.7204,-2.0412,-2.2063,-2.2096,-2.2101,-2.1459,-2.014,-1.8002,-1.5857,0.0,0.0,0.0,0.0,0.0,0.0,0.0,0.0,0.0,0.0,0.0,0.0,0.0,0.0,0.0,0.0,0.0,0.0,0.0,0.0,0.0,0.0,0.0,0.0,0.0,0.0,0.0,0.0,0.0,0.0,0.0,0.0,0.0,0.0,0.0,0.0,0.0,0.0,0.0,0.0,0.0,0.0,-1.9867,-2.0317,0.0,0.0,0.0,-2.059,-2.0859,0.0,0.0,0.0,0.0,0.0,0.0,0.0,0.0,0.0,0.0,0.0,0.0,0.0,0.0,0.0,0.0,0.0,0.0,0.0,0.0,0.0,0.0,0.0,0.0,0.0,0.0,0.0,0.0,0.0,0.0,0.0,0.0,0.0,0.0,0.0,0.0,0.0,0.0,0.0,0.0,0.0,0.0,0.0,0.0,0.0,0.0,0.0,0.0,0.0,0.0,0.0,0.0,0.0,0.0,0.0,0.0,0.0,-1.7251,-2.127,-2.3027,-2.239,-2.2347,-2.1803,-2.0611,-1.8282,0.0,0.0,0.0,0.0,0.0,0.0,0.0,0.0,0.0,0.0,0.0,0.0,0.0,0.0,0.0,0.0,0.0,0.0,0.0,0.0,0.0,0.0,0.0,0.0,0.0,0.0,0.0,-0.6989,0.0,0.0,0.0,0.0,0.0,0.0,0.0,0.0,0.0,0.0,0.0,0.0,0.0,0.0,-2.0545,-2.094,-2.2009,-2.2626,0.0,0.0,-2.1972,-2.1679,-2.2656,-2.2241,0.0,0.0,0.0,0.0,0.0,0.0,0.0,0.0,0.0,0.0,0.0,0.0,0.0,0.0,0.0,0.0,0.0,0.0,0.0,0.0,0.0,0.0,0.0,0.0,0.0,0.0,0.0,0.0,0.0,0.0,0.0,0.0,0.0,0.0,0.0,0.0,0.0,0.0,0.0,0.0,0.0,0.0,0.0,0.0,0.0,0.0,0.0,0.0,0.0,0.0,0.0,0.0,0.0,0.0,0.0,-1.7316,-2.1707,-2.3691,-2.3058,-2.3027,-2.2683,-2.1966,-2.0035,-1.7674,0.0,0.0,0.0,0.0,0.0,0.0,0.0,0.0,0.0,0.0,0.0,0.0,0.0,0.0,0.0,0.0,0.0,0.0,0.0,0.0,0.0,0.0,0.0,0.0,0.0,0.0,0.0,0.0,0.0,0.0,0.0,0.0,0.0,0.0,0.0,0.0,0.0,0.0,0.0,0.0,0.0,-2.1741,-2.1733,-2.2294,-2.3359,0.0,0.0,-2.3516,-2.5474,-2.6856,-2.6244,-2.1729,0.0,0.0,0.0,0.0,0.0,0.0,0.0,0.0,0.0,0.0,0.0,0.0,0.0,0.0,0.0,0.0,0.0,0.0,0.0,0.0,0.0,0.0,0.0,0.0,0.0,0.0,0.0,0.0,0.0,0.0,0.0,0.0,0.0,0.0,0.0,0.0,0.0,0.0,0.0,0.0,0.0,0.0,0.0,0.0,0.0,0.0,0.0,0.0,0.0,0.0,0.0,0.0,0.0,-1.6062,-1.7238,-2.1773,-2.3763,-2.316,-2.3501,-2.319,-2.2132,-2.0974,-1.8856,0.0,0.0,0.0,0.0,0.0,0.0,0.0,0.0,0.0,0.0,0.0,0.0,0.0,0.0,0.0,0.0,0.0,0.0,0.0,0.0,0.0,0.0,0.0,0.0,0.0,0.0,0.0,0.0,-0.8716,-0.8951,-0.872,0.0,0.0,0.0,0.0,0.0,0.0,0.0,0.0,0.0,0.0,-2.24,-2.3923,-2.435,0.0,0.0,-2.5168,-2.47,-2.4756,-2.5628,-2.4854,-2.0625,-1.9858,0.0,0.0,0.0,0.0,0.0,0.0,0.0,0.0,0.0,0.0,0.0,0.0,0.0,0.0,0.0,0.0,0.0,0.0,0.0,0.0,0.0,0.0,0.0,0.0,0.0,0.0,0.0,0.0,0.0,0.0,0.0,0.0,0.0,0.0,0.0,0.0,0.0,0.0,0.0,0.0,0.0,0.0,0.0,0.0,0.0,0.0,0.0,0.0,0.0,0.0,0.0,0.0,-1.6062,-1.7199,-2.176,-2.3881,-2.3412,-2.3852,-2.3632,-2.2743,-2.1905,-2.0092,0.0,0.0,0.0,0.0,0.0,0.0,0.0,0.0,0.0,0.0,0.0,0.0,0.0,0.0,0.0,0.0,0.0,0.0,0.0,0.0,0.0,0.0,0.0,0.0,0.0,0.0,0.0,0.0,-0.9081,-0.9271,-0.8942,0.0,0.0,0.0,0.0,0.0,0.0,0.0,0.0,0.0,0.0,-2.3288,-2.4822,-2.5085,-2.5168,-2.5259,-2.4949,-2.4561,-2.4085,-2.4512,-2.384,-2.0837,0.0,0.0,0.0,0.0,0.0,0.0,0.0,0.0,0.0,0.0,0.0,0.0,0.0,0.0,0.0,0.0,0.0,0.0,0.0,0.0,0.0,0.0,0.0,0.0,0.0,0.0,0.0,0.0,0.0,0.0,-0.696,0.0,0.0,0.0,0.0,0.0,0.0,0.0,0.0,0.0,0.0,0.0,0.0,0.0,0.0,0.0,0.0,0.0,0.0,0.0,0.0,0.0,0.0,0.0,-1.7238,-2.176,-2.4083,-2.4083,-2.4083,-2.4083,-2.4011,-2.2952,-2.1437,-1.9408,0.0,0.0,0.0,0.0,0.0,0.0,0.0,0.0,0.0,0.0,0.0,0.0,0.0,0.0,0.0,0.0,0.0,0.0,0.0,0.0,0.0,0.0,0.0,0.0,0.0,0.0,-0.774,-0.8396,-0.892,0.0,0.0,0.0,0.0,0.0,0.0,0.0,0.0,0.0,0.0,-2.2733,-2.4578,-2.3969,-2.3979,-2.4134,-2.4134,-2.3158,-2.2799,-2.4107,-2.4312,-2.4087,0.0,0.0,0.0,0.0,0.0,0.0,0.0,0.0,0.0,0.0,0.0,0.0,0.0,0.0,0.0,0.0,0.0,0.0,0.0,0.0,0.0,0.0,0.0,0.0,0.0,0.0,0.0,-1.1305,-1.0413,0.0,0.0,0.0,0.0,0.0,0.0,0.0,0.0,0.0,0.0,0.0,-1.8074,-1.8832,0.0,0.0,0.0,0.0,0.0,0.0,0.0,0.0,0.0,0.0,0.0,0.0,-1.6617,-1.7931,-2.1969,-2.4125,-2.4125,-2.4125,-2.4125,-2.4125,-2.3742,-2.2089,-1.9055,0.0,0.0,0.0,0.0,0.0,0.0,0.0,0.0,0.0,0.0,0.0,0.0,0.0,0.0,0.0,0.0,0.0,0.0,0.0,0.0,0.0,0.0,0.0,0.0,0.0,-0.8483,0.0,0.0,0.0,0.0,0.0,0.0,0.0,0.0,0.0,0.0,0.0,-1.9662,-2.1628,-2.2531,-2.3334,-2.4381,-2.4591,-2.5076,0.0,0.0,0.0,0.0,0.0,0.0,0.0,0.0,0.0,0.0,0.0,0.0,0.0,0.0,-2.1663,-1.8133,-1.8055,-1.8621,-1.8875,0.0,0.0,0.0,0.0,0.0,0.0,0.0,0.0,0.0,0.0,0.0,0.0,0.0,0.0,-1.4914,0.0,-1.363,0.0,0.0,0.0,0.0,0.0,0.0,0.0,0.0,-1.9316,-2.0989,-2.189,-2.2452,-2.2126,0.0,-2.0072,-1.7617,0.0,0.0,0.0,0.0,0.0,0.0,0.0,0.0,-1.7191,-1.8479,-2.2138,-2.4125,-2.4125,-2.4125,-2.4125,-2.4112,-2.3874,-2.2594,-2.007,-1.8319,-1.6176,0.0,0.0,0.0,0.0,0.0,0.0,0.0,0.0,0.0,0.0,0.0,0.0,0.0,0.0,0.0,0.0,0.0,0.0,0.0,0.0,0.0,0.0,0.0,-0.9277,0.0,0.0,0.0,0.0,0.0,0.0,0.0,0.0,0.0,-1.8339,-2.0129,-2.2039,-2.3806,-2.4101,-2.4289,-2.4611,0.0,0.0,0.0,0.0,0.0,0.0,0.0,-2.3363,-2.2551,-2.3246,-2.4208,-2.5176,-2.6197,-2.6543,-2.567,0.0,0.0,-2.1836,-2.1694,-2.2224,-2.2426,-2.2492,-2.2492,-2.2524,-2.2752,-2.2897,0.0,0.0,0.0,0.0,0.0,0.0,0.0,0.0,-1.9665,-1.9301,0.0,-1.7437,0.0,0.0,0.0,0.0,0.0,-1.7717,0.0,0.0,-2.4743,-2.6386,-2.5819,-2.5371,-2.5123,-2.4992,-2.3385,-2.1983,-2.0699,-1.7489,0.0,0.0,0.0,0.0,0.0,0.0,-1.7826,-1.9068,-2.2347,-2.4125,-2.4125,-2.4125,-2.4125,-2.4099,-2.3535,-2.2988,-2.24,-2.0767,-1.9094,-1.7303,-1.4585,0.0,0.0,0.0,0.0,0.0,0.0,0.0,0.0,0.0,0.0,0.0,0.0,0.0,0.0,0.0,0.0,0.0,0.0,0.0,0.0,-0.9823,0.0,0.0,0.0,0.0,0.0,0.0,0.0,0.0,0.0,0.0,-2.1243,-2.2877,-2.4609,-2.5893,0.0,0.0,0.0,0.0,-2.5435,-2.2922,-2.2509,-2.2598,-2.264,-2.364,-2.4872,-2.6134,0.0,0.0,-2.8597,-2.7512,-2.6763,-2.6765,-2.779,-2.786,-2.5871,-2.4981,-2.4636,-2.4772,-2.4808,-2.4695,-2.4727,-2.5327,-2.5745,-2.7746,0.0,0.0,0.0,0.0,-2.2163,-2.313,-2.4739,-2.4086,-2.3521,-2.3014,-2.2263,0.0,0.0,0.0,0.0,0.0,0.0,-2.2772,-2.384,-2.5803,-2.7013,-2.7654,-2.7949,-2.7824,-2.7399,-2.6974,-2.6148,-2.4957,-2.4034,-2.0351,-1.421,0.0,0.0,0.0,0.0,-1.9162,-2.0793,-2.2947,-2.4125,-2.4125,-2.4125,-2.4125,-2.4112,-2.3913,-2.3576,-2.3001,-2.2477,-2.1224,-1.9146,-1.7499,0.0,0.0,0.0,0.0,0.0,0.0,0.0,0.0,0.0,0.0,0.0,0.0,0.0,0.0,0.0,0.0,0.0,0.0,0.0,-1.0396,-1.0937,-1.1386,0.0,0.0,0.0,0.0,0.0,0.0,0.0,0.0,0.0,-2.5199,-2.464,-2.4231,0.0,0.0,-2.3892,-2.36,-2.4743,-2.585,-2.6519,0.0,0.0,0.0,-2.6888,-2.6641,-2.7042,-2.8627,-2.9843,-2.9878,-3.0315,-3.0624,-3.0342,-3.0606,-3.0585,-2.9948,-2.9057,-2.8592,-2.892,-2.8713,-2.8373,-2.8373,-2.8535,-2.8628,-3.317,-2.9599,-2.7157,-2.6149,-2.6263,-2.6409,-2.725,-2.8536,-2.8132,-2.7779,-2.737,-2.6276,-2.4772,-2.2964,-2.2144,0.0,0.0,0.0,-2.5476,-2.6713,-2.7628,-2.8529,-2.9392,-2.9549,-2.9431,-2.9087,-2.9201,-2.8864,-2.8139,-2.7551,-2.4666,-1.965,0.0,0.0,-1.7102,-1.9407,-2.1015,-2.1904,-2.3576,-2.4347,-2.4125,-2.4125,-2.4125,-2.4125,-2.4125,-2.3913,-2.3561,-2.3576,-2.2791,-2.1211,-1.963,-1.7408,0.0,0.0,0.0,0.0,0.0,0.0,0.0,0.0,0.0,0.0,0.0,-1.1069,0.0,0.0,0.0,0.0,-1.1527,-1.2104,-1.2732,-1.3376,0.0,0.0,0.0,0.0,0.0,0.0,0.0,-2.1448,-2.387,-2.6061,-2.7613,-2.7123,-2.6597,-2.6535,-2.5952,-2.5564,-2.5703,0.0,-2.8073,-2.9048,-2.9187,-2.9233,-2.9371,-2.9181,-2.9058,-2.9335,-3.0351,-3.1166,-3.1201,-3.1905,-3.2283,-3.2121,-3.2146,-3.2248,-3.2292,-3.1634,-3.111,-3.1304,-3.1024,-3.0755,-3.0739,-3.0739,-3.0674,-3.7298,-3.647,-3.2132,-3.0021,-2.9633,-3.0116,-3.076,-3.1431,-3.1554,-3.1626,-3.1422,-2.9482,-2.8056,-2.6961,-2.4792,0.0,-2.6237,-2.6831,-2.7983,-2.9525,-3.0026,-3.0537,-3.1046,-3.0572,-3.0299,-3.0249,-3.0516,-3.0617,-3.046,-2.9019,-2.7911,-2.7173,-2.4812,-2.272,-2.1074,-2.243,-2.3019,-2.264,-2.4092,-2.4596,-2.4109,-2.4125,-2.4125,-2.4112,-2.4044,-2.4034,-2.4018,-2.3965,-2.3691,-2.3091,-2.1068,-1.8924,-1.6663,0.0,0.0,0.0,0.0,0.0,0.0,0.0,0.0,0.0,0.0,0.0,0.0,0.0,0.0,0.0,-1.4946,0.0,-1.6203,-1.6772,0.0,0.0,0.0,-1.9944,-2.1874,-2.3287,-2.4537,-2.5696,0.0,0.0,-2.8988,0.0,-3.0575,-3.0709,-3.0525,-3.0186,-2.9556,-3.0489,-3.1243,-3.0632,-3.0663,-3.0525,-3.0274,-3.0859,-3.1551,-3.1997,-3.2398,-3.2321,-3.2305,-3.2351,-3.2398,-3.2394,-3.2633,-3.292,-3.3187,-3.2831,-3.2567,-3.2224,-3.2037,-3.1979,-3.1915,-3.1898,-3.172,-3.8326,-3.8095,-3.6724,-3.5245,-3.3737,-3.3357,-3.3294,-3.3398,-3.2252,-3.1979,-3.2313,-3.1099,-3.0499,-3.0383,-2.9521,-2.9366,-2.9784,-3.0346,-3.09,-3.1442,-3.1563,-3.1711,-3.1869,-3.2261,-3.2171,-3.1699,-3.2336,-3.2425,-3.1932,-3.1589,-3.0319,-2.8241,-2.7535,-2.5702,-2.2822,-2.3137,-2.3649,-2.4209,-2.3828,-2.3799,-2.4112,-2.4125,-2.4125,-2.4112,-2.3639,-2.3391,-2.3391,-2.3001,-2.2741,-2.2571,-2.1629,-2.0219,-1.8388,-1.5647,0.0,0.0,0.0,0.0,0.0,0.0,0.0,0.0,0.0,-1.487,-1.1491,0.0,-1.5501,0.0,-1.6129,-1.7908,-2.0097,-2.0423,0.0,0.0,-2.2871,-2.3782,-2.527,-2.7051,-2.8124,-2.7904,-2.9529,-3.0809,-3.1213,-3.1463,-3.2086,-3.3293,-3.1736,-3.034,-3.0202,-3.1305,-3.2105,-3.2074,-3.2829,-3.3473,-3.3198,-3.3029,-3.2767,-3.2459,-3.2398,-3.2398,-3.2398,-3.2398,-3.2398,-3.2398,-3.2468,-3.2648,-3.2951,-3.3061,-3.3191,-3.3207,-3.2611,-3.2028,-3.2028,-3.2028,-3.2125,-3.8978,-3.8951,-3.8753,-3.7552,-3.5684,-3.568,-3.5424,-3.4917,-3.3963,-3.3455,-3.3268,-3.2058,-3.1538,-3.1679,-3.1441,-3.1496,-3.1757,-3.2071,-3.2251,-3.2377,-3.2469,-3.2494,-3.2517,-3.2965,-3.2981,-3.2635,-3.3411,-3.3604,-3.3278,-3.3328,-3.2478,-3.0752,-3.0418,-2.8871,-2.6177,-2.495,-2.4285,-2.4027,-2.3502,-2.3612,-2.445,-2.4229,-2.3877,-2.3367,-2.3014,-2.2596,-2.2126,-2.1786,-2.1498,-2.125,-2.0662,-1.9669,-1.8192,-1.6039,-1.4149,0.0,0.0,0.0,0.0,0.0,0.0,0.0,0.0,0.0,0.0,0.0,-1.8175,0.0,-1.9193,-2.1066,-2.2832,-2.352,-2.4388,-2.5704,-2.6677,-2.7759,-2.9086,-3.0477,-3.1285,-3.1225,-3.23,-3.3261,-3.3712,-3.3921,-3.4329,-3.5276,-3.4075,-3.3013,-3.2782,-3.3336,-3.386,-3.4214,-3.4905,-3.529,-3.4983,-3.4075,-3.3275,-3.2906,-3.2598,-3.2398,-3.2398,-3.2398,-3.2398,-3.2425,-3.2523,-3.273,-3.3032,-3.3203,-3.3424,-3.3675,-3.3278,-3.2853,-3.291,-3.2935,-3.3032,-3.9305,-3.9305,-3.9305,-3.8299,-3.6726,-3.7412,-3.6874,-3.5535,-3.523,-3.4631,-3.386,-3.2554,-3.2031,-3.2097,-3.2071,-3.2333,-3.2803,-3.2803,-3.2843,-3.2857,-3.3035,-3.304,-3.3033,-3.3308,-3.3353,-3.3227,-3.4056,-3.4461,-3.4432,-3.4557,-3.4143,-3.326,-3.2677,-3.136,-2.9328,-2.7016,-2.502,-2.3389,-2.3457,-2.3976,-2.4953,-2.4173,-2.3268,-2.2391,-2.2167,-2.1642,-2.0782,-2.0565,-2.0253,-1.9779,-1.9222,-1.8519,-1.7678,-1.6086,-1.5079,0.0,-1.3944,0.0,0.0,0.0,0.0,0.0,0.0,0.0,0.0,-2.1156,-2.1361,-2.1436,-2.3071,-2.4448,-2.5277,-2.6497,-2.7724,-2.8981,-3.0178,-3.1375,-3.2602,-3.3275,-3.3904,-3.458,-3.4906,-3.5336,-3.5854,-3.6289,-3.6445,-3.6399,-3.6276,-3.5907,-3.566,-3.5491,-3.5691,-3.6415,-3.6492,-3.6122,-3.5521,-3.4475,-3.3706,-3.3521,-3.2998,-3.2536,-3.2552,-3.2459,-3.2428,-3.2548,-3.2819,-3.3138,-3.3439,-3.353,-3.3662,-3.4117,-3.3931,-3.3751,-3.3912,-3.3971,-3.3922,-3.9305,-3.9305,-3.9305,-3.9078,-3.873,-3.8406,-3.6287,-3.303,-3.2186,-3.2058,-3.2513,-3.2859,-3.3303,-3.3701,-3.3408,-3.3326,-3.3417,-3.3417,-3.3503,-3.3584,-3.363,-3.3433,-3.3098,-3.4257,-3.4247,-3.3346,-3.4606,-3.5279,-3.5279,-3.5305,-3.4158,-3.1929,-3.1735,-3.0462,-2.8094,0.0,0.0,0.0,-2.5023,-2.5134,-2.4866,-2.2886,-2.188,-2.1966,-2.0875,0.0,-2.0872,-1.9834,-1.937,-1.9597,-1.9169,0.0,0.0,0.0,0.0,0.0,0.0,0.0,0.0,0.0,0.0,0.0,-2.1321,-2.1565,-2.156,-2.3445,-2.4911,-2.545,-2.6327,-2.7555,-2.922,-3.009,-3.0898,-3.1689,-3.2467,-3.3245,-3.4039,-3.4218,-3.4595,-3.5384,-3.5539,-3.5696,-3.6071,-3.6211,-3.6305,-3.6492,-3.6492,-3.6445,-3.6307,-3.6261,-3.6338,-3.6476,-3.6492,-3.6245,-3.5629,-3.523,-3.4813,-3.4412,-3.3675,-3.3244,-3.3152,-3.2767,-3.2644,-3.3075,-3.3482,-3.3907,-3.4476,-3.4553,-3.4505,-3.4653,-3.4317,-3.405,-3.4075,-3.4101,-3.423,-3.9305,0.0,-3.9305,-3.879,0.0,-3.7806,-3.6122,-3.3409,-3.3687,-3.3571,-3.3262,-3.3384,-3.3621,-3.3845,-3.2804,-3.2463,-3.2685,-3.1849,-3.1974,-3.2809,-3.292,-3.3284,-3.3878,-3.5123,-3.5185,-3.4268,-3.5421,-3.5818,-3.5519,-3.5489,-3.4487,-3.2527,-3.2826,-3.1839,-2.9594,-2.952,-2.861,-2.6803,-2.6489,-2.6325,-2.6228,-2.4778,-2.3691,-2.301,0.0,0.0,0.0,0.0,0.0,0.0,0.0,0.0,0.0,0.0,0.0,-2.1181,-2.0976,-2.1113,-2.1754,-2.1977,-2.2981,-2.4956,-2.5989,-2.6012,-2.4739,-2.6422,-2.7844,-2.8472,-2.9131,-3.0058,-3.1345,-3.2079,-3.2736,-3.341,-3.3784,-3.4247,-3.4878,-3.5061,-3.5262,-3.5644,-3.5847,-3.6006,-3.6179,-3.6274,-3.6367,-3.6476,-3.6492,-3.6492,-3.6492,-3.6492,-3.6492,-3.6492,-3.6492,-3.6368,-3.603,-3.5675,-3.5444,-3.5013,-3.4383,-3.3829,-3.346,-3.3457,-3.3473,-3.3475,-3.3818,-3.4392,-3.4955,-3.5007,-3.4963,-3.5385,-3.5218,-3.4878,-3.469,-3.436,-3.4198,-3.9499,-3.9499,-3.9359,-3.8407,-3.7038,-3.7358,-3.6578,-3.5147,0.0,0.0,0.0,-3.4196,-3.4011,-3.3893,-3.2202,-3.1757,-3.2176,-3.0874,-3.1066,-3.2475,-3.2793,-3.3684,-3.4967,-3.5921,-3.6012,-3.5453,-3.6137,-3.6207,-3.5684,-3.5564,-3.4891,-3.3814,-3.4234,-3.3604,-3.1959,-3.1735,-3.0883,-2.9301,-2.7968,-2.7448,-2.7815,-2.6952,-2.5795,-2.4387,-2.4234,-2.354,-2.2265,-2.2569,-2.2067,-2.0667,-2.1361,-2.1676,-2.1328,-2.1812,-2.2435,-2.3098,-2.3557,-2.4294,-2.5384,-2.5896,-2.6946,-2.8816,-2.9894,-2.9819,-2.8214,-2.9232,-3.0133,-3.0657,-3.1286,-3.1884,-3.2437,-3.3215,-3.3888,-3.4444,-3.4623,-3.4891,-3.5415,-3.5604,-3.564,-3.572,-3.599,-3.6164,-3.6211,-3.6352,-3.6492,-3.6492,-3.6492,-3.6492,-3.6492,-3.6492,-3.6492,-3.6492,-3.6492,-3.6492,-3.6415,-3.6061,-3.5706,-3.5675,-3.5136,-3.4474,-3.4029,-3.4181,-3.4274,-3.3967,-3.4349,-3.4967,-3.5527,-3.548,-3.5455,-3.6183,-3.6066,-3.5711,-3.5346,-3.4901,-3.4489,-4.0422,-4.0367,-3.9611,-3.9142,-3.8881,-3.8722,-3.8265,-3.7595,-3.6755,-3.6034,-3.5467,-3.5525,-3.5586,-3.5465,-3.3933,-3.3522,-3.402,-3.4032,-3.4414,0.0,-3.5914,-3.6119,-3.5933,-3.6696,-3.6736,-3.6198,-3.6378,-3.6447,-3.6282,-3.5789,-3.51,-3.4459,-3.4474,-3.4053,-3.323,-3.2662,-3.2198,-3.1884,-2.9607,-2.8408,-2.8431,-2.6348,-2.5316,-2.5355,-2.4751,-2.4586,-2.5003,-2.4462,-2.3917,-2.3452,-2.3235,-2.3273,-2.3621,-2.4177,-2.497,-2.6017,-2.6617,-2.7061,-2.7225,-2.7803,-2.8771,-3.0073,-3.0402,-3.0372,-3.0148,-3.0806,-3.1256,-3.1391,-3.1959,-3.2363,-3.2587,-3.3634,-3.4414,-3.4533,-3.5011,-3.5415,-3.5489,-3.5522,-3.5619,-3.5748,-3.5894,-3.61,-3.6272,-3.6413,-3.6492,-3.6492,-3.6569,-3.6522,-3.6553,-3.6492,-3.6492,-3.6492,-3.6492,-3.6492,-3.6476,-3.6445,-3.6276,-3.6353,-3.5799,-3.5276,-3.509,-3.4905,-3.4813,-3.5106,-3.544,-3.5957,-3.6604,-3.644,-3.6316,-3.6464,-3.6238,-3.5913,-3.5748,-3.5734,-3.5489,-4.0968,-4.0368,-3.9934,-3.9456,-3.8904,-3.8922,-3.8697,-3.836,-3.7806,-3.7091,-3.6409,-3.6445,-3.6164,-3.541,-3.3524,-3.2777,-3.2947,-3.1834,-3.2142,-3.3593,-3.4435,-3.5203,-3.597,-3.7177,-3.7404,-3.6852,-3.7297,-3.7199,-3.6507,-3.6178,-3.5504,-3.4548,-3.4128,-3.3963,-3.4009,-3.338,-3.3036,-3.3006,-3.1165,-3.0013,-2.9624,-2.8568,-2.7917,-2.7784,-2.7395,-2.7225,-2.7288,-2.7251,-2.6709,-2.5563,-2.5963,-2.6025,-2.5555,-2.6103,-2.6643,-2.7159,-2.779,-2.8154,-2.8139,-2.9071,-2.9879,-3.0462,-3.0866,-3.1032,-3.1061,-3.1316,-3.1645,-3.2004,-3.2632,-3.32,-3.3544,-3.4457,-3.5026,-3.504,-3.5325,-3.5489,-3.5489,-3.5572,-3.5756,-3.6125,-3.6154,-3.6269,-3.67,-3.6613,-3.6492,-3.6522,-3.6753,-3.703,-3.7046,-3.7046,-3.6892,-3.6569,-3.6492,-3.6492,-3.6492,-3.6492,-3.6492,-3.6492,-3.6245,-3.5891,-3.566,-3.566,-3.5998,-3.5826,-3.6243,-3.6876,-3.7394,-3.7064,-3.6934,-3.7176,-3.71,-3.6789,-3.6342,-3.5959,-3.5625,-4.1567,-4.0686,-4.0341,-3.9577,-3.8647,-3.8832,-3.8675,-3.8384,-3.8477,-3.7986,-3.7095,-3.6998,-3.6502,-3.5495,-3.3351,-3.2463,-3.2319,-3.0698,-3.0824,-3.2484,-3.3704,-3.4924,-3.6122,-3.7724,-3.8201,-3.7777,-3.8169,-3.7843,-3.6791,-3.6552,-3.5878,-3.4771,-3.4188,-3.4218,-3.4713,-3.4053,-3.374,-3.3649,-3.2542,-3.163,-3.0986,-3.0821,-3.0492,-3.0073,-3.0013,-2.9805,-2.9385,-2.9629,-2.9079,-2.7622,-2.8334,-2.8292,-2.7249,-2.7717,-2.8049,-2.8094,-2.8517,-2.8876,-2.9071,-2.9939,-3.0567,-3.0703,-3.1197,-3.1496,-3.1511,-3.1645,-3.1929,-3.2482,-3.3245,-3.3933,-3.4429,-3.507,-3.5489,-3.5489,-3.5489,-3.5489,-3.5489,-3.5604,-3.5909,-3.6469,-3.6472,-3.6636,-3.7126,-3.7134,-3.703,-3.7107,-3.7415,-3.7707,-3.7738,-3.7738,-3.7477,-3.7076,-3.6707,-3.6507,-3.6492,-3.6492,-3.6492,-3.6492,-3.6476,-3.6245,-3.6045,-3.6738,-3.7124,-3.6553,-3.7002,-3.753,-3.7824,-3.7482,-3.7314,-3.756,-3.7655,-3.7601,-3.7055,-3.6495,-3.5959,-4.2699,-4.2041,-4.0799,-3.9577,-3.8642,-3.88,-3.8385,-3.7695,-3.8286,-3.7986,-3.7063,-3.7011,-3.6959,-3.6619,-3.492,-3.4384,-3.4792,-3.4406,-3.4223,-3.4636,-3.6736,-3.7523,-3.7205,-3.8538,-3.9286,-3.9086,-3.8671,-3.8048,-3.727,-3.6701,-3.6118,-3.5474,-3.5355,-3.5295,-3.5325,-3.4726,-3.4414,-3.4414,-3.3679,-3.2991,-3.2318,-3.172,-3.1391,-3.1346,-3.1301,-3.1331,-3.1126,-3.0718,-3.0063,-2.9441,-2.9421,-2.919,-2.8573,-2.9056,-2.9412,-2.9382,-2.9472,-2.9729,-3.0253,-3.0417,-3.0763,-3.1331,-3.1436,-3.1511,-3.1555,-3.2064,-3.2437,-3.2751,-3.3694,-3.4399,-3.4548,-3.51,-3.5489,-3.5489,-3.5489,-3.5489,-3.5567,-3.5489,-3.5791,-3.6435,-3.6859,-3.7175,-3.7834,-3.8065,-3.8231,-3.8108,-3.8277,-3.84,-3.8415,-3.84,-3.84,-3.8108,-3.7369,-3.6645,-3.6569,-3.6492,-3.6492,-3.6492,-3.6492,-3.6445,-3.6553,-3.6984,-3.7431,-3.7513,-3.7607,-3.7966,-3.7903,-3.7635,-3.7373,-3.7476,-3.7711,-3.7911,-3.8051,-3.7703,-3.7214,-4.3389,-4.2563,-4.1636,-4.026,-3.8754,-3.854,-3.8185,-3.7768,-3.8056,-3.7939,-3.7547,-3.7534,-3.7338,-3.6907,-3.5547,-3.5064,-3.5211,-3.4111,-3.3728,-3.414,-3.5209,-3.5982,-3.6691,-3.7645,-3.8559,-3.9358,-3.9125,-3.8452,-3.7404,-3.6402,-3.5759,-3.5534,-3.5489,-3.5489,-3.5474,-3.522,-3.5085,-3.5055,-3.4459,-3.3948,-3.3589,-3.2647,-3.1899,-3.154,-3.1496,-3.1496,-3.1481,-3.1227,-3.0806,-3.0193,-3.0118,-2.9849,-2.9247,-2.9472,-2.9621,-2.9636,-2.9924,-3.0432,-3.1032,-3.1106,-3.1197,-3.1481,-3.1496,-3.166,-3.2079,-3.2676,-3.3245,-3.3679,-3.4173,-3.4638,-3.5026,-3.534,-3.5489,-3.5489,-3.5572,-3.5771,-3.6162,-3.6305,-3.6763,-3.7763,-3.7858,-3.7992,-3.8528,-3.8588,-3.8506,-3.8585,-3.8816,-3.9093,-3.9108,-3.9075,-3.9108,-3.8967,-3.8277,-3.7584,-3.7184,-3.6722,-3.6584,-3.6507,-3.6492,-3.6553,-3.7107,-3.7646,-3.814,-3.8318,-3.835,-3.8308,-3.8246,-3.7651,-3.721,-3.7344,-3.7447,-3.7653,-3.777,-3.7581,-3.7112,-4.3878,-4.2965,-4.195,-4.0562,-3.8918,-3.8326,-3.7965,-3.7691,-3.7821,-3.7821,-3.7678,-3.7821,-3.7665,-3.7155,-3.6201,-3.5808,-3.5653,-3.4188,-3.3662,-3.4006,-3.4145,-3.4933,-3.6154,-3.696,-3.8039,-3.9226,-3.9373,-3.8811,-3.7644,-3.6402,-3.5774,-3.5759,-3.5594,-3.5489,-3.5489,-3.5489,-3.5489,-3.5459,-3.4996,-3.4698,-3.4414,-3.3544,-3.2617,-3.1869,-3.1765,-3.1705,-3.1511,-3.1331,-3.1002,-3.0537,-3.0492,-3.0313,-2.9879,-3.0013,-3.0118,-3.0148,-3.0537,-3.0972,-3.1466,-3.1496,-3.1496,-3.1496,-3.1496,-3.1795,-3.2437,-3.3125,-3.3769,-3.4384,-3.4668,-3.4996,-3.5385,-3.5687,-3.5824,-3.5857,-3.611,-3.6554,-3.6977,-3.72,-3.7707,-3.8774,-3.8678,-3.8812,-3.9336,-3.9299,-3.917,-3.9182,-3.9474,-3.9751,-3.9751,-3.9767,-3.9801,-3.9736,-3.9182,-3.8539,-3.7908,-3.7492,-3.7076,-3.7046,-3.7138,-3.7338,-3.7754,-3.8338,-3.8785,-3.8917,-3.8884,-3.8784,-3.8591,-3.7919,-3.7321,-3.7464,-3.7535,-3.7594,-3.7844,-3.7419,-3.7089,-4.4087,-4.3298,-4.1362,-4.0174,-3.9395,-3.8379,-3.7573,-3.7142,-3.7665,-3.7586,-3.7207,-3.7665,-3.7887,-3.7782,-3.7142,-3.7021,-3.7057,-3.5831,-3.508,-3.4891,-3.4948,-3.5463,-3.6294,-3.6997,-3.8003,-3.9235,-3.9388,-3.902,-3.8257,-3.703,-3.6432,-3.6402,-3.5804,-3.5489,-3.5489,-3.5489,-3.5489,-3.5474,-3.5415,-3.5145,-3.4608,-3.4444,-3.3739,-3.2602,-3.2437,-3.2168,-3.16,-3.0913,-3.0582,-3.0522,-3.0552,-3.0507,-3.0522,-3.1032,-3.1331,-3.1346,-3.1406,-3.1451,-3.1481,-3.1496,-3.1496,-3.1511,-3.1555,-3.1809,-3.2557,-3.3215,-3.3858,-3.4474,-3.5087,-3.5462,-3.5627,-3.6072,-3.6499,-3.6682,-3.7346,-3.7719,-3.7934,-3.7998,-3.8269,-3.8911,-3.9173,-3.9431,-4.0224,-4.0443,-4.012,-4.009,-4.0305,-4.0274,-4.0151,-4.0259,-4.029,-4.0182,-3.9782,-3.9247,-3.8646,-3.8169,-3.8215,-3.8138,-3.7984,-3.8338,-3.8613,-3.8921,-3.9231,-3.9498,-3.9539,-3.941,-3.9027,-3.8592,-3.8082,-3.7912,-3.7788,-3.7857,-3.7844,-3.7653,-3.7358,-4.4115,-4.3484,-4.2012,-4.0878,-3.9974,-3.8891,-3.7887,-3.709,-3.7639,-3.756,-3.7181,-3.7639,-3.79,-3.7887,-3.7678,-3.7216,-3.6552,-3.5883,-3.5136,-3.4403,-3.4454,-3.4871,-3.5551,-3.6288,-3.7368,-3.8532,-3.9141,-3.9065,-3.8317,-3.7105,-3.6492,-3.6387,-3.5818,-3.5489,-3.5489,-3.5489,-3.5489,-3.5489,-3.5489,-3.537,-3.513,-3.513,-3.4487,-3.3245,-3.314,-3.3036,-3.2796,-3.2153,-3.1794,-3.1794,-3.1376,-3.1137,-3.1152,-3.1361,-3.1496,-3.1496,-3.1496,-3.1496,-3.1496,-3.1496,-3.1496,-3.1525,-3.1914,-3.2422,-3.3095,-3.3739,-3.4429,-3.5028,-3.5409,-3.5756,-3.6135,-3.6167,-3.6411,-3.7183,-3.7446,-3.7964,-3.8623,-3.8935,-3.9198,-3.9753,-3.9695,-3.9579,-3.9674,-3.949,-3.9213,-3.9198,-3.9213,-3.9277,-3.9323,-3.9585,-3.9859,-3.9905,-4.0013,-4.0043,-3.9859,-3.897,-3.8508,-3.8492,-3.8508,-3.8785,-3.9044,-3.9259,-3.9554,-3.9893,-4.0031,-3.9647,-3.9142,-3.8449,-3.8104,-3.7729,-3.7653,-3.7711,-3.774,-3.7623,-3.7462,-4.3865,-4.3232,-4.2209,-4.1247,-4.0294,-3.9194,-3.8174,-3.7377,-3.7717,-3.7678,-3.7429,-3.773,-3.79,-3.79,-3.79,-3.7377,-3.6406,-3.6054,-3.5541,-3.4813,-3.4154,-3.4307,-3.5123,-3.5676,-3.6512,-3.7601,-3.8631,-3.8916,-3.8631,-3.7629,-3.7015,-3.6776,-3.6133,-3.5699,-3.5549,-3.5489,-3.5489,-3.5474,-3.5295,-3.516,-3.5145,-3.4951,-3.4442,-3.3664,-3.3499,-3.338,-3.3185,-3.2721,-3.2632,-3.2721,-3.2407,-3.2049,-3.1854,-3.1824,-3.172,-3.154,-3.1496,-3.1496,-3.1496,-3.1496,-3.16,-3.1809,-3.2228,-3.2856,-3.3709,-3.428,-3.4851,-3.5424,-3.5959,-3.6373,-3.6841,-3.6786,-3.7016,-3.8001,-3.8202,-3.8568,-3.9523,-3.9745,-3.9905,-3.9936,-3.9505,-3.9198,-3.9154,-3.88,-3.8616,-3.8508,-3.8508,-3.8508,-3.86,-3.8862,-3.92,-3.9247,-3.9705,-3.9951,-3.9982,-3.9474,-3.9336,-3.937,-3.9262,-3.9398,-3.949,-3.9674,-3.9859,-4.0213,-4.0136,-3.9724,-3.9128,-3.8427,-3.7857,-3.7429,-3.7344,-3.7449,-3.7551,-3.7682,-3.7492,-4.3375,-4.284,-4.1708,-4.0994,-4.0374,-3.9286,-3.8436,-3.7913,-3.7874,-3.7835,-3.7691,-3.7874,-3.79,-3.79,-3.79,-3.756,-3.7014,-3.6567,-3.6546,-3.6536,-3.4529,-3.4142,-3.5229,-3.5483,-3.5899,-3.6654,-3.7807,-3.8751,-3.9155,-3.8512,-3.7928,-3.7389,-3.6791,-3.6193,-3.5534,-3.5594,-3.5549,-3.5415,-3.4966,-3.4653,-3.4459,-3.4128,-3.3769,-3.3529,-3.3499,-3.32,-3.2602,-3.2512,-3.2766,-3.3275,-3.329,-3.311,-3.2407,-3.2318,-3.2168,-3.16,-3.1496,-3.1496,-3.1496,-3.1555,-3.1884,-3.2288,-3.2512,-3.3215,-3.4159,-3.4644,-3.5053,-3.5748,-3.6392,-3.7175,-3.7828,-3.7989,-3.8348,-3.9225,-3.9577,-3.9952,-4.0317,-4.0443,-4.0228,-3.9613,-3.8985,-3.8554,-3.8492,-3.8323,-3.8215,-3.8215,-3.8246,-3.8231,-3.82,-3.8354,-3.8492,-3.8692,-3.9231,-3.9736,-3.989,-4.0013,-4.0243,-4.0382,-4.0243,-4.0228,-4.0136,-4.0213,-4.0182,-4.0443,-4.0443,-3.9997,-3.92,-3.8484,-3.7807,-3.7421,-3.7357,-3.7257,-3.7389,-3.7492,-3.7447,-4.3505,-4.3266,-4.2269,-4.1466,-4.0845,-3.9799,-3.8802,-3.7939,-3.79,-3.7665,-3.7416,-3.773,-3.79,-3.79,-3.79,-3.7795,-3.756,-3.7074,-3.6861,-3.681,-3.6472,-3.5792,-3.5438,-3.6212,-3.6821,-3.7149,-3.7973,-3.8497,-3.8646,-3.8497,-3.8257,-3.7988,-3.7434,-3.6806,-3.6193,-3.6178,-3.5998,-3.5534,-3.531,-3.519,-3.5175,-3.4966,-3.4442,-3.3604,-3.3499,-3.3185,-3.2572,-3.2497,-3.2617,-3.2841,-3.2363,-3.2019,-3.1869,-3.1809,-3.172,-3.154,-3.1496,-3.1496,-3.1555,-3.1914,-3.2213,-3.2647,-3.3305,-3.3963,-3.4474,-3.5112,-3.5705,-3.6265,-3.6474,-3.7048,-3.8406,-3.8455,-3.8812,-3.9868,-3.9879,-3.999,-4.0366,-4.009,-3.9751,-3.9413,-3.8523,-3.7908,-3.7738,-3.7538,-3.7246,-3.723,-3.7215,-3.7215,-3.7215,-3.7646,-3.8046,-3.8431,-3.9046,-3.9598,-3.989,-4.0136,-4.0366,-4.0489,-4.0489,-4.0489,-4.0489,-4.0489,-4.0489,-4.0489,-4.0489,-4.012,-3.929,-3.8618,-3.7958,-3.7435,-3.7235,-3.7232,-3.7272,-3.727,-3.727,-4.3232,-4.2929,-4.2128,-4.1452,-4.0821,-3.9931,-3.9076,-3.8187,-3.7743,-3.7482,-3.7416,-3.7482,-3.7704,-3.7861,-3.79,-3.79,-3.7861,-3.7495,-3.7234,-3.6906,-3.6563,-3.6032,-3.5166,-3.5754,-3.6719,-3.7321,-3.7599,-3.7943,-3.8377,-3.8377,-3.8377,-3.8287,-3.7973,-3.7315,-3.6582,-3.6477,-3.6163,-3.5579,-3.525,-3.5115,-3.507,-3.4876,-3.4233,-3.329,-3.3125,-3.2796,-3.2213,-3.2123,-3.2363,-3.2706,-3.2467,-3.2138,-3.1914,-3.1884,-3.1765,-3.154,-3.1496,-3.1496,-3.154,-3.1854,-3.2557,-3.32,-3.4039,-3.479,-3.5289,-3.6064,-3.6723,-3.6776,-3.7308,-3.7945,-3.9017,-3.9263,-3.9508,-4.0228,-4.0063,-4.0025,-4.032,-3.9659,-3.9167,-3.8846,-3.7954,-3.7307,-3.6999,-3.6846,-3.6492,-3.6492,-3.6492,-3.6492,-3.663,-3.7107,-3.7661,-3.8292,-3.8954,-3.9493,-3.9967,-4.0243,-4.0459,-4.0489,-4.0489,-4.0489,-4.0489,-4.0489,-4.0489,-4.0489,-4.0489,-4.0182,-3.9444,-3.8846,-3.8202,-3.7743,-3.7234,-3.7033,-3.7014,-3.7135,-3.7165,-4.2582,-4.2029,-4.1498,-4.101,-4.051,-3.9873,-3.9298,-3.8645,-3.7612,-3.7429,-3.7678,-3.7416,-3.7442,-3.7821,-3.79,-3.79,-3.7887,-3.7848,-3.77,-3.6994,-3.5932,-3.5049,-3.5254,-3.4773,-3.5449,-3.6831,-3.6791,-3.7165,-3.8018,-3.8287,-3.8377,-3.8362,-3.8392,-3.7853,-3.6985,-3.6626,-3.6282,-3.5669,-3.4981,-3.4728,-3.4683,-3.4113,-3.3425,-3.2766,-3.2691,-3.2377,-3.172,-3.163,-3.2108,-3.3155,-3.308,-3.2751,-3.2497,-3.2452,-3.2019,-3.1525,-3.1496,-3.1496,-3.1511,-3.1839,-3.2557,-3.4099,-3.4638,-3.5197,-3.6466,-3.7219,-3.7628,-3.7534,-3.8404,-3.9275,-3.9598,-3.9874,-4.0259,-4.0409,-4.0309,-4.0339,-4.0366,-3.937,-3.8754,-3.8369,-3.74,-3.6507,-3.6584,-3.6522,-3.6507,-3.6492,-3.6492,-3.6492,-3.663,-3.6999,-3.7415,-3.8108,-3.8923,-3.9505,-4.0074,-4.0305,-4.0489,-4.0489,-4.0489,-4.0489,-4.0489,-4.0489,-4.0489,-4.0489,-4.0459,-4.0105,-3.9736,-3.9167,-3.8554,-3.7955,-3.748,-3.6956,-3.6785,-3.6892,-3.6953,-4.2582,-4.2029,-4.1511,-4.1232,-4.0932,-4.0043,-3.952,-3.922,-3.8122,-3.7691,-3.7848,-3.7743,-3.7704,-3.7887,-3.79,-3.79,-3.79,-3.79,-3.8018,-3.7822,-3.6439,-3.5804,-3.5603,-3.4688,-3.4778,-3.5952,-3.6342,-3.6656,-3.7045,-3.7913,-3.8347,-3.8407,-3.8856,-3.8706,-3.7958,-3.736,-3.6851,-3.6237,-3.5564,-3.5205,-3.5175,-3.504,-3.4397,-3.335,-3.3215,-3.2602,-3.1645,-3.1496,-3.16,-3.1944,-3.2019,-3.1974,-3.1824,-3.1795,-3.172,-3.1555,-3.1496,-3.1511,-3.169,-3.2363,-3.3395,-3.4429,-3.5355,-3.633,-3.7113,-3.7684,-3.8144,-3.837,-3.88,-3.9213,-3.9905,-3.9967,-4.0043,-4.0413,-4.047,-4.047,-4.0274,-3.937,-3.8508,-3.8369,-3.7292,-3.6645,-3.6492,-3.6492,-3.6492,-3.6492,-3.6492,-3.6492,-3.663,-3.7169,-3.7707,-3.8323,-3.9046,-3.9613,-4.0105,-4.0351,-4.0489,-4.0489,-4.0489,-4.0489,-4.0489,-4.0489,-4.0489,-4.0489,-4.0489,-4.0259,-4.0059,-3.9705,-3.9031,-3.8154,-3.7586,-3.7048,-3.6708,-3.6647,-3.6647,-4.2595,-4.2043,-4.1511,-4.1167,-4.084,-3.9978,-3.9468,-3.9037,-3.8044,-3.7691,-3.7808,-3.7625,-3.7665,-3.7887,-3.79,-3.79,-3.79,-3.79,-3.7674,-3.7086,-3.595,-3.5467,-3.5358,-3.4705,-3.4809,-3.5463,-3.5878,-3.6222,-3.6626,-3.7509,-3.8063,-3.8467,-3.908,-3.9035,-3.8332,-3.7734,-3.7105,-3.6477,-3.5863,-3.5489,-3.5489,-3.5489,-3.4756,-3.3784,-3.3469,-3.2886,-3.1705,-3.1496,-3.1496,-3.1511,-3.1511,-3.1496,-3.1496,-3.1496,-3.1496,-3.1496,-3.1496,-3.16,-3.1989,-3.2706,-3.3784,-3.5087,-3.6148,-3.6982,-3.7914,-3.8527,-3.9059,-3.913,-3.9269,-3.9736,-4.0197,-4.012,-4.012,-4.0413,-4.0489,-4.0489,-4.0489,-3.9305,-3.8631,-3.82,-3.7384,-3.6492,-3.6492,-3.6492,-3.6492,-3.6492,-3.6492,-3.6492,-3.6584,-3.7338,-3.8,-3.8508,-3.9231,-3.9905,-4.0182,-4.0366,-4.0366,-4.0382,-4.0489,-4.0489,-4.0489,-4.0489,-4.0489,-4.0489,-4.0489,-4.0443,-4.0259,-3.9859,-3.8985,-3.82,-3.7646,-3.7107,-3.6692,-3.6492,-3.6492,-4.2484,-4.1993,-4.1498,-4.0971,-4.0396,-3.9834,-3.9285,-3.8593,-3.7665,-3.7469,-3.7717,-3.7351,-3.7521,-3.79,-3.79,-3.79,-3.79,-3.79,-3.7155,-3.6289,-3.5283,-3.4781,-3.4798,-3.4887,-3.4953,-3.5292,-3.5407,-3.5833,-3.6372,-3.7045,-3.7704,-3.8272,-3.8975,-3.908,-3.8601,-3.7913,-3.7225,-3.6671,-3.6058,-3.5639,-3.5534,-3.5459,-3.4891,-3.3933,-3.3529,-3.3021,-3.2138,-3.1824,-3.1809,-3.175,-3.1585,-3.1496,-3.1511,-3.1525,-3.1555,-3.157,-3.1645,-3.1914,-3.2407,-3.2766,-3.3844,-3.5848,-3.6537,-3.7365,-3.87,-3.946,-3.9721,-3.9615,-4.0166,-4.0336,-4.0443,-4.0459,-4.0443,-4.0489,-4.0489,-4.0489,-4.0259,-3.9339,-3.8508,-3.8431,-3.7307,-3.663,-3.6492,-3.6492,-3.6492,-3.6492,-3.6492,-3.6492,-3.6707,-3.7323,-3.7923,-3.8446,-3.9308,-4.0243,-4.0351,-4.0382,-4.029,-4.0243,-4.0428,-4.0489,-4.0489,-4.0489,-4.0489,-4.0489,-4.0489,-4.0489,-4.0428,-3.9797,-3.8939,-3.8292,-3.7738,-3.7092,-3.6522,-3.6507,-3.6492,-4.1931,-4.1461,-4.1361,-4.0971,-4.0383,-3.9834,-3.9259,-3.8632,-3.7991,-3.7756,-3.7848,-3.7743,-3.7769,-3.79,-3.79,-3.79,-3.7887,-3.7821,-3.7246,-3.6123,-3.5456,-3.4643,-3.4344,-3.4556,-3.4747,-3.4806,-3.5246,-3.5561,-3.5953,-3.6836,-3.7464,-3.7749,-3.8811,-3.9328,-3.911,-3.8437,-3.7868,-3.7225,-3.6582,-3.5983,-3.5609,-3.5504,-3.51,-3.4233,-3.3739,-3.3395,-3.3185,-3.3066,-3.3066,-3.2841,-3.2138,-3.166,-3.1735,-3.2064,-3.2064,-3.1854,-3.2064,-3.2348,-3.2677,-3.3574,-3.4758,-3.6357,-3.7424,-3.8422,-3.9355,-3.9788,-4.0041,-4.0097,-4.0359,-4.0489,-4.0489,-4.0489,-4.0489,-4.0489,-4.0489,-4.0489,-4.029,-3.9354,-3.8662,-3.8292,-3.7446,-3.6522,-3.6538,-3.6584,-3.6569,-3.6522,-3.6492,-3.6492,-3.6846,-3.7307,-3.7861,-3.84,-3.9185,-4.0028,-4.0336,-4.0243,-3.9997,-3.9967,-4.0166,-4.0474,-4.0474,-4.0489,-4.0489,-4.0489,-4.0489,-4.0459,-4.0336,-3.9813,-3.8952,-3.84,-3.7784,-3.7123,-3.6615,-3.6569,-3.6492,-4.1993,-4.1311,-4.1311,-4.0827,-4.0069,-3.9716,-3.9128,-3.8383,-3.8057,-3.79,-3.79,-3.79,-3.79,-3.79,-3.79,-3.79,-3.7821,-3.7573,-3.6985,-3.6044,-3.526,-3.4263,-3.3657,-3.4075,-3.442,-3.4414,-3.5133,-3.5472,-3.5833,-3.6686,-3.7404,-3.7524,-3.8751,-3.9328,-3.9284,-3.8766,-3.8242,-3.7749,-3.6941,-3.6297,-3.6013,-3.5639,-3.5175,-3.4518,-3.3873,-3.3499,-3.3469,-3.3484,-3.3484,-3.332,-3.2841,-3.2422,-3.2437,-3.2781,-3.2751,-3.2587,-3.2721,-3.338,-3.3948,-3.4607,-3.5669,-3.7225,-3.8048,-3.8823,-3.9571,-3.996,-4.0137,-4.0331,-4.0455,-4.0489,-4.0489,-4.0489,-4.0489,-4.0489,-4.0489,-4.0489,-4.032,-3.9567,-3.8952,-3.88,-3.8138,-3.7661,-3.743,-3.7092,-3.6953,-3.703,-3.6522,-3.6507,-3.6661,-3.7153,-3.7815,-3.8415,-3.9077,-3.9724,-4.0136,-4.0074,-3.9659,-3.9659,-3.9767,-4.0151,-4.0428,-4.0459,-4.0489,-4.0489,-4.0489,-4.0182,-3.9982,-3.9444,-3.8844,-3.8077,-3.74,-3.6969,-3.6676,-3.6553,-3.6492,-4.2155,-4.1298,-4.1219,-4.0566,-3.9677,-3.9494,-3.8867,-3.8004,-3.79,-3.79,-3.79,-3.79,-3.79,-3.79,-3.79,-3.79,-3.7743,-3.7299,-3.6711,-3.6044,-3.4986,-3.4053,-3.3446,-3.378,-3.4228,-3.437,-3.5118,-3.5487,-3.5983,-3.6761,-3.7479,-3.7764,-3.873,-3.9328,-3.9275,-3.8901,-3.8497,-3.8182,-3.7434,-3.6716,-3.6417,-3.5938,-3.54,-3.4756,-3.4307,-3.4008,-3.4023,-3.3978,-3.3888,-3.3799,-3.3799,-3.3799,-3.3769,-3.3649,-3.368,-3.3634,-3.3769,-3.4397,-3.522,-3.5789,-3.6596,-3.8272,-3.8542,-3.8988,-3.9753,-3.9996,-4.0156,-4.0366,-4.0489,-4.0489,-4.0489,-4.0489,-4.0489,-4.0489,-4.0489,-4.0489,-4.0397,-3.9967,-3.9674,-3.9321,-3.8692,-3.8169,-3.7984,-3.7754,-3.7631,-3.7415,-3.6876,-3.6538,-3.6676,-3.6907,-3.7507,-3.7938,-3.8477,-3.8692,-3.9093,-4.0228,-3.9782,-3.9413,-3.949,-3.9997,-4.0397,-4.0459,-4.0489,-4.0489,-4.0397,-4.0105,-3.9659,-3.9154,-3.8477,-3.7631,-3.7092,-3.6707,-3.6569,-3.6507,-3.6492,-4.1461,-4.1272,-4.0775,-4.02,-3.9586,-3.9089,-3.8527,-3.7965,-3.79,-3.79,-3.79,-3.79,-3.79,-3.79,-3.79,-3.79,-3.7769,-3.7338,-3.6724,-3.6005,-3.4962,-3.4015,-3.3703,-3.3753,-3.4115,-3.4472,-3.5115,-3.5744,-3.6327,-3.7045,-3.7629,-3.8257,-3.9005,-3.9373,-3.9373,-3.9224,-3.8901,-3.8556,-3.8048,-3.7479,-3.6716,-3.6237,-3.5863,-3.528,-3.4996,-3.4981,-3.5055,-3.5115,-3.5175,-3.5175,-3.5175,-3.513,-3.4966,-3.4577,-3.4459,-3.4533,-3.4906,-3.5579,-3.6312,-3.6836,-3.7464,-3.8302,-3.8906,-3.9349,-3.9859,-4.0046,-4.0191,-4.0401,-4.0489,-4.0489,-4.0489,-4.0489,-4.0489,-4.0489,-4.0489,-4.0489,-4.0459,-4.0305,-4.0043,-3.9674,-3.9077,-3.8646,-3.8631,-3.8415,-3.8031,-3.7677,-3.7138,-3.6692,-3.6569,-3.6707,-3.6984,-3.7353,-3.7677,-3.7754,-3.7846,-3.9367,-4.0013,-3.9398,-3.9477,-4.009,-4.0397,-4.0459,-4.0489,-4.0489,-4.032,-4.0028,-3.9539,-3.8862,-3.8154,-3.7384,-3.6923,-3.6507,-3.6492,-3.6492,-3.6492,-4.2029,-4.1246,-4.0608,-4.0109,-3.956,-3.8972,-3.8397,-3.7939,-3.79,-3.79,-3.79,-3.79,-3.79,-3.79,-3.79,-3.79,-3.7795,-3.7652,-3.6959,-3.607,-3.4962,-3.4177,-3.3826,-3.3756,-3.3663,-3.4045,-3.4883,-3.5863,-3.6492,-3.7105,-3.7764,-3.8392,-3.9065,-3.9373,-3.9388,-3.9358,-3.9194,-3.8886,-3.8542,-3.7958,-3.6956,-3.6432,-3.5789,-3.5624,-3.5504,-3.5489,-3.5489,-3.5489,-3.5489,-3.5474,-3.5474,-3.5489,-3.5489,-3.5564,-3.5537,-3.5624,-3.6118,-3.6776,-3.733,-3.7808,-3.8212,-3.8826,-3.9316,-3.9681,-3.9925,-4.0117,-4.0261,-4.0436,-4.0489,-4.0489,-4.0489,-4.0489,-4.0489,-4.0489,-4.0489,-4.0455,-4.0489,-4.0489,-4.0274,-3.9997,-3.9813,-3.9598,-3.9536,-3.9152,-3.8539,-3.7954,-3.743,-3.703,-3.6692,-3.6784,-3.7015,-3.7461,-3.7908,-3.8215,-3.8246,-3.9136,-4.0043,-3.9521,-3.9493,-4.009,-4.0413,-4.0474,-4.0489,-4.0489,-4.0259,-3.9751,-3.9123,-3.8354,-3.7738,-3.72,-3.6799,-3.6492,-3.6492,-3.6492,-3.6492,-4.2558,-4.1089,-4.0501,-3.989,-3.9377,-3.8789,-3.8305,-3.7965,-3.79,-3.79,-3.79,-3.79,-3.79,-3.79,-3.79,-3.79,-3.7887,-3.7782,-3.7037,-3.6018,-3.4805,-3.4059,-3.3976,-3.3512,-3.3367,-3.3899,-3.482,-3.5824,-3.645,-3.7112,-3.7823,-3.8586,-3.923,-3.9388,-3.9388,-3.9388,-3.9388,-3.9209,-3.8916,-3.8287,-3.7464,-3.6297,-3.5594,-3.5639,-3.5594,-3.5489,-3.5489,-3.5489,-3.5489,-3.5489,-3.5519,-3.5579,-3.5774,-3.6312,-3.6716,-3.6959,-3.736,-3.7913,-3.8392,-3.8586,-3.8811,-3.926,-3.9544,-3.9768,-3.9996,-4.0207,-4.0416,-4.047,-4.0489,-4.0489,-4.0489,-4.0489,-4.0489,-4.0455,-4.042,-4.0351,-4.042,-4.042,-4.0351,-4.0293,-4.0455,-4.0366,-4.0105,-3.9644,-3.897,-3.8662,-3.8138,-3.7754,-3.743,-3.7292,-3.7523,-3.7969,-3.8431,-3.8923,-3.9121,-3.9305,-3.9797,-3.9551,-3.9674,-4.0197,-4.0382,-4.0489,-4.0459,-4.0305,-3.9613,-3.9075,-3.8462,-3.7969,-3.7446,-3.7015,-3.6661,-3.6492,-3.6492,-3.6492,-3.6492,-4.2129,-4.0474,-3.9939,-3.9364,-3.8802,-3.8266,-3.7991,-3.7913,-3.79,-3.79,-3.79,-3.79,-3.79,-3.79,-3.79,-3.79,-3.7756,-3.7377,-3.6828,-3.5953,-3.4622,-3.4193,-3.4487,-3.3611,-3.364,-3.4045,-3.4997,-3.5758,-3.6394,-3.704,-3.8043,-3.902,-3.929,-3.9388,-3.9388,-3.9388,-3.9388,-3.9358,-3.9305,-3.8901,-3.8063,-3.6507,-3.6058,-3.6088,-3.5893,-3.5639,-3.5669,-3.5654,-3.5564,-3.5639,-3.5579,-3.5818,-3.6342,-3.6956,-3.7584,-3.7973,-3.8302,-3.8571,-3.9044,-3.9149,-3.92,-3.9394,-3.9574,-3.9768,-4.0051,-4.0296,-4.047,-4.0505,-4.0489,-4.0489,-4.0489,-4.0489,-4.0489,-4.0385,-4.0231,-4.0281,-4.0351,-4.0385,-4.0316,-4.0385,-4.0489,-4.0489,-4.0366,-3.9874,-3.9431,-3.9185,-3.8877,-3.8477,-3.8123,-3.7923,-3.8046,-3.8492,-3.8816,-3.9244,-3.9644,-3.9874,-3.9859,-3.9659,-3.992,-4.029,-4.0382,-4.0443,-4.0182,-3.9905,-3.9213,-3.8752,-3.8446,-3.7954,-3.7292,-3.6861,-3.6569,-3.6492,-3.6492,-3.6492,-3.6492,-4.229,-4.037,-3.9821,-3.9259,-3.8671,-3.8135,-3.79,-3.79,-3.79,-3.79,-3.79,-3.79,-3.79,-3.79,-3.79,-3.79,-3.7756,-3.7273,-3.6684,-3.5992,-3.4824,-3.4366,-3.4471,-3.3784,-3.3507,-3.4307,-3.5049,-3.5703,-3.6342,-3.7109,-3.8093,-3.9194,-3.9388,-3.9388,-3.9388,-3.9388,-3.9388,-3.9269,-3.9035,-3.8706,-3.8153,-3.73,-3.6701,-3.6956,-3.6372,-3.6282,-3.6327,-3.5789,-3.5983,-3.6252,-3.6327,-3.6372,-3.6985,-3.7584,-3.8138,-3.8317,-3.8781,-3.9095,-3.9313,-3.9373,-3.9388,-3.9496,-3.9696,-3.9996,-4.0226,-4.0401,-4.0489,-4.0489,-4.0489,-4.0489,-4.0489,-4.0489,-4.0489,-4.0385,-4.0161,-4.0281,-4.0366,-4.0316,-4.0351,-4.042,-4.0489,-4.0489,-4.0489,-4.0243,-3.9813,-3.9524,-3.9293,-3.9,-3.8631,-3.8323,-3.8585,-3.9046,-3.9259,-3.9521,-3.992,-4.0228,-4.0243,-4.0136,-4.0136,-4.0413,-4.0443,-4.0382,-4.0166,-3.9782,-3.9213,-3.8813,-3.846,-3.7723,-3.6876,-3.6645,-3.6507,-3.6492,-3.6492,-3.6492,-3.6492,-4.2394,-4.0311,-3.9642,-3.905,-3.8488,-3.807,-3.79,-3.79,-3.79,-3.79,-3.79,-3.79,-3.79,-3.79,-3.79,-3.79,-3.7848,-3.7273,-3.6802,-3.6057,-3.5194,-3.4768,-3.4599,-3.3941,-3.3467,-3.4341,-3.4976,-3.563,-3.6415,-3.7257,-3.8317,-3.9343,-3.9388,-3.9388,-3.9388,-3.9388,-3.9388,-3.9343,-3.8781,-3.8571,-3.8482,-3.7808,-3.7554,-3.7404,-3.715,-3.6926,-3.7165,-3.6641,-3.6671,-3.6985,-3.6956,-3.7,-3.7644,-3.8048,-3.8467,-3.8721,-3.9104,-3.9298,-3.9373,-3.9388,-3.9409,-3.9589,-3.9803,-4.0156,-4.0401,-4.0489,-4.0489,-4.0489,-4.0489,-4.0489,-4.0489,-4.0489,-4.0489,-4.042,-4.0281,-4.0385,-4.042,-4.0281,-4.0281,-4.0455,-4.0489,-4.0489,-4.0489,-4.0489,-4.0243,-3.9874,-3.9628,-3.9444,-3.9247,-3.8954,-3.9231,-3.9659,-3.9767,-3.9936,-4.0136,-4.0428,-4.0474,-4.0489,-4.0489,-4.0489,-4.0489,-4.0428,-4.0274,-3.9797,-3.9228,-3.8616,-3.8108,-3.7261,-3.6492,-3.6492,-3.6492,-3.6492,-3.6492,-3.6492,-3.6492,-4.2153,-4.0027,-3.915,-3.8508,-3.8024,-3.7926,-3.79,-3.79,-3.79,-3.79,-3.79,-3.79,-3.79,-3.79,-3.79,-3.79,-3.7874,-3.7273,-3.6972,-3.6345,-3.5401,-3.5063,-3.4799,-3.4158,-3.347,-3.4394,-3.5018,-3.565,-3.6535,-3.7792,-3.862,-3.9305,-3.9373,-3.9388,-3.9388,-3.9388,-3.9388,-3.9284,-3.8826,-3.8811,-3.8781,-3.8332,-3.7868,-3.8093,-3.7734,-3.7375,-3.7419,-3.7195,-3.73,-3.7599,-3.7464,-3.7674,-3.8242,-3.8452,-3.8781,-3.9125,-3.9254,-3.9388,-3.9388,-3.9424,-3.9481,-3.9717,-4.0016,-4.0296,-4.047,-4.0489,-4.0489,-4.0489,-4.0489,-4.0489,-4.0489,-4.0489,-4.0489,-4.042,-4.0351,-4.0351,-4.0316,-4.0141,-4.0176,-4.0385,-4.0489,-4.0489,-4.0489,-4.0489,-4.0489,-4.0151,-4.0136,-3.9951,-4.0059,-3.989,-4.0028,-4.0274,-4.032,-4.0382,-4.0397,-4.0489,-4.0489,-4.0489,-4.0489,-4.0489,-4.0489,-4.0413,-4.0351,-3.9813,-3.9247,-3.8477,-3.7723,-3.7061,-3.6599,-3.6522,-3.6492,-3.6492,-3.6492,-3.6492,-3.6492,-4.2318,-4.0916,-3.9591,-3.8871,-3.8626,-3.8103,-3.79,-3.79,-3.79,-3.79,-3.79,-3.79,-3.79,-3.79,-3.79,-3.79,-3.7808,-3.7273,-3.709,-3.658,-3.5798,-3.5399,-3.501,-3.4262,-3.356,-3.4723,-3.5265,-3.5909,-3.7055,-3.8281,-3.8934,-3.9328,-3.9388,-3.9388,-3.9388,-3.9388,-3.9388,-3.9343,-3.9185,-3.9215,-3.9185,-3.908,-3.8781,-3.8916,-3.8362,-3.8302,-3.8467,-3.7778,-3.8018,-3.8272,-3.8182,-3.8452,-3.8826,-3.8931,-3.911,-3.9343,-3.9388,-3.9424,-3.9424,-3.9424,-3.9517,-3.9854,-4.0137,-4.0347,-4.047,-4.0489,-4.0489,-4.0489,-4.0489,-4.0489,-4.0489,-4.0489,-4.0489,-4.042,-4.0385,-4.0351,-4.0281,-4.0141,-4.0141,-4.0455,-4.0489,-4.0489,-4.0489,-4.0489,-4.0489,-4.0459,-4.0489,-4.0489,-4.0489,-4.0489,-4.0489,-4.0489,-4.0489,-4.0489,-4.0489,-4.0489,-4.0489,-4.0489,-4.0489,-4.0489,-4.0489,-4.0489,-4.0336,-3.9797,-3.9293,-3.86,-3.7861,-3.7092,-3.6692,-3.6538,-3.6492,-3.6492,-3.6492,-3.6492,-3.6492,-4.2338,-4.1193,-3.9771,-3.9033,-3.876,-3.8148,-3.79,-3.79,-3.79,-3.79,-3.79,-3.79,-3.79,-3.79,-3.79,-3.79,-3.7808,-3.7521,-3.7351,-3.6854,-3.6258,-3.5718,-3.5048,-3.4396,-3.3896,-3.5131,-3.5709,-3.6272,-3.7719,-3.885,-3.9254,-3.9373,-3.9388,-3.9388,-3.9388,-3.9388,-3.9388,-3.9388,-3.9388,-3.9388,-3.9409,-3.9343,-3.9313,-3.9313,-3.8901,-3.8901,-3.9005,-3.8616,-3.8551,-3.8901,-3.9005,-3.899,-3.9194,-3.9388,-3.9388,-3.9388,-3.9388,-3.9424,-3.946,-3.9517,-3.9625,-3.9925,-4.0172,-4.0347,-4.0436,-4.047,-4.0489,-4.0489,-4.0489,-4.0489,-4.0489,-4.0489,-4.0489,-4.0455,-4.0455,-4.042,-4.042,-4.0351,-4.0385,-4.0489,-4.0489,-4.0489,-4.0489,-4.0489,-4.0489,-4.0489,-4.0489,-4.0489,-4.0489,-4.0489,-4.0489,-4.0489,-4.0489,-4.0489,-4.0489,-4.0489,-4.0489,-4.0489,-4.0489,-4.0489,-4.0489,-4.0489,-4.0459,-4.0151,-3.9585,-3.88,-3.8015,-3.7246,-3.6815,-3.6507,-3.6492,-3.6492,-3.6492,-3.6492,-3.6492,-4.2122,-4.0546,-3.9651,-3.876,-3.8148,-3.7946,-3.79,-3.79,-3.79,-3.79,-3.79,-3.79,-3.79,-3.79,-3.79,-3.79,-3.79,-3.7821,-3.7782,-3.7456,-3.652,-3.5944,-3.5278,-3.4662,-3.438,-3.5224,-3.5975,-3.698,-3.8302,-3.902,-3.9328,-3.9388,-3.9388,-3.9388,-3.9388,-3.9388,-3.9388,-3.9388,-3.9388,-3.9388,-3.9388,-3.9388,-3.9388,-3.9343,-3.932,-3.9284,-3.926,-3.9215,-3.9119,-3.9239,-3.9298,-3.9269,-3.9358,-3.9388,-3.9388,-3.9388,-3.9388,-3.9496,-3.9661,-3.9681,-3.9768,-3.9975,-4.0172,-4.0312,-4.0331,-4.0401,-4.0489,-4.0489,-4.0489,-4.0489,-4.0489,-4.0489,-4.0489,-4.0489,-4.0489,-4.0489,-4.0489,-4.0489,-4.0489,-4.0489,-4.0489,-4.0489,-4.0489,-4.0489,-4.0489,-4.0489,-4.0489,-4.0489,-4.0489,-4.0489,-4.0489,-4.0489,-4.0489,-4.0489,-4.0489,-4.0489,-4.0489,-4.0489,-4.0489,-4.0489,-4.0489,-4.0489,-4.0443,-4.0382,-3.9647,-3.8646,-3.8015,-3.7415,-3.6938,-3.6492,-3.6492,-3.6492,-3.6492,-3.6492,-3.6492,-4.255,-4.1421,-4.0504,-3.9607,-3.8729,-3.8148,-3.79,-3.79,-3.79,-3.79,-3.79,-3.79,-3.79,-3.79,-3.79,-3.79,-3.79,-3.79,-3.79,-3.7743,-3.6698,-3.6287,-3.5708,-3.5191,-3.4988,-3.5849,-3.6634,-3.7414,-3.8362,-3.908,-3.9328,-3.9388,-3.9388,-3.9388,-3.9388,-3.9388,-3.9388,-3.9388,-3.9388,-3.9388,-3.9388,-3.9388,-3.9388,-3.9388,-3.9388,-3.9388,-3.9388,-3.9388,-3.9388,-3.9388,-3.9388,-3.9388,-3.9388,-3.9388,-3.9388,-3.9388,-3.9409,-3.9496,-3.9589,-3.961,-3.9676,-3.9925,-4.0137,-4.0312,-4.0436,-4.047,-4.0489,-4.0459,-4.0413,-4.0413,-4.0489,-4.0489,-4.0489,-4.0489,-4.0489,-4.0489,-4.0489,-4.0489,-4.0489,-4.0489,-4.0489,-4.0489,-4.0489,-4.0489,-4.0489,-4.0489,-4.0489,-4.0489,-4.0489,-4.0489,-4.0489,-4.0489,-4.0489,-4.0489,-4.0489,-4.0489,-4.0489,-4.0489,-4.0489,-4.0489,-4.0489,-4.0558,-4.0509,-4.0462,-3.9462,-3.8462,-3.7861,-3.7292,-3.6815,-3.6492,-3.6492,-3.6492,-3.6492,-3.6492,-3.6492,-4.2739,-4.1589,-4.0901,-3.9869,-3.876,-3.8148,-3.79,-3.79,-3.79,-3.79,-3.79,-3.79,-3.79,-3.79,-3.79,-3.79,-3.79,-3.79,-3.79,-3.7756,-3.692,-3.6322,-3.5847,-3.5748,-3.5784,-3.6444,-3.7207,-3.8083,-3.876,-3.92,-3.9358,-3.9388,-3.9388,-3.9388,-3.9388,-3.9388,-3.9388,-3.9388,-3.9388,-3.9388,-3.9388,-3.9388,-3.9388,-3.9388,-3.9388,-3.9388,-3.9388,-3.9388,-3.9388,-3.9388,-3.9388,-3.9388,-3.9388,-3.9388,-3.9388,-3.9388,-3.9481,-3.9532,-3.9517,-3.9711,-3.9783,-3.996,-4.0137,-4.0261,-4.0309,-4.0209,-4.012,-4.0105,-4.0151,-4.0136,-4.012,-4.0166,-4.0428,-4.0428,-4.0474,-4.0474,-4.0489,-4.0489,-4.0489,-4.0489,-4.0489,-4.0489,-4.0489,-4.0489,-4.0489,-4.0489,-4.0489,-4.0489,-4.0489,-4.0489,-4.0489,-4.0489,-4.0489,-4.0489,-4.0489,-4.0489,-4.0489,-4.0489,-4.0524,-4.0593,-4.0646,-4.0749,-4.0646,-4.0458,-3.9592,-3.8678,-3.7788,-3.7138,-3.6692,-3.6492,-3.6492,-3.6492,-3.6492,-3.6554,-3.6585,-4.2603,-4.1028,-4.0717,-3.9634,-3.8148,-3.7992,-3.79,-3.79,-3.79,-3.79,-3.79,-3.79,-3.79,-3.79,-3.79,-3.79,-3.79,-3.79,-3.79,-3.7665,-3.7011,-3.6332,-3.6169,-3.629,-3.6336,-3.6759,-3.7521,-3.857,-3.9262,-3.9358,-3.9373,-3.9388,-3.9388,-3.9388,-3.9388,-3.9388,-3.9388,-3.9388,-3.9388,-3.9388,-3.9388,-3.9388,-3.9388,-3.9388,-3.9388,-3.9388,-3.9388,-3.9388,-3.9388,-3.9388,-3.9388,-3.9388,-3.9388,-3.9388,-3.9388,-3.946,-3.9589,-3.9532,-3.9568,-3.9762,-3.9788,-3.9833,-3.9914,-4.006,-4.0036,-3.9779,-3.9521,-3.9459,-3.9459,-3.9459,-3.9459,-3.989,-4.0305,-4.0366,-4.0428,-4.0459,-4.0489,-4.0489,-4.0489,-4.0489,-4.0489,-4.0489,-4.0489,-4.0489,-4.0489,-4.0489,-4.0489,-4.0489,-4.0489,-4.0489,-4.0489,-4.0489,-4.0489,-4.0489,-4.0489,-4.0489,-4.0489,-4.0489,-4.0715,-4.0802,-4.087,-4.0909,-4.0816,-4.0542,-3.9799,-3.8842,-3.7528,-3.6861,-3.6599,-3.6523,-3.6616,-3.6585,-3.6616,-3.6723,-3.6754,-4.29,-4.163,-4.0901,-3.9899,-3.8805,-3.8148,-3.79,-3.79,-3.79,-3.79,-3.79,-3.79,-3.79,-3.79,-3.79,-3.79,-3.79,-3.79,-3.79,-3.7547,-3.6881,-3.6686,-3.6707,-3.6807,-3.6791,-3.7272,-3.8083,-3.8924,-3.8774,-3.9046,-3.9388,-3.9388,-3.9388,-3.9388,-3.9388,-3.9388,-3.9388,-3.9388,-3.9388,-3.9388,-3.9388,-3.9388,-3.9388,-3.9388,-3.9388,-3.9388,-3.9388,-3.9388,-3.9388,-3.9388,-3.9388,-3.9388,-3.9388,-3.9388,-3.9388,-3.9409,-3.9481,-3.9496,-3.9604,-3.9732,-3.9713,-3.9493,-3.9409,-3.9528,-3.948,-3.918,-3.8816,-3.88,-3.8767,-3.88,-3.8921,-3.9305,-3.9751,-3.9982,-4.0136,-4.0351,-4.0397,-4.0489,-4.0489,-4.0489,-4.0489,-4.0489,-4.0489,-4.0489,-4.0489,-4.0489,-4.0489,-4.0489,-4.0489,-4.0489,-4.0489,-4.0489,-4.0489,-4.0489,-4.0524,-4.0524,-4.0524,-4.0524,-4.0904,-4.1209,-4.1309,-4.1314,-4.1093,-4.0463,-3.9519,-3.8279,-3.6862,-3.6569,-3.6693,-3.6754,-3.6846,-3.6754,-3.6723,-3.6967,-3.7148,-4.286,-4.1589,-4.0901,-3.9869,-3.8729,-3.8103,-3.79,-3.79,-3.79,-3.79,-3.79,-3.79,-3.79,-3.79,-3.79,-3.79,-3.7887,-3.7586,-3.7495,-3.7233,-3.6572,-3.6595,-3.6794,-3.7242,-3.7374,-3.7897,-3.8486,-3.9169,-3.8848,-3.901,-3.9388,-3.9388,-3.9388,-3.9388,-3.9388,-3.9388,-3.9388,-3.9388,-3.9388,-3.9388,-3.9388,-3.9388,-3.9388,-3.9388,-3.9388,-3.9388,-3.9388,-3.9388,-3.9388,-3.9388,-3.9388,-3.9388,-3.9388,-3.9388,-3.9388,-3.9388,-3.9424,-3.9517,-3.9615,-3.9451,-3.9358,-3.9104,-3.8733,-3.8494,-3.8486,-3.8308,-3.8169,-3.8108,-3.8108,-3.8169,-3.8367,-3.8644,-3.9075,-3.949,-3.9828,-4.0182,-4.0336,-4.0474,-4.0489,-4.0489,-4.0489,-4.0489,-4.0489,-4.0489,-4.0489,-4.0489,-4.0489,-4.0489,-4.0489,-4.0489,-4.0489,-4.0489,-4.0489,-4.0489,-4.0558,-4.0749,-4.0904,-4.1125,-4.1558,-4.1804,-4.1852,-4.1677,-4.147,-4.0388,-3.9078,-3.8042,-3.7182,-3.6984,-3.7013,-3.7134,-3.7342,-3.7474,-3.7533,-3.7621,-3.7767,-4.2291,-4.0534,-4.0449,-3.93,-3.7971,-3.786,-3.7769,-3.7782,-3.773,-3.7861,-3.7887,-3.79,-3.79,-3.79,-3.79,-3.7808,-3.7639,-3.7312,-3.705,-3.6938,-3.649,-3.6476,-3.6989,-3.7404,-3.7766,-3.8327,-3.8885,-3.9316,-3.9388,-3.9388,-3.9388,-3.9388,-3.9388,-3.9388,-3.9388,-3.9388,-3.9388,-3.9388,-3.9388,-3.9388,-3.9388,-3.9388,-3.9388,-3.9388,-3.9388,-3.9388,-3.9388,-3.9388,-3.9388,-3.9388,-3.9388,-3.9388,-3.9388,-3.926,-3.9275,-3.9179,-3.9089,-3.9187,-3.9194,-3.9048,-3.8857,-3.8461,-3.792,-3.7558,-3.7487,-3.7427,-3.7367,-3.7415,-3.7415,-3.7415,-3.76,-3.8292,-3.8846,-3.9275,-3.969,-4.009,-4.0413,-4.0489,-4.0489,-4.0489,-4.0489,-4.0489,-4.0558,-4.0593,-4.0904,-4.0715,-4.087,-4.0904,-4.0749,-4.0749,-4.0612,-4.0627,-4.0524,-4.0593,-4.087,-4.1091,-4.1393,-4.1706,-4.2205,-4.2458,-4.2552,-4.2228,-4.1823,-4.0405,-3.8938,-3.8606,-3.8014,-3.773,-3.7592,-3.7838,-3.8067,-3.8278,-3.8362,-3.8407,-3.8407,-4.0067,-3.8307,-3.8208,-3.7865,-3.7547,-3.7504,-3.7126,-3.658,-3.7037,-3.7469,-3.7835,-3.7887,-3.79,-3.79,-3.7835,-3.7665,-3.7246,-3.6828,-3.6684,-3.6507,-3.6226,-3.6606,-3.7364,-3.7763,-3.8149,-3.8425,-3.8885,-3.9388,-3.9388,-3.9388,-3.9388,-3.9388,-3.9388,-3.9388,-3.9388,-3.9388,-3.9388,-3.9388,-3.9388,-3.9388,-3.9388,-3.9388,-3.9388,-3.9388,-3.9388,-3.9388,-3.9388,-3.9388,-3.9388,-3.9388,-3.9388,-3.9388,-3.9388,-3.8916,-3.8945,-3.9125,-3.8512,-3.8527,-3.8607,-3.8394,-3.8012,-3.7691,-3.7195,-3.688,-3.6669,-3.6563,-3.6565,-3.6675,-3.6769,-3.6769,-3.7015,-3.7846,-3.86,-3.9093,-3.9567,-4.0013,-4.0443,-4.0489,-4.0489,-4.0489,-4.0489,-4.0524,-4.0593,-4.0836,-4.1158,-4.1492,-4.1885,-4.1949,-4.1575,-4.1393,-4.1024,-4.0938,-4.0646,-4.0715,-4.1091,-4.1591,-4.1981,-4.2395,-4.2862,-4.3075,-4.3227,-4.2486,-4.167,-4.0141,-3.8879,-3.8707,-3.8537,-3.8274,-3.8238,-3.8557,-3.875,-3.893,-3.9135,-3.9189,-3.9162,-3.9952,-3.8571,-3.7713,-3.7176,-3.6877,-3.6834,-3.6761,-3.6684,-3.6639,-3.7156,-3.7992,-3.7971,-3.79,-3.7808,-3.7639,-3.7435,-3.6886,-3.6096,-3.5927,-3.5816,-3.5979,-3.6512,-3.7218,-3.802,-3.85,-3.8775,-3.9083,-3.9388,-3.9388,-3.9388,-3.9388,-3.9388,-3.9388,-3.9388,-3.9388,-3.9388,-3.9388,-3.9388,-3.9388,-3.9388,-3.9388,-3.9388,-3.9388,-3.9388,-3.9388,-3.9388,-3.9388,-3.9388,-3.9388,-3.9239,-3.9125,-3.8931,-3.8751,-3.8302,-3.8182,-3.8197,-3.7928,-3.7653,-3.788,-3.7662,-3.7171,-3.6955,-3.6516,-3.6216,-3.6393,-3.6318,-3.6396,-3.6506,-3.6599,-3.6615,-3.6799,-3.7461,-3.8138,-3.8692,-3.9305,-3.9874,-4.0259,-4.0489,-4.0489,-4.0489,-4.0489,-4.0489,-4.0646,-4.1057,-4.1343,-4.1426,-4.1949,-4.2141,-4.1917,-4.2109,-4.1706,-4.1459,-4.1309,-4.1376,-4.1836,-4.23,-4.2707,-4.3106,-4.3499,-4.3462,-4.3356,-4.2489,-4.1455,-4.0287,-3.9455,-3.9128,-3.8947,-3.8794,-3.8984,-3.9322,-3.9454,-3.9575,-3.9747,-3.9816,-3.9696,-4.0341,-3.9406,-3.7827,-3.6849,-3.625,-3.6224,-3.6639,-3.7089,-3.6528,-3.6917,-3.7997,-3.7978,-3.7997,-3.786,-3.7479,-3.723,-3.6762,-3.5999,-3.5567,-3.5399,-3.525,-3.6356,-3.7287,-3.7993,-3.8561,-3.9046,-3.9352,-3.9388,-3.9388,-3.9388,-3.9388,-3.9388,-3.9388,-3.9388,-3.9388,-3.9388,-3.9388,-3.9388,-3.9388,-3.9388,-3.9388,-3.9388,-3.9388,-3.9388,-3.9388,-3.9388,-3.9388,-3.9388,-3.9388,-3.9185,-3.8871,-3.8616,-3.8212,-3.7793,-3.7584,-3.7479,-3.7195,-3.7158,-3.7305,-3.6917,-3.673,-3.6509,-3.5961,-3.5846,-3.6053,-3.6195,-3.6258,-3.6367,-3.646,-3.6645,-3.6846,-3.7307,-3.7984,-3.8646,-3.929,-3.9844,-4.0197,-4.0489,-4.0489,-4.0489,-4.0524,-4.0524,-4.0904,-4.1276,-4.1591,-4.1641,-4.1739,-4.1706,-4.1901,-4.2474,-4.2599,-4.2474,-4.2443,-4.2568,-4.2676,-4.2862,-4.3243,-4.3663,-4.3972,-4.3826,-4.3421,-4.2305,-4.1476,-4.0915,-4.0207,-3.9654,-3.9549,-3.9497,-3.9747,-3.9876,-3.9876,-3.985,-3.9918,-3.9995,-4.002,-3.8294,-3.7402,-3.6399,-3.6292,-3.668,-3.6706,-3.6851,-3.6922,-3.6633,-3.6857,-3.7632,-3.8201,-3.8499,-3.8917,-3.832,-3.7762,-3.6949,-3.6029,-3.5722,-3.5669,-3.5538,-3.6571,-3.758,-3.8185,-3.8679,-3.9119,-3.9388,-3.9388,-3.9388,-3.9388,-3.9388,-3.9388,-3.9388,-3.9388,-3.9388,-3.9388,-3.9388,-3.9388,-3.9388,-3.9388,-3.9388,-3.9388,-3.9388,-3.9388,-3.9388,-3.9388,-3.9388,-3.9388,-3.9388,-3.9179,-3.8751,-3.8407,-3.7928,-3.733,-3.6956,-3.6851,-3.6537,-3.6465,-3.6379,-3.6202,-3.6105,-3.5982,-3.5668,-3.5799,-3.6022,-3.6148,-3.6258,-3.6445,-3.6599,-3.6892,-3.72,-3.7938,-3.8616,-3.9228,-3.989,-4.0136,-4.0428,-4.0489,-4.0489,-4.0524,-4.0593,-4.0836,-4.1276,-4.1804,-4.2489,-4.2707,-4.3213,-4.3122,-4.2458,-4.2909,-4.3366,-4.335,-4.332,-4.3439,-4.3453,-4.3363,-4.3647,-4.4121,-4.426,-4.3839,-4.3087,-4.1967,-4.1233,-4.0879,-4.0479,-3.9977,-3.9969,-3.9893,-3.9944,-4.002,-4.0045,-4.007,-4.0096,-4.0113,-4.0113]}]]